     2.10           OBSERVATION DATA    G (GPS)             RINEX VERSION / TYPE
teqc 2005May6 SOPAC 20050707 00:22:33UTC                    PGM / RUN BY / DATE
Linux 2.4.20-8|Pentium IV|gcc|Linux|486/DX+                 COMMENT
BIT 2 OF LLI FLAGS DATA COLLECTED UNDER A/S CONDITION       COMMENT
LIKELY                                                      MARKER NAME
LIKE                                                        MARKER NUMBER
Dave Goodman                                                OBSERVER / AGENCY
0220309504 TRIMBLE 5700 2.01                                REC # / TYPE / VERS
12422974 TRM41249.00 NONE                                   ANT # / TYPE
 -2439867.0000 -4141226.0000  4180644.0000                  APPROX POSITION XYZ
        2.0000        0.0000        0.0000                  ANTENNA: DELTA H/E/N
     1     1                                                WAVELENGTH FACT L1/2
     6    L1    L2    C1    P2    P1    D1                  # / TYPES OF OBSERV
    15.0000                                                 INTERVAL
Northern California Height Modernization 2004               COMMENT
                                                            COMMENT
SOPAC - Scripps Orbit and Permanent Array Center            COMMENT
IGPP - Institute of Geophysics and Planetary Physics        COMMENT
SIO - Scripps Institution of Oceanography                   COMMENT
UCSD - University of California, San Diego                  COMMENT
                                                            COMMENT
email: archive@gpsmail.ucsd.edu                             COMMENT
ftp://garner.ucsd.edu                                       COMMENT
http://sopac.ucsd.edu                                       COMMENT
                                                            COMMENT
                                                            COMMENT
Approximate Lat, Lon : 41.207, -120.505                     COMMENT
                                                            COMMENT
SNR is mapped to RINEX snr flag value [0-9]                 COMMENT
L1 & L2: 2-19 dBHz = 1, 20-27 dBHz = 2, 28-31 dBHz = 3      COMMENT
32-35 dBHz = 4, 36-38 dBHz = 5, 39-41 dBHz = 6              COMMENT
42-44 dBHz = 7, 45-48 dBHz = 8, >= 49 dBHz = 9              COMMENT
  2004     9     3    14    58   30.0000000     GPS         TIME OF FIRST OBS
                                                            END OF HEADER
 04  9  3 14 58 30.0000000  0  7G11G14G15G 1G19G22G25
   -839296.58258   -642786.23853  22823384.5234   22823381.3554

    657495.08658    503364.78557  20358707.3754   20358703.8634

   1597645.36758   1225477.05554  21898054.8054   21898053.3404

   -557809.77357   -433043.31252  23865139.3204   23865137.6604

   1056930.68058    810209.18454  22744308.8674   22744304.3874

   1080047.13358    827821.95355  21860000.7194   21859996.5704

  -1057997.17257   -807515.41052  23137303.5554   23137301.4654

 04  9  3 14 58 45.0000000  0  7G11G14G15G 1G19G22G25
   -868453.52348   -665505.93743  22817835.9694   22817832.9384
      1943.7964
    682917.48449    523174.44147  20363544.8364   20363541.6484
     -1694.8274
   1656624.21548   1271434.57044  21909277.9454   21909276.1094
     -3931.9234
   -594901.59847   -461946.03542  23858080.6484   23858079.5044
      2472.7884
   1096749.15648    841236.54744  22751886.0864   22751881.3164
     -2654.5654
   1119792.98849    858792.72345  21867564.2424   21867559.8444
     -2649.7244
  -1095550.99647   -836778.09442  23130156.7424   23130155.1134
      2503.5884
 04  9  3 14 59  0.0000000  0  7G11G14G15G 1G19G22G25
   -897524.70748   -688158.80544  22812303.8284   22812300.9494
      1938.0794
    708457.16848    543075.48846  20368405.4144   20368401.8914
     -1702.6464
   1715696.07448   1317464.56644  21920518.8444   21920517.0864
     -3938.1244
   -631937.90647   -490805.48442  23851033.1094   23851031.3634
      2469.0874
   1136681.72748    872352.81344  22759484.7194   22759480.1334
     -2662.1714
   1159592.43849    889805.27045  21875137.9844   21875133.3914
     -2653.2974
  -1133053.21147   -866000.57843  23123020.4924   23123018.7544
      2500.1484
 04  9  3 14 59 15.0000000  0  7G11G14G15G 1G19G22G25
   -926510.91448   -710745.46544  22806788.3204   22806784.7344
      1932.4144
    734112.90649    563066.97346  20373287.0634   20373283.8444
     -1710.3834
   1774859.60949   1363566.00044  21931777.2114   21931775.4264
     -3944.2364
   -668919.55146   -519622.35242  23843995.8524   23843994.5164
      2465.4434
   1176726.99247    903556.89844  22767104.8674   22767100.7154
     -2669.6844
   1199444.52749    920858.82845  21882721.8754   21882717.4264
     -2656.8064
  -1170504.43448   -895183.32443  23115894.3984   23115892.6294
      2496.7484
 04  9  3 14 59 30.0000000  0  7G11G14G15G 1G19G22G25
   -955414.81248   -733267.97743  22801288.2034   22801284.7974
      1926.9274
    759881.53948    583146.41846  20378190.9694   20378187.5984
     -1717.9094
   1834111.64848   1409736.39844  21943053.0084   21943050.9694
     -3950.1364
   -705849.27346   -548398.73842  23836968.6804   23836967.0634
      2461.9824
   1216881.69148    934846.26644  22774746.5634   22774742.1484
     -2676.9804
   1239346.18849    951951.02045  21890314.4694   21890309.9144
     -2660.1114
  -1207907.39847   -924328.46143  23108776.7034   23108775.2424
      2493.5314
 04  9  3 14 59 45.0000000  0  7G11G14G15G 1G19G22G25
   -984237.72348   -755727.39544  22795802.9224   22795800.0234
      1921.5274
    785761.31348    603312.46547  20383115.5394   20383112.2464
     -1725.3184
   1893450.47348   1455974.42244  21954344.6094   21954342.5784
     -3955.9224
   -742728.45346   -577135.73842  23829951.0394   23829949.3554
      2458.6124
   1257144.00848    966219.46544  22782408.0004   22782403.6484
     -2684.1544
   1279295.98049    983080.71145  21897916.9774   21897912.6484
     -2663.3204
  -1245263.12547   -953436.78943  23101667.9534   23101666.7854
      2490.3824
 04  9  3 15  0  0.0000000  0  7G11G14G15G 1G19G22G25
  -1012981.20348   -778124.90244  22790333.4144   22790330.5164
      1916.2324
    811750.06348    623563.43447  20388060.9064   20388058.1524
     -1732.5834
   1952873.88348   1502278.35544  21965652.4304   21965650.3324
     -3961.5614
   -779558.89847   -605834.77042  23822942.3054   23822940.3134
      2455.3634
   1297511.67248    997674.77744  22790089.6094   22790084.8834
     -2691.1784
   1319291.77049   1014246.25045  21905527.7274   21905523.4964
     -2666.3864
  -1282573.34047   -982509.65643  23094567.9144   23094565.9734
      2487.3484
 04  9  3 15  0 15.0000000  0  7G11G14G15G 1G19G22G25
  -1041642.57448   -800458.45344  22784879.4144   22784875.9804
      1910.7584
    837849.92648    643900.98047  20393027.6724   20393024.8834
     -1739.9914
   2012383.89148   1548649.77344  21976976.8834   21976974.4104
     -3967.3344
   -816338.18747   -634493.94542  23815943.9064   23815941.8834
      2451.9534
   1337986.62147   1029213.67644  22797791.8204   22797786.8364
     -2698.3304
   1359335.94149   1045449.47345  21913148.2274   21913144.0204
     -2669.6114
  -1319835.37148  -1011544.99243  23087477.2034   23087475.4344
      2484.1354
 04  9  3 15  0 30.0000000  0  7G11G14G15G 1G19G22G25
  -1070224.75048   -822730.27044  22779440.4224   22779437.0354
      1905.4784
    864057.51249    664322.46947  20398014.7734   20398011.7584
     -1747.1724
   2071977.06348   1595085.98044  21988316.8364   21988315.0904
     -3972.8784
   -853069.29347   -663115.60242  23808953.8364   23808951.7234
      2448.7404
   1378565.41048   1060833.50444  22805513.9614   22805508.8674
     -2705.2534
   1399425.37949   1076687.98046  21920777.1024   21920772.9494
     -2672.6294
  -1357052.10248  -1040545.00843  23080395.2974   23080393.4734
      2481.1154
 04  9  3 15  0 45.0000000  0  7G11G14G15G 1G19G22G25
  -1098729.10548   -844941.46143  22774016.2814   22774012.9344
      1900.2904
    890371.05949    684826.52047  20403022.1094   20403019.3674
     -1754.2364
   2131651.62549   1641585.62544  21999672.7034   21999670.1134
     -3978.3044
   -889753.61747   -691700.78142  23801972.6254   23801971.2814
      2445.6224
   1419246.23047   1092532.82044  22813255.1334   22813250.6484
     -2712.0554
   1439558.41849   1107960.46545  21928414.2814   21928409.8404
     -2675.5364
  -1394224.78948  -1069510.71143  23073321.4454   23073320.0204
      2478.1794
 04  9  3 15  1  0.0000000  0  7G11G14G15G 1G19G22G25
  -1127155.71148   -867092.05944  22768606.6724   22768603.3984
      1895.1074
    916789.89549    705412.61747  20408049.1024   20408046.5944
     -1761.2564
   2191406.78148   1688148.07044  22011043.3754   22011041.0704
     -3983.6774
   -926391.43047   -720249.72742  23795000.5784   23794999.5864
      2442.5214
   1460028.15647   1124310.92644  22821015.6254   22821010.5164
     -2718.7954
   1479734.60549   1139266.57445  21936059.3754   21936054.6214
     -2678.4124
  -1431353.50848  -1098442.15643  23066256.1174   23066254.0084
      2475.2484
 04  9  3 15  1 15.0000000  0  7G11G14G15G 1G19G22G25
  -1155502.26248   -889180.27743  22763212.3524   22763208.8834
      1889.7704
    943315.96149    726082.27046  20413097.2734   20413094.2194
     -1768.4044
   2251244.48048   1734774.82844  22022430.1644   22022428.2424
     -3989.1804
   -962980.43747   -748760.63342  23788038.6024   23788036.6914
      2439.2674
   1500912.99646   1156169.23444  22828795.7584   22828790.8714
     -2725.6564
   1519956.03948   1170607.93445  21943713.0234   21943708.2504
     -2681.4294
  -1468435.70748  -1127337.34443  23059199.6644   23059197.6094
      2472.1474
 04  9  3 15  1 30.0000000  0  7G11G14G15G 1G19G22G25
  -1183772.20348   -911208.80543  22757833.1414   22757829.3634
      1884.6634
    969945.44549    746832.51646  20418164.8444   20418161.3204
     -1775.2994
   2311160.90649   1781462.92644  22033832.0164   22033830.3094
     -3994.4284
   -999524.16447   -777236.25442  23781084.3594   23781082.1134
      2436.2484
   1541896.80946   1188104.66844  22836594.7974   22836590.2624
     -2732.2544
   1560219.01648   1201981.67645  21951374.4454   21951370.1454
     -2684.1984
  -1505474.69948  -1156198.85243  23052150.8984   23052149.3204
      2469.2664
 04  9  3 15  1 45.0000000  0  7G11G14G15G 1G19G22G25
  -1211964.74648   -933177.02743  22752468.4304   22752464.3204
      1879.5034
    996678.41449    767663.39147  20423251.9304   20423248.5234
     -1782.1984
   2371156.07048   1828212.37544  22045248.7274   22045246.8634
     -3999.6784
  -1036022.12947   -805676.24242  23774138.9614   23774136.5944
      2433.1984
   1582979.62146   1220117.21544  22844412.4384   22844408.6954
     -2738.8544
   1600523.79748   1233387.98045  21959044.6254   21959040.1484
     -2686.9854
  -1542470.02348  -1185026.34043  23045111.3524   23045109.4224
      2466.3554
 04  9  3 15  2  0.0000000  0  7G11G14G15G 1G19G22G25
  -1240079.34848   -955084.52043  22747118.2274   22747114.1524
      1874.3074
   1023514.84049    788574.88746  20428358.7664   20428355.1764
     -1789.0954
   2431229.88749   1875023.12544  22056680.7584   22056678.5864
     -4004.9214
  -1072473.93047   -834080.24242  23767202.2274   23767200.1884
      2430.1204
   1624161.29748   1252206.82044  22852249.6484   22852244.6724
     -2745.4454
   1640870.68049   1264827.09045  21966722.2664   21966718.0394
     -2689.7924
  -1579420.83248  -1213819.14843  23038079.8914   23038077.5274
      2463.3874
 04  9  3 15  2 15.0000000  0  7G11G14G15G 1G19G22G25
  -1268116.85948   -976931.93043  22741782.6884   22741778.7854
      1869.1674
   1050453.37149    809565.94147  20433484.8364   20433481.4804
     -1795.9024
   2491381.03549   1921894.11744  22068127.1564   22068124.9964
     -4010.0774
  -1108880.68746   -862449.12142  23760273.6564   23760272.6604
      2427.1174
   1665440.38748   1284372.33244  22860104.4224   22860100.0084
     -2751.9394
   1681258.42649   1296298.05145  21974407.8524   21974403.5704
     -2692.5164
  -1616327.98448  -1242577.94143  23031056.2894   23031054.4384
      2460.4774
 04  9  3 15  2 30.0000000  0  7G11G14G15G 1G19G22G25
  -1296075.42248   -998717.82443  22736462.2664   22736458.8324
      1863.9044
   1077495.46149    830637.69146  20438631.0084   20438627.6374
     -1802.8064
   2551610.96549   1968826.51644  22079588.1954   22079586.4264
     -4015.3294
  -1145240.39847   -890781.31242  23753354.7664   23753353.8594
      2423.9814
   1706818.20748   1316614.78544  22867978.2894   22867974.3284
     -2758.5214
   1721688.68849   1327802.13345  21982101.4064   21982097.3444
     -2695.3514
  -1653189.41048  -1271301.09843  23024041.7974   23024040.3204
      2457.4284
 04  9  3 15  2 45.0000000  0  7G11G14G15G 1G19G22G25
  -1323954.14848  -1020441.50843  22731157.0314   22731153.3244
      1858.5824
   1104641.50449    851790.43846  20443796.4924   20443793.1844
     -1809.7364
   2611919.93849   2015820.49644  22091065.2504   22091063.0904
     -4020.5984
  -1181552.40247   -919076.35942  23746444.6414   23746443.8444
      2420.8004
   1748295.03147   1348934.37144  22875871.3594   22875866.6524
     -2765.1224
   1762161.98049   1359339.74645  21989803.3754   21989799.4844
     -2698.2204
  -1690004.32848  -1299988.01243  23017036.5084   23017033.9774
      2454.3284
 04  9  3 15  3  0.0000000  0  7G11G14G15G 1G19G22G25
  -1351752.14848  -1042102.28543  22725867.5864   22725864.0044
      1853.2004
   1131891.93049    873024.53147  20448982.1644   20448978.8204
     -1816.6954
   2672308.37549   2062876.39544  22102556.3754   22102554.7974
     -4025.8964
  -1217815.92247   -947333.62942  23739544.2894   23739543.5354
      2417.5684
   1789871.07048   1381331.25844  22883782.5084   22883778.6684
     -2771.7364
   1802678.96949   1390911.40245  21997513.4614   21997509.2384
     -2701.1334
  -1726771.66848  -1328637.84443  23010038.9454   23010037.6994
      2451.1564
 04  9  3 15  3 15.0000000  0  7G11G14G15G 1G19G22G25
  -1379469.28948  -1063700.05943  22720593.1564   22720588.9494
      1847.8094
   1159246.46149    894339.73847  20454187.7814   20454184.1844
     -1823.6354
   2732776.05149   2109994.03544  22114062.8984   22114061.5594
     -4031.1784
  -1254030.79747   -975553.00043  23732652.8134   23732652.3714
      2414.3254
   1831546.03947   1413805.25044  22891713.2114   22891709.0164
     -2778.3314
   1843239.57449   1422517.05945  22005231.8444   22005227.5044
     -2704.0404
  -1763491.14148  -1357250.37143  23003052.0944   23003050.6524
      2447.9654
 04  9  3 15  3 30.0000000  0  7G11G14G15G 1G19G22G25
  -1407107.16048  -1085236.06644  22715333.4924   22715330.3954
      1842.5254
   1186702.85949    915734.32847  20459412.2194   20459408.9734
     -1830.4274
   2793320.63348   2157171.60244  22125584.3594   22125582.7774
     -4036.3054
  -1290198.92648  -1003735.94542  23725770.7584   23725769.2034
      2411.2094
   1873317.52747   1446354.44144  22899661.8984   22899658.0594
     -2784.7664
   1883841.79749   1454155.14545  22012958.1564   22012954.0314
     -2706.8154
  -1800164.45348  -1385826.95343  22996073.5864   22996070.8094
      2444.8884
 04  9  3 15  3 45.0000000  0  7G11G14G15G 1G19G22G25
  -1434665.12148  -1106709.80144  22710089.5704   22710086.3284
      1837.1974
   1214261.37949    937208.49247  20464656.4694   20464653.0274
     -1837.2354
   2853942.21948   2204409.16844  22137120.1564   22137118.7424
     -4041.4394
  -1326319.75847  -1031882.03542  23718897.2664   23718895.8594
      2408.0554
   1915185.60248   1478978.89144  22907629.2894   22907625.4924
     -2791.2054
   1924486.04749   1485825.96545  22020692.5004   22020688.5004
     -2709.6174
  -1836790.89548  -1414367.00843  22989103.3524   22989101.5164
      2441.7634
 04  9  3 15  4  0.0000000  0  7G11G14G15G 1G19G22G25
  -1462140.80548  -1128119.43044  22704861.3134   22704857.6524
      1831.7124
   1241923.77749    958763.60947  20469920.4384   20469917.2854
     -1844.1604
   2914642.68048   2251708.19544  22148670.8594   22148669.7584
     -4046.6974
  -1362391.01647  -1059989.49242  23712032.8204   23712032.6644
      2404.7514
   1957152.05547   1511679.99644  22915615.2504   22915611.5554
     -2797.7644
   1965174.25449   1517531.05145  22028435.2664   22028431.0084
     -2712.5474
  -1873367.98048  -1442868.60543  22982142.8674   22982140.5864
      2438.4724
 04  9  3 15  4 15.0000000  0  7G11G14G15G 1G19G22G25
  -1489536.26248  -1149466.54344  22699648.3594   22699644.7934
      1826.3644
   1269687.59049    980397.73447  20475203.9694   20475200.4844
     -1850.9214
   2975419.51648   2299066.74244  22160236.5084   22160234.6604
     -4051.7894
  -1398414.90246  -1088060.03143  23705177.7814   23705176.5904
      2401.5924
   1999214.18447   1544455.65644  22923619.1954   22923615.7464
     -2804.1424
   2005904.18848   1549268.64545  22036185.7114   22036181.9414
     -2715.3294
  -1909897.68047  -1471333.29743  22975191.6254   22975189.1454
      2435.3134
 04  9  3 15  4 30.0000000  0  7G11G14G15G 1G19G22G25
  -1516848.19548  -1170748.57444  22694450.7504   22694447.7234
      1820.7964
   1297555.56349   1002113.03147  20480507.1414   20480503.7464
     -1857.8654
   3036275.35248   2346486.84444  22171817.5234   22171815.5474
     -4057.0564
  -1434388.33246  -1116091.27343  23698331.6884   23698330.9574
      2398.2294
   2041374.58647   1577307.88744  22931642.4774   22931638.8714
     -2810.6934
   2046678.68848   1581040.95745  22043944.9694   22043940.7664
     -2718.3004
  -1946376.84447  -1499758.59043  22968250.0864   22968247.9694
      2431.9444
 04  9  3 15  4 45.0000000  0  7G11G14G15G 1G19G22G25
  -1544078.75048  -1191967.18444  22689268.5004   22689265.8244
      1815.3704
   1325525.16049   1023907.51647  20485829.0394   20485825.9614
     -1864.6404
   3097207.65248   2393966.53544  22183412.2194   22183410.9494
     -4062.1534
  -1470313.45747  -1144084.85942  23691495.8594   23691494.5824
      2395.0084
   2083630.67247   1610234.68444  22939683.4844   22939679.1994
     -2817.0724
   2087495.46949   1612846.22745  22051712.4224   22051707.9384
     -2721.1194
  -1982807.40248  -1528146.00843  22961317.3204   22961315.5704
      2428.7044
 04  9  3 15  5  0.0000000  0  7G11G14G15G 1G19G22G25
  -1571226.38748  -1213121.18443  22684102.4534   22684099.9804
      1809.8424
   1353597.25049   1045781.86747  20491171.4144   20491168.0744
     -1871.4734
   3158217.33248   2441506.52344  22195021.9064   22195020.2774
     -4067.3124
  -1506188.91447  -1172039.76642  23684668.7894   23684668.0984
      2391.6974
   2125983.28147   1643236.71144  22947742.9454   22947738.3794
     -2823.5074
   2128355.76249   1644685.39845  22059488.2814   22059483.5274
     -2724.0204
  -2019187.85248  -1556494.39143  22954393.9384   22954392.3324
      2425.3634
 04  9  3 15  5 15.0000000  0  7G11G14G15G 1G19G22G25
  -1598291.00048  -1234210.49644  22678952.6954   22678949.5824
      1804.3084
   1381771.42249   1067735.75846  20496532.5164   20496529.5204
     -1878.2784
   3219303.85548   2489106.38344  22206646.1094   22206644.9534
     -4072.4354
  -1542014.79747  -1199956.02742  23677851.1094   23677850.2074
      2388.3924
   2168431.80947   1676313.46144  22955820.3674   22955816.2974
     -2829.9024
   2169259.21549   1676558.20345  22067271.8444   22067267.4844
     -2726.8974
  -2055518.05948  -1584803.62543  22947480.7894   22947478.5594
      2422.0144
 04  9  3 15  5 30.0000000  0  7G11G14G15G 1G19G22G25
  -1625272.56648  -1255235.08644  22673818.0704   22673815.0664
      1798.7714
   1410047.34849   1089768.93847  20501913.0314   20501910.4654
     -1885.0624
   3280466.80148   2536765.79344  22218285.6254   22218283.5164
     -4077.5304
  -1577791.17246  -1227833.70342  23671042.5864   23671041.8984
      2385.0924
   2210975.69147   1709464.52044  22963915.6174   22963911.7854
     -2836.2594
   2210205.56349   1708464.43845  22075063.2344   22075059.0864
     -2729.7574
  -2091797.82448  -1613073.55543  22940577.3284   22940574.7464
      2418.6514
 04  9  3 15  5 45.0000000  0  7G11G14G15G 1G19G22G25
  -1652169.51248  -1276193.74244  22668699.7194   22668696.5784
      1793.1304
   1438426.00849   1111882.17647  20507313.4694   20507310.3794
     -1891.9114
   3341707.18448   2584485.54744  22229938.8364   22229937.0044
     -4082.6924
  -1613516.60945  -1255671.72342  23664243.9924   23664243.1994
      2381.6964
   2253615.87948   1742690.61744  22972030.3364   22972025.6804
     -2842.6794
   2251196.07449   1740405.07845  22082863.6564   22082859.1844
     -2732.7014
  -2128025.49248  -1641302.89543  22933683.6644   22933681.1454
      2415.1784
 04  9  3 15  6  0.0000000  0  7G11G14G15G 1G19G22G25
  -1678982.49648  -1297086.97744  22663597.2814   22663594.5084
      1787.5324
   1466906.46149   1134074.73046  20512733.3284   20512729.8444
     -1898.6974
   3403023.87948   2632264.77344  22241606.8364   22241605.5434
     -4087.7804
  -1649191.80945  -1283470.56242  23657456.2114   23657454.1454
      2378.3474
   2296351.18048   1775990.83244  22980163.3364   22980158.1484
     -2849.0204
   2292229.86749   1772379.44545  22090671.8984   22090667.5044
     -2735.5864
  -2164201.64548  -1669492.09843  22926799.2974   22926796.9414
      2411.7434
 04  9  3 15  6 15.0000000  0  7G11G14G15G 1G19G22G25
  -1705712.32048  -1317915.41444  22658510.8984   22658507.9574
      1781.9884
   1495487.12149   1156345.36746  20518171.7894   20518168.9064
     -1905.3774
   3464415.43448   2680102.32444  22253289.5314   22253287.9924
     -4092.7704
  -1684817.82046  -1311231.11742  23650676.2034   23650674.4694
      2375.0674
   2339179.96947   1809363.90644  22988313.0084   22988308.4184
     -2855.2534
   2333305.84849   1804386.68845  22098488.6804   22098484.2664
     -2738.3994
  -2200327.15647  -1697641.83243  22919924.5704   22919922.6684
      2408.3674
 04  9  3 15  6 30.0000000  0  7G11G14G15G 1G19G22G25
  -1732357.03948  -1338677.53544  22653440.4774   22653437.5554
      1776.3154
   1524169.59849   1178695.34047  20523630.2114   20523626.7734
     -1912.1654
   3525883.32848   2727999.35944  22264986.9384   22264985.4144
     -4097.8604
  -1720392.80146  -1338951.86342  23643906.6334   23643905.0904
      2371.6654
   2382103.81348   1842811.03944  22996481.3054   22996476.4804
     -2861.5904
   2374425.64549   1836428.06345  22106313.7194   22106308.9534
     -2741.3204
  -2236400.05147  -1725750.56243  22913059.9694   22913058.5434
      2404.8604
 04  9  3 15  6 45.0000000  0  7G11G14G15G 1G19G22G25
  -1758917.69948  -1359374.16044  22648386.4064   22648383.2154
      1770.7114
   1552952.20749   1201123.34047  20529107.0394   20529104.0394
     -1918.8414
   3587425.93448   2775954.60544  22276697.9224   22276696.0084
     -4102.8404
  -1755917.97346  -1366633.82042  23637147.5004   23637145.3204
      2368.3454
   2425120.85548   1876330.79744  23004666.9454   23004662.2274
     -2867.8034
   2415587.81649   1868502.46545  22114146.4224   22114142.5354
     -2744.1454
  -2272421.18447  -1753818.96143  22906205.2584   22906203.6374
      2401.4094
 04  9  3 15  7  0.0000000  0  7G11G14G15G 1G19G22G25
  -1785394.00848  -1380005.05144  22643348.3364   22643345.0044
      1765.0874
   1581834.85249   1223629.28947  20534603.2504   20534600.0744
     -1925.5104
   3649042.99248   2823967.86744  22288423.6254   22288422.0984
     -4107.8044
  -1791393.13346  -1394276.81242  23630395.6644   23630395.3834
      2365.0114
   2468230.85947   1909922.98844  23012870.0864   23012866.0274
     -2874.0004
   2456792.44949   1900609.95345  22121987.0704   22121983.4104
     -2746.9764
  -2308390.14147  -1781846.69943  22899360.6174   22899358.8324
      2397.9304
 04  9  3 15  7 15.0000000  0  7G11G14G15G 1G19G22G25
  -1811784.73848  -1400569.26644  22638326.4844   22638322.6844
      1759.3824
   1610818.21549   1246213.73046  20540119.0314   20540115.5594
     -1932.2244
   3710735.20748   2872039.69144  22300162.5944   22300161.5434
     -4112.8144
  -1826817.20346  -1421879.98842  23623655.2504   23623654.4304
      2361.6054
   2511434.41048   1943588.07443  23021091.9304   23021087.7114
     -2880.2374
   2498040.49649   1932751.26645  22129836.4224   22129832.6844
     -2749.8704
  -2344305.77747  -1809832.89543  22892526.2734   22892524.5164
      2394.3764
 04  9  3 15  7 30.0000000  0  7G11G14G15G 1G19G22G25
  -1838089.68048  -1421066.62543  22633320.5004   22633317.1254
      1753.6634
   1639902.00049   1268876.41047  20545653.1484   20545649.9144
     -1938.9194
   3772502.29748   2920169.87144  22311916.3674   22311915.3954
     -4117.8064
  -1862190.14847  -1449443.28942  23616923.9844   23616923.2624
      2358.1964
   2554731.07048   1977325.70744  23029330.8834   23029327.2154
     -2886.4444
   2539331.80549   1964926.30545  22137693.7894   22137689.6914
     -2752.7544
  -2380167.86747  -1837777.35943  22885701.7344   22885700.6094
      2390.8064
 04  9  3 15  7 45.0000000  0  7G11G14G15G 1G19G22G25
  -1864307.69148  -1441496.25444  22628331.2584   22628328.3204
      1747.8674
   1669086.91449   1291617.89547  20551206.9064   20551203.6644
     -1945.6614
   3834344.82448   2968358.81644  22323685.2114   22323683.1914
     -4122.8354
  -1897510.87547  -1476965.90242  23610202.9614   23610201.2504
      2354.7154
   2598121.32448   2011136.28144  23037587.6884   23037583.9384
     -2892.6844
   2580667.19949   1997135.68445  22145559.7584   22145555.3794
     -2755.6934
  -2415975.12947  -1865679.11743  22878888.0394   22878886.2544
      2387.1514
 04  9  3 15  8  0.0000000  0  7G11G14G15G 1G19G22G25
  -1890438.23449  -1461857.71144  22623359.2344   22623356.1994
      1742.0364
   1698372.97749   1314438.19946  20556779.8134   20556776.5124
     -1952.4044
   3896262.84048   3016606.60244  22335467.6644   22335466.1484
     -4127.8684
  -1932779.08647  -1504447.61343  23603491.5234   23603490.1954
      2351.2144
   2641605.09447   2045019.71544  23045862.6254   23045858.4384
     -2898.9184
   2622046.90649   2029379.59845  22153434.2194   22153429.7704
     -2758.6474
  -2451726.97348  -1893537.68043  22872084.6804   22872083.3364
      2383.4564
 04  9  3 15  8 15.0000000  0  7G11G14G15G 1G19G22G25
  -1916482.54349  -1482151.98044  22618403.1024   22618399.8594
      1736.2874
   1727758.47749   1337335.98047  20562371.5634   20562368.3834
     -1959.0334
   3958254.64148   3064911.86744  22347264.3754   22347262.6994
     -4132.7874
  -1967996.01647  -1531889.35542  23596789.7274   23596788.0274
      2347.7954
   2685180.59847   2078974.63344  23054154.7664   23054150.9574
     -2905.0344
   2663469.54749   2061656.95745  22161316.9224   22161311.4964
     -2761.5094
  -2487424.50448  -1921353.91043  22865291.4614   22865290.2194
      2379.8354
 04  9  3 15  8 30.0000000  0  7G11G14G15G 1G19G22G25
  -1942438.97349  -1502377.77044  22613463.7584   22613460.4414
      1730.4294
   1757244.45349   1360312.05546  20567982.7034   20567979.5394
     -1965.7324
   4020321.15648   3113275.36743  22359074.8054   22359073.2854
     -4137.7684
  -2003160.20347  -1559289.99242  23590097.7274   23590096.4844
      2344.2794
   2728848.69147   2113001.70744  23062464.6024   23062460.9144
     -2911.2064
   2704936.27049   2093968.66845  22169207.5234   22169203.1524
     -2764.4484
  -2523066.05948  -1949126.53943  22858508.8594   22858507.7304
      2376.1044
 04  9  3 15  8 45.0000000  0  7G11G14G15G 1G19G22G25
  -1968308.60948  -1522535.92244  22608540.5704   22608537.7074
      1724.6424
   1786829.36349   1383365.22746  20573612.7734   20573609.2544
     -1972.3274
   4082460.82048   3161695.85544  22370899.8364   22370898.3364
     -4142.6444
  -2038272.77747  -1586650.41442  23583416.6954   23583414.6174
      2340.8384
   2772607.97347   2147099.82044  23070791.5554   23070787.2774
     -2917.2854
   2746445.80549   2126313.75045  22177106.6564   22177102.3984
     -2767.3024
  -2558652.68448  -1976856.34443  22851737.2664   22851735.9964
      2372.4424
 04  9  3 15  9  0.0000000  0  7G11G14G15G 1G19G22G25
  -1994089.59848  -1542625.00844  22603634.6484   22603631.5514
      1718.7334
   1816514.58249   1406496.55146  20579261.9844   20579258.5474
     -1979.0154
   4144674.85248   3210174.28943  22382738.7344   22382737.2504
     -4147.6024
  -2073332.18047  -1613969.41442  23576744.9844   23576742.9144
      2337.2934
   2816459.40248   2181269.74644  23079136.0394   23079132.3324
     -2923.4294
   2787999.48449   2158693.23445  22185014.0944   22185009.7664
     -2770.2454
  -2594182.53548  -2004541.92243  22844975.8594   22844974.9264
      2368.6574
 04  9  3 15  9 15.0000000  0  7G11G14G15G 1G19G22G25
  -2019781.29748  -1562644.50044  22598745.6024   22598742.4574
      1712.7804
   1846300.22349   1429706.13346  20584929.6884   20584926.2304
     -1985.7094
   4206963.50448   3258710.87944  22394591.8754   22394590.3914
     -4152.5774
  -2108337.78947  -1641246.50442  23570083.2274   23570080.8754
      2333.7074
   2860402.96947   2215511.46544  23087498.3204   23087494.6604
     -2929.5714
   2829597.86749   2191107.53145  22192929.8754   22192925.7464
     -2773.2264
  -2629654.71548  -2032182.56643  22838225.8754   22838224.5744
      2364.8124
 04  9  3 15  9 30.0000000  0  7G11G14G15G 1G19G22G25
  -2045384.41048  -1582594.97744  22593873.5234   22593870.6914
      1706.8744
   1876185.10949   1452993.05946  20590616.3984   20590613.0274
     -1992.3264
   4269325.52348   3307304.63343  22406458.9384   22406457.5634
     -4157.4684
  -2143290.46547  -1668482.34842  23563432.3364   23563429.6564
      2330.1784
   2904437.47348   2249824.03944  23095877.5004   23095874.1214
     -2935.6344
   2871239.95349   2223555.89145  22200854.2194   22200850.3164
     -2776.1394
  -2665069.87547  -2059778.77343  22831486.7974   22831485.1954
      2361.0114
 04  9  3 15  9 45.0000000  0  7G11G14G15G 1G19G22G25
  -2070897.62548  -1602475.40244  22589018.8444   22589015.4804
      1700.8814
   1906170.10949   1476357.97746  20596322.2734   20596319.4614
     -1999.0004
   4331761.63748   3355956.11744  22418339.8594   22418338.6214
     -4162.4084
  -2178189.10547  -1695676.06642  23556790.9534   23556788.3484
      2326.5764
   2948563.53547   2284207.96144  23104274.9534   23104271.5594
     -2941.7374
   2912926.73049   2256039.07045  22208786.8524   22208782.9774
     -2779.1184
  -2700426.89547  -2087329.67243  22824758.3364   22824756.7584
      2357.1354
 04  9  3 15 10  0.0000000  0  7G11G14G15G 1G19G22G25
  -2096320.03948  -1622285.07044  22584180.9064   22584178.0634
      1694.8284
   1936255.55949   1499801.18046  20602047.7194   20602044.0944
     -2005.6974
   4394272.23848   3404665.64843  22430235.2664   22430234.4264
     -4167.3734
  -2213032.85947  -1722827.03142  23550160.6644   23550157.3364
      2322.9174
   2992781.53948   2318663.51644  23112689.4064   23112685.9774
     -2947.8674
   2954658.79349   2288557.53945  22216728.1884   22216724.0474
     -2782.1374
  -2735724.62947  -2114834.39143  22818041.3524   22818039.6374
      2353.1824
 04  9  3 15 10 15.0000000  0  7G11G14G15G 1G19G22G25
  -2121653.65649  -1642025.56244  22579360.0864   22579357.0354
      1688.9084
   1966438.91049   1523320.65646  20607791.2424   20607788.0434
     -2012.2234
   4456854.73848   3453431.20343  22442144.5474   22442143.1334
     -4172.1674
  -2247823.81648  -1749936.86342  23543540.8054   23543537.1884
      2319.3974
   3037088.73448   2353188.57444  23121121.0084   23121117.8014
     -2953.8134
   2996433.85949   2321109.52345  22224677.7894   22224673.8094
     -2785.0044
  -2770964.94948  -2142294.35543  22811335.2974   22811333.2424
      2349.3554
 04  9  3 15 10 30.0000000  0  7G11G14G15G 1G19G22G25
  -2146897.44548  -1661696.05544  22574556.3284   22574553.1254
      1682.9194
   1996720.39149   1546916.61746  20613554.1334   20613550.4654
     -2018.7654
   4519509.36348   3502252.95743  22454067.2814   22454066.1484
     -4176.9754
  -2282561.44548  -1777005.13742  23536929.9844   23536927.1764
      2315.8424
   3081485.18847   2387783.19144  23129569.2194   23129565.8794
     -2959.7644
   3038252.32049   2353695.31645  22232635.7504   22232631.5824
     -2787.8974
  -2806147.06648  -2169708.97343  22804640.9064   22804638.6994
      2345.4744
 04  9  3 15 10 45.0000000  0  7G11G14G15G 1G19G22G25
  -2172051.87948  -1681296.92244  22569769.8594   22569766.2974
      1676.9624
   2027099.52049   1570588.65647  20619334.7974   20619331.4304
     -2025.2754
   4582235.44548   3551130.39543  22466003.3984   22466002.0744
     -4181.7394
  -2317246.01248  -1804032.05542  23530330.3364   23530327.4804
      2312.3044
   3125970.30147   2422446.88344  23138034.6024   23138030.7894
     -2965.6744
   3080113.73049   2386314.57845  22240601.5864   22240597.3014
     -2790.7614
  -2841271.21948  -2197078.41044  22797956.3134   22797955.1844
      2341.6104
 04  9  3 15 11  0.0000000  0  7G11G14G15G 1G19G22G25
  -2197115.24248  -1700826.81244  22565000.2194   22564996.9344
      1670.8914
   2057577.53149   1594337.75046  20625134.4534   20625131.2384
     -2031.8674
   4645034.21148   3600064.46143  22477954.4454   22477952.7544
     -4186.5844
  -2351875.82448  -1831016.31642  23523740.2194   23523737.8364
      2308.6544
   3170545.15248   2457180.51644  23146517.1884   23146512.7664
     -2971.6574
   3122019.58649   2418968.48045  22248576.3834   22248572.1524
     -2793.7244
  -2876335.45748  -2224401.15643  22791284.0704   22791282.7074
      2337.6164
 04  9  3 15 11 15.0000000  0  7G11G14G15G 1G19G22G25
  -2222088.09048  -1720286.18444  22560247.8054   22560244.5044
      1664.8574
   2088153.10249   1618162.86746  20630952.8284   20630949.6724
     -2038.3714
   4707904.36748   3649054.16044  22489918.5164   22489916.5314
     -4191.3444
  -2386451.82048  -1857958.64542  23517160.6024   23517158.3954
      2305.0664
   3215208.28148   2491982.94544  23155015.8364   23155012.1884
     -2977.5424
   3163968.94149   2451656.27345  22256558.7424   22256554.6844
     -2796.6244
  -2911340.45748  -2251677.76243  22784622.9694   22784621.2734
      2333.6674
 04  9  3 15 11 30.0000000  0  7G11G14G15G 1G19G22G25
  -2246969.28149  -1739674.12144  22555513.3914   22555509.9844
      1658.7464
   2118827.06349   1642064.64146  20636789.7034   20636786.6604
     -2044.9314
   4770846.64848   3698100.07444  22501896.0634   22501893.7154
     -4196.1524
  -2420972.85247  -1884858.14142  23510591.1024   23510589.8404
      2301.4024
   3259960.30948   2526854.62944  23163532.3834   23163527.8554
     -2983.4684
   3205962.77749   2484378.72745  22264549.5704   22264545.7544
     -2799.5894
  -2946284.97348  -2278907.23443  22777972.6954   22777970.7424
      2329.6344
 04  9  3 15 11 45.0000000  0  7G11G14G15G 1G19G22G25
  -2271760.21948  -1758991.73844  22550795.7424   22550792.3634
      1652.7294
   2149597.39149   1666041.52046  20642645.1414   20642641.8324
     -2051.3554
   4833859.10548   3747200.66044  22513886.6884   22513884.8794
     -4200.8304
  -2455440.46547  -1911715.98842  23504031.6334   23504031.0354
      2297.8414
   3304799.21148   2561794.02743  23172064.6724   23172060.3914
     -2989.2604
   3247999.15649   2517134.32845  22272548.9454   22272544.8714
     -2802.4254
  -2981170.37948  -2306090.65243  22771334.3134   22771332.5594
      2325.6944
 04  9  3 15 12  0.0000000  0  7G11G14G15G 1G19G22G25
  -2296461.75848  -1778239.68744  22546095.1484   22546091.9534
      1646.7694
   2180462.79749   1690092.47346  20648518.4454   20648515.3014
     -2057.6944
   4896940.28548   3796354.80944  22525890.7814   22525888.8524
     -4205.4124
  -2489855.74647  -1938533.07042  23497482.9694   23497482.4264
      2294.3524
   3349723.53147   2596799.98443  23180612.6644   23180608.8134
     -2994.9554
   3290077.06349   2549922.29345  22280556.1094   22280551.9024
     -2805.1944
  -3015997.42248  -2333228.57443  22764707.2974   22764705.3284
      2321.8034
 04  9  3 15 12 15.0000000  0  7G11G14G15G 1G19G22G25
  -2321072.50848  -1797416.89544  22541411.9384   22541408.2624
      1640.7174
   2211424.14549   1714218.19146  20654410.4924   20654407.4804
     -2064.0904
   4960090.99648   3845563.11744  22537908.0634   22537906.3874
     -4210.0474
  -2524217.37147  -1965308.36342  23490943.6254   23490943.6134
      2290.7754
   3394734.04347   2631873.08643  23189178.4924   23189174.2854
     -3000.7014
   3332197.47749   2582743.37544  22288571.3984   22288567.7234
     -2808.0284
  -3050764.77348  -2360319.98843  22758091.6484   22758089.1374
      2317.8234
 04  9  3 15 12 30.0000000  0  7G11G14G15G 1G19G22G25
  -2345590.43748  -1816521.78544  22536745.9384   22536742.5824
      1634.5294
   2242482.91449   1738419.82047  20660320.5084   20660317.4534
     -2070.5854
   5023312.69148   3894826.74244  22549938.8594   22549937.3284
     -4214.7804
  -2558523.65247  -1992040.49242  23484415.2734   23484415.6994
      2287.0854
   3439831.90248   2667014.25043  23197759.9304   23197755.9264
     -3006.5244
   3374362.17649   2615598.96545  22296594.9064   22296591.3834
     -2810.9804
  -3085470.36348  -2387363.28543  22751487.1094   22751484.9184
      2313.7064
 04  9  3 15 12 45.0000000  0  7G11G14G15G 1G19G22G25
  -2370016.41048  -1835555.01644  22532098.0704   22532094.8524
      1628.3984
   2273637.57049   1762696.16846  20666249.3444   20666246.1644
     -2076.9774
   5086603.89548   3944144.53944  22561982.5084   22561981.2544
     -4219.4144
  -2592775.48847  -2018730.19942  23477897.2114   23477897.9384
      2283.4564
   3485015.74647   2702222.41843  23206357.7974   23206354.1644
     -3012.2564
   3416569.97349   2648488.12945  22304627.1024   22304623.0434
     -2813.8534
  -3120114.86748  -2414358.98443  22744894.4454   22744891.9804
      2309.6344
 04  9  3 15 13  0.0000000  0  7G11G14G15G 1G19G22G25
  -2394351.81648  -1854517.66844  22527467.1174   22527463.7854
      1622.3604
   2304886.46549   1787045.94946  20672195.7974   20672192.8094
     -2083.2604
   5149962.78548   3993515.08644  22574039.2814   22574037.6884
     -4223.9264
  -2626974.30147  -2045378.59843  23471389.9614   23471389.6954
      2279.9214
   3530283.59447   2737496.03143  23214972.8364   23214968.5394
     -3017.8574
   3458819.30149   2681409.66445  22312666.6644   22312662.5554
     -2816.6224
  -3154699.60548  -2441308.11743  22738312.9064   22738310.7034
      2305.6494
 04  9  3 15 13 15.0000000  0  7G11G14G15G 1G19G22G25
  -2418596.03149  -1873409.26644  22522854.0784   22522850.1214
      1616.2814
   2336229.69549   1811469.23446  20678160.0004   20678157.0944
     -2089.5494
   5213389.55948   4042938.52344  22586109.5234   22586107.5204
     -4228.4524
  -2661119.56647  -2071985.27043  23464892.0004   23464891.5664
      2276.3514
   3575635.53147   2772835.18443  23223603.0554   23223599.4104
     -3023.4624
   3501110.49249   2714363.82445  22320714.8984   22320710.5474
     -2819.4134
  -3189223.86348  -2468210.10543  22731743.2114   22731741.3954
      2301.6174
 04  9  3 15 13 30.0000000  0  7G11G14G15G 1G19G22G25
  -2442749.44148  -1892230.09844  22518257.6484   22518254.1764
      1610.2274
   2367666.19549   1835965.19947  20684142.4924   20684138.9734
     -2095.7674
   5276883.07448   4092413.96944  22598191.0234   22598190.1054
     -4232.9014
  -2695211.93047  -2098550.74242  23458404.8134   23458403.8364
      2272.8244
   3621070.37147   2808238.93043  23232248.8984   23232245.2194
     -3028.9894
   3543442.65249   2747349.91445  22328770.7424   22328766.3404
     -2822.1444
  -3223688.14848  -2495065.38343  22725184.9384   22725182.6844
      2297.6194
 04  9  3 15 13 45.0000000  0  7G11G14G15G 1G19G22G25
  -2466810.54349  -1910979.00444  22513678.9534   22513675.4104
      1604.0734
   2399197.04749   1860534.69147  20690142.7424   20690139.4414
     -2102.0574
   5340444.34048   4141942.18044  22610286.7664   22610285.8404
     -4237.4184
  -2729250.11347  -2125074.02342  23451927.6174   23451926.1804
      2269.2124
   3666588.92647   2843707.90243  23240911.0864   23240906.8164
     -3034.5704
   3585816.96549   2780368.84445  22336833.6644   22336830.1644
     -2824.9544
  -3258090.93448  -2521872.73443  22718638.5314   22718635.9694
      2293.5194
 04  9  3 15 14  0.0000000  0  7G11G14G15G 1G19G22G25
  -2490779.65648  -1929656.23844  22509117.5234   22509114.7074
      1597.9414
   2430821.53949   1885177.14146  20696160.3444   20696157.6484
     -2108.2994
   5404072.67648   4191522.68044  22622395.1414   22622393.9304
     -4241.8894
  -2763234.32447  -2151555.22343  23445460.2424   23445458.8594
      2265.6144
   3712190.58247   2879241.61743  23249588.6564   23249585.0514
     -3040.1104
   3628233.21149   2813420.44145  22344905.4924   22344901.4964
     -2827.7504
  -3292432.12948  -2548632.08244  22712103.5164   22712101.3204
      2289.4134
 04  9  3 15 14 15.0000000  0  7G11G14G15G 1G19G22G25
  -2514655.29348  -1948260.62544  22504574.6484   22504571.1994
      1591.7094
   2462540.70349   1909893.36346  20702196.4454   20702193.3284
     -2114.6114
   5467768.86348   4241156.04744  22634515.8134   22634514.8364
     -4246.4124
  -2797163.28547  -2177993.37942  23439004.5784   23439001.9734
      2261.9314
   3757875.99648   2914840.62143  23258282.6954   23258278.3524
     -3045.6944
   3670692.34849   2846505.47744  22352984.6334   22352980.9654
     -2830.6094
  -3326710.35248  -2575342.34844  22705580.2974   22705578.8094
      2285.2154
 04  9  3 15 14 30.0000000  0  7G11G14G15G 1G19G22G25
  -2538437.84849  -1966792.48844  22500049.0004   22500045.5434
      1585.5044
   2494353.67249   1934682.68046  20708250.1254   20708247.1024
     -2120.8654
   5531532.07448   4290841.62944  22646649.5164   22646648.7344
     -4250.8814
  -2831037.46948  -2204388.86342  23432558.4064   23432556.3984
      2258.2794
   3803644.19148   2950504.12544  23266992.2194   23266987.7304
     -3051.2134
   3713193.69549   2879623.39145  22361072.7584   22361068.5664
     -2833.4234
  -3360925.88748  -2602003.77744  22699069.4224   22699067.5984
      2281.0364
 04  9  3 15 14 45.0000000  0  7G11G14G15G 1G19G22G25
  -2562125.52048  -1985250.41444  22495541.3284   22495537.8874
      1579.1784
   2526261.70349   1959546.08246  20714321.9384   20714318.9414
     -2127.2024
   5595363.50448   4340580.37943  22658795.8524   22658795.0354
     -4255.4294
  -2864855.29347  -2230740.39542  23426122.3674   23426121.3914
      2254.5224
   3849496.21148   2986232.94944  23275717.0944   23275713.1414
     -3056.8014
   3755738.85949   2912775.44144  22369169.1564   22369164.8164
     -2836.3444
  -3395076.94548  -2628614.97344  22692570.7274   22692568.6174
      2276.7374
 04  9  3 15 15  0.0000000  0  7G11G14G15G 1G19G22G25
  -2585719.83249  -2003635.59444  22491051.5314   22491048.1294
      1572.9544
   2558262.68049   1984481.89146  20720411.7344   20720408.5004
     -2133.3984
   5659261.18048   4390370.74643  22670955.5314   22670954.4844
     -4259.8454
  -2898618.42247  -2257049.34043  23419697.7034   23419696.3444
      2250.8754
   3895430.04348   3022025.53144  23284458.1804   23284454.2504
     -3062.2554
   3798326.00449   2945960.21145  22377273.2194   22377268.2384
     -2839.1434
  -3429165.08248  -2655177.13343  22686083.7194   22686082.0314
      2272.5424
 04  9  3 15 15 15.0000000  0  7G11G14G15G 1G19G22G25
  -2609217.51649  -2021945.46944  22486579.8674   22486576.7814
      1566.5124
   2590359.31349   2009492.25446  20726519.4224   20726516.5044
     -2139.7764
   5723227.69148   4440214.75043  22683127.6484   22683126.5394
     -4264.4344
  -2932323.84047  -2283313.27742  23413283.6804   23413282.9694
      2247.0284
   3941448.12548   3057883.75044  23293215.1334   23293211.3914
     -3067.8724
   3840957.96149   2979179.90645  22385385.7974   22385381.1914
     -2842.1304
  -3463186.95348  -2681687.65643  22679609.7814   22679607.6054
      2268.1254
 04  9  3 15 15 30.0000000  0  7G11G14G15G 1G19G22G25
  -2632619.99649  -2040181.17644  22482126.7664   22482123.2194
      1560.1654
   2622549.71949   2034575.67646  20732645.0704   20732641.9184
     -2146.0274
   5787261.07448   4490110.86343  22695313.1414   22695311.8714
     -4268.8924
  -2965973.06247  -2309533.43043  23406880.2584   23406879.4534
      2243.2824
   3987548.52748   3093806.12144  23301987.5474   23301984.2814
     -3073.3604
   3883633.00449   3012433.16845  22393506.4304   22393501.9144
     -2845.0034
  -3497143.70748  -2708147.44944  22673147.8054   22673145.9534
      2263.7844
 04  9  3 15 15 45.0000000  0  7G11G14G15G 1G19G22G25
  -2655926.24249  -2058341.87544  22477691.4534   22477688.2274
      1553.7504
   2654834.47349   2059732.61746  20738788.2814   20738785.2424
     -2152.3174
   5851361.82848   4540059.46543  22707511.5554   22707509.8134
     -4273.3844
  -2999565.19147  -2335709.10243  23400488.0314   23400487.5784
      2239.4754
   4033731.46948   3129792.80943  23310775.7734   23310772.4804
     -3078.8634
   3926351.89149   3045720.59445  22401635.4384   22401631.5394
     -2847.9264
  -3531034.51648  -2734555.85244  22666698.9224   22666697.0744
      2259.3874
 04  9  3 15 16  0.0000000  0  7G11G14G15G 1G19G22G25
  -2679136.37149  -2076427.69544  22473274.7274   22473271.3164
      1547.3424
   2687213.03149   2084962.65246  20744950.1094   20744946.6604
     -2158.5714
   5915529.30948   4590060.07043  22719721.4924   22719721.0554
     -4277.8324
  -3033100.42647  -2361840.42643  23394106.7734   23394105.0394
      2235.6824
   4079996.47348   3165843.44143  23319579.9694   23319575.9804
     -3084.3344
   3969114.48049   3079042.07045  22409773.2664   22409768.9804
     -2850.8394
  -3564859.28948  -2760912.79344  22660262.4774   22660260.5164
      2254.9854
 04  9  3 15 16 15.0000000  0  7G11G14G15G 1G19G22G25
  -2702249.78149  -2094438.14544  22468876.4694   22468873.0124
      1540.8944
   2719685.53949   2110265.89846  20751129.3364   20751126.1524
     -2164.8344
   5979763.76248   4640112.86343  22731945.0004   22731944.0204
     -4282.2974
  -3066578.20747  -2387927.00443  23387735.8204   23387734.8594
      2231.8524
   4126343.48448   3201957.97343  23328399.7814   23328396.3524
     -3089.8014
   4011920.99249   3112397.77345  22417918.6024   22417915.0824
     -2853.7674
  -3598617.21548  -2787217.66444  22653838.1884   22653836.3094
      2250.5284
 04  9  3 15 16 30.0000000  0  7G11G14G15G 1G19G22G25
  -2725265.17249  -2112372.22344  22464497.0784   22464493.3094
      1534.3594
   2752252.50449   2135642.75446  20757326.5944   20757323.6024
     -2171.1314
   6044065.68448   4690218.19943  22744181.6484   22744180.1914
     -4286.7954
  -3099997.60548  -2413968.07843  23381376.3594   23381375.2234
      2227.9604
   4172773.00447   3238136.78944  23337234.4844   23337231.2504
     -3095.3014
   4054772.27749   3145788.37145  22426073.3524   22426069.1414
     -2856.7524
  -3632307.23048  -2813469.61344  22647427.6804   22647425.2934
      2246.0014
 04  9  3 15 16 45.0000000  0  7G11G14G15G 1G19G22G25
  -2748183.57849  -2130230.71144  22460135.1884   22460131.7424
      1527.8944
   2784912.48449   2161092.07846  20763541.6644   20763538.4924
     -2177.3324
   6108433.59448   4740374.98043  22756430.7034   22756429.2624
     -4291.1944
  -3133359.65648  -2439964.46143  23375028.2974   23375026.6024
      2224.1374
   4219283.47348   3274378.69143  23346085.0634   23346081.9964
     -3100.6984
   4097667.05949   3179212.85545  22434235.8364   22434231.6954
     -2859.6524
  -3665930.13348  -2839669.26244  22641029.0704   22641027.0314
      2241.5274
 04  9  3 15 17  0.0000000  0  7G11G14G15G 1G19G22G25
  -2771006.59449  -2148014.87944  22455792.1254   22455788.7154
      1521.5344
   2817663.44949   2186612.29746  20769774.1484   20769770.6054
     -2183.3984
   6172865.30548   4790581.48043  22768691.8914   22768689.8484
     -4295.4474
  -3166666.12548  -2465917.54343  23368690.0234   23368688.3984
      2220.4314
   4265872.52348   3310681.81644  23354951.3444   23354947.4384
     -3105.9374
   4140603.40649   3212669.73445  22442406.1174   22442402.1174
     -2862.4234
  -3699487.48448  -2865817.83644  22634643.6254   22634640.8134
      2237.1574
 04  9  3 15 17 15.0000000  0  7G11G14G15G 1G19G22G25
  -2793730.41448  -2165721.75844  22451468.1564   22451464.5164
      1514.9214
   2850508.78149   2212206.05546  20776024.0944   20776020.9104
     -2189.6894
   6237364.16848   4840840.30543  22780965.0084   22780963.8984
     -4299.9244
  -3199913.31648  -2491824.44143  23362363.3594   23362361.7304
      2216.4794
   4312543.57848   3347048.84444  23363832.3284   23363828.9064
     -3111.4044
   4183584.93849   3246161.81344  22450585.3054   22450581.3014
     -2865.4354
  -3732975.32448  -2891912.23844  22628270.9694   22628268.5164
      2232.5234
 04  9  3 15 17 30.0000000  0  7G11G14G15G 1G19G22G25
  -2816356.32049  -2183352.33244  22447162.6954   22447158.8984
      1508.3944
   2883446.60949   2237871.88746  20782292.2034   20782288.5744
     -2195.8554
   6301928.30148   4891149.98843  22793251.5634   22793249.9884
     -4304.2764
  -3233102.74247  -2517686.33642  23356047.9614   23356045.3834
      2212.6284
   4359294.44547   3383478.07043  23372728.7584   23372724.9024
     -3116.7244
   4226609.96549   3279687.78144  22458772.5554   22458768.4884
     -2868.3354
  -3766395.09848  -2917953.60944  22621911.3054   22621909.0664
      2227.9854
 04  9  3 15 17 45.0000000  0  7G11G14G15G 1G19G22G25
  -2838883.37148  -2200905.88344  22442875.5314   22442872.2344
      1501.8034
   2916477.41049   2263610.16446  20788577.7034   20788574.5124
     -2202.0534
   6366558.13348   4941510.87543  22805550.0634   22805548.7544
     -4308.6554
  -3266233.56647  -2543502.56242  23349742.7114   23349741.2624
      2208.7224
   4406125.41848   3419969.72343  23381639.7274   23381636.9414
     -3122.0654
   4269679.18849   3313248.18844  22466969.2504   22466964.7304
     -2871.2824
  -3799745.70748  -2943941.07044  22615564.3284   22615562.2664
      2223.3744
 04  9  3 15 18  0.0000000  0  7G11G14G15G 1G19G22G25
  -2861312.09448  -2218382.80144  22438607.4844   22438604.2854
      1495.2484
   2949600.16849   2289420.09046  20794880.5554   20794877.6454
     -2208.1844
   6431252.47348   4991922.00843  22817860.8914   22817859.7114
     -4312.9564
  -3299306.41047  -2569273.60542  23343449.1644   23343447.6954
      2204.8564
   4453035.48847   3456522.98443  23390566.5394   23390562.9774
     -3127.3384
   4312791.76249   3346842.38344  22475172.9064   22475168.5634
     -2874.1724
  -3833027.63348  -2969875.01244  22609231.3524   22609228.9654
      2218.7954
 04  9  3 15 18 15.0000000  0  7G11G14G15G 1G19G22G25
  -2883641.50449  -2235782.33644  22434358.3364   22434355.1684
      1488.6274
   2982815.33249   2315302.02746  20801201.6174   20801197.8914
     -2214.3444
   6496011.81348   5042383.80143  22830184.1954   22830183.0084
     -4317.2894
  -3332320.36747  -2594998.74643  23337166.3444   23337165.0234
      2200.9304
   4500024.95347   3493138.13343  23399508.5394   23399504.7814
     -3132.6314
   4355948.50849   3380471.00444  22483385.4694   22483380.8794
     -2877.1164
  -3866239.80948  -2995754.62544  22602911.1804   22602908.7664
      2214.1454
 04  9  3 15 18 30.0000000  0  7G11G14G15G 1G19G22G25
  -2905872.63349  -2253105.29744  22430128.1094   22430125.1764
      1482.0754
   3016121.44149   2341254.83246  20807539.0084   20807535.8674
     -2220.4074
   6560834.69948   5092895.10543  22842519.7894   22842518.3484
     -4321.5264
  -3365276.62147  -2620678.93043  23330895.1174   23330893.8054
      2197.0844
   4547092.14147   3529813.83243  23408464.9454   23408461.1214
     -3137.8124
   4399148.12549   3414133.02044  22491605.9384   22491601.8134
     -2879.9744
  -3899383.24248  -3021580.67244  22596604.7344   22596602.2934
      2209.5624
 04  9  3 15 18 45.0000000  0  7G11G14G15G 1G19G22G25
  -2928005.19949  -2270351.44944  22425916.1484   22425913.3244
      1475.5044
   3049518.25049   2367278.30946  20813894.6884   20813891.2464
     -2226.4544
   6625720.68048   5143455.58643  22854867.1024   22854865.8404
     -4325.7324
  -3398175.17647  -2646314.15642  23324634.7114   23324633.5514
      2193.2374
   4594236.67247   3566549.81643  23417436.7194   23417432.6214
     -3142.9694
   4442390.43049   3447828.30944  22499835.1024   22499830.3714
     -2882.8204
  -3932457.52748  -3047352.81644  22590310.7034   22590308.9964
      2204.9524
 04  9  3 15 19  0.0000000  0  7G11G14G15G 1G19G22G25
  -2950039.12549  -2287520.74644  22421723.6644   22421720.4654
      1468.9284
   3083005.37149   2393372.15646  20820266.9224   20820263.4614
     -2232.4754
   6690669.43048   5194064.96543  22867226.4144   22867225.3204
     -4329.9174
  -3431015.99247  -2671904.38342  23318385.0704   23318384.5434
      2189.3884
   4641457.91848   3603345.57443  23426422.6804   23426418.1374
     -3148.0834
   4485675.32449   3481556.77744  22508071.3834   22508067.4494
     -2885.6604
  -3965462.60548  -3073071.03944  22584029.7194   22584027.9064
      2200.3394
 04  9  3 15 19 15.0000000  0  7G11G14G15G 1G19G22G25
  -2971975.19949  -2304613.78944  22417549.4384   22417546.2194
      1462.4054
   3116581.32849   2419535.23046  20826656.2194   20826652.8524
     -2238.3974
   6755679.56648   5244722.18843  22879597.7814   22879596.6214
     -4334.0094
  -3463799.98047  -2697450.32843  23312146.8364   23312146.1884
      2185.5994
   4688754.62548   3640200.12143  23435423.0004   23435418.6374
     -3153.1144
   4529001.79349   3515317.62944  22516316.2114   22516311.7464
     -2888.4314
  -3998399.16848  -3098735.88344  22577762.3524   22577760.4344
      2195.7714
 04  9  3 15 19 30.0000000  0  7G11G14G15G 1G19G22G25
  -2993810.11749  -2321628.00844  22413394.4304   22413391.4104
      1455.6614
   3150249.02749   2445769.78946  20833062.5164   20833059.8404
     -2244.5134
   6820753.87548   5295429.41443  22891981.0784   22891979.3404
     -4338.2874
  -3496524.05147  -2722949.58643  23305919.5864   23305918.6804
      2181.6054
   4736129.37948   3677115.50843  23444438.0234   23444433.5434
     -3158.3174
   4572372.71149   3549113.12944  22524569.7424   22524565.2624
     -2891.3954
  -4031263.87548  -3124344.74244  22571508.3054   22571505.9104
      2190.9804
 04  9  3 15 19 45.0010000  0  7G11G14G15G 1G19G22G25
  -3015545.46149  -2338564.64144  22409258.2634   22409254.8804
      1449.0234
   3184010.05149   2472077.06346  20839487.4274   20839484.2434
     -2250.7354
   6885896.04348   5346189.52343  22904377.1304   22904375.5174
     -4342.8114
  -3529190.66847  -2748404.09043  23299703.4814   23299702.7674
      2177.7744
   4783584.51248   3714093.51643  23453468.6534   23453464.5604
     -3163.6764
   4615790.59449   3582945.22344  22532831.6304   22532827.0014
     -2894.5264
  -4064058.94548  -3149899.33644  22565267.9504   22565265.2244
      2186.3384
 04  9  3 15 20  0.0010000  0  7G11G14G15G 1G19G22G25
  -3037178.34849  -2355421.43044  22405141.6224   22405138.2714
      1442.1924
   3217859.48049   2498453.23846  20845928.7004   20845925.3764
     -2256.6294
   6951096.81348   5396995.28943  22916784.2474   22916782.9504
     -4346.7184
  -3561795.62147  -2773810.53943  23293498.9194   23293497.8254
      2173.6644
   4831113.14548   3751128.78543  23462513.1384   23462509.4154
     -3168.5764
   4659249.37949   3616809.18844  22541101.7164   22541097.1854
     -2897.2524
  -4096779.96148  -3175396.21144  22559040.8024   22559038.6104
      2181.4014
 04  9  3 15 20 15.0010000  0  7G11G14G15G 1G19G22G25
  -3058711.67249  -2372200.64144  22401044.0994   22401040.8764
      1435.5554
   3251797.78949   2524898.65646  20852386.9814   20852383.7124
     -2262.5544
   7016358.78948   5447848.75443  22929203.5674   22929202.2674
     -4350.7984
  -3594342.32047  -2799171.58643  23287305.4894   23287304.4274
      2169.7804
   4878716.56348   3788222.32844  23471571.9664   23471568.2714
     -3173.5614
   4702750.53548   3650706.18044  22549379.8724   22549375.2714
     -2900.0774
  -4129430.14148  -3200837.89544  22552828.1464   22552825.8564
      2176.6794
 04  9  3 15 20 30.0010000  0  7G11G14G15G 1G19G22G25
  -3080146.87949  -2388903.39844  22396965.0674   22396961.6924
      1429.0144
   3285822.80949   2551411.64846  20858861.8724   20858858.4034
     -2268.3354
   7081679.70748   5498748.13343  22941633.5834   22941632.6614
     -4354.7284
  -3626832.66048  -2824488.72743  23281123.0754   23281121.6224
      2166.0234
   4926392.39848   3825372.32044  23480644.5524   23480640.8494
     -3178.3894
   4746292.03149   3684634.59844  22557665.3804   22557661.2004
     -2902.7664
  -4162011.19948  -3226225.72344  22546627.8334   22546625.6884
      2172.0714
 04  9  3 15 20 45.0010000  0  7G11G14G15G 1G19G22G25
  -3101481.83249  -2405528.03144  22392904.5524   22392901.6224
      1422.3304
   3319936.16049   2577993.46546  20865353.4894   20865350.0014
     -2274.2234
   7147061.21548   5549694.72343  22954075.0214   22954073.9854
     -4358.7674
  -3659264.68747  -2849760.42643  23274951.1614   23274950.5094
      2162.1354
   4974142.18448   3862579.91844  23489730.3104   23489727.6184
     -3183.3194
   4789875.61349   3718595.80144  22565959.2394   22565954.7944
     -2905.5724
  -4194521.07448  -3251558.07444  22540441.5674   22540439.0674
      2167.3254
 04  9  3 15 21  0.0010000  0  7G11G14G15G 1G19G22G25
  -3122715.91049  -2422074.07444  22388864.1614   22388861.1264
      1415.6054
   3354138.05149   2604644.27746  20871861.8884   20871858.6924
     -2280.1264
   7212503.28548   5600688.52343  22966528.5604   22966526.8994
     -4362.8054
  -3691637.84447  -2874986.24243  23268790.9894   23268789.9194
      2158.2104
   5021965.93048   3899845.14143  23498831.0524   23498828.0954
     -3188.2504
   4833501.73049   3752590.16044  22574260.9584   22574256.6654
     -2908.4084
  -4226958.99648  -3276834.37144  22534268.4744   22534266.4974
      2162.5284
 04  9  3 15 21 15.0010000  0  7G11G14G15G 1G19G22G25
  -3143848.62149  -2438541.12544  22384842.9194   22384839.4274
      1408.8474
   3388428.51649   2631364.10946  20878386.9194   20878384.0364
     -2286.0314
   7278006.04348   5651729.59843  22978992.8804   22978991.8174
     -4366.8514
  -3723951.66447  -2900165.83243  23262642.1774   23262641.0914
      2154.2554
   5069863.70348   3937168.05143  23507945.1064   23507942.2204
     -3193.1854
   4877170.76648   3786617.96144  22582570.9664   22582566.8374
     -2911.2694
  -4259324.32048  -3302054.09044  22528109.8024   22528107.2744
      2157.6884
 04  9  3 15 21 30.0010000  0  7G11G14G15G 1G19G22G25
  -3164879.91449  -2454929.14144  22380840.6064   22380837.3884
      1402.0864
   3422806.96149   2658152.49246  20884929.1854   20884925.6694
     -2291.8964
   7343568.84047   5702817.45343  22991469.4114   22991468.3334
     -4370.8534
  -3756206.47747  -2925299.44143  23256503.8964   23256503.2244
      2150.3214
   5117834.59848   3974547.93443  23517074.2084   23517070.3604
     -3198.0604
   4920882.19148   3820678.79344  22590888.8494   22590884.9074
     -2914.0954
  -4291617.08648  -3327217.28544  22521964.5754   22521962.3454
      2152.8514
 04  9  3 15 21 45.0010000  0  7G11G14G15G 1G19G22G25
  -3185808.66449  -2471237.25844  22376857.9354   22376854.3684
      1395.2504
   3457274.00049   2685009.91446  20891487.9504   20891484.9744
     -2297.8034
   7409192.26248   5753952.54743  23003957.3644   23003955.8564
     -4374.8954
  -3788401.21147  -2950386.23843  23250377.8644   23250376.1854
      2146.3164
   5165879.15647   4011985.22743  23526216.0284   23526212.6264
     -3202.9714
   4964636.86748   3854773.32444  22599215.0054   22599210.8374
     -2916.9784
  -4323836.05948  -3352322.95344  22515833.4274   22515831.2514
      2147.9324
 04  9  3 15 22  0.0010000  0  7G11G14G15G 1G19G22G25
  -3206637.10549  -2487467.20344  22372894.1774   22372891.2394
      1388.5634
   3491827.13749   2711934.42246  20898063.2864   20898060.3804
     -2303.5424
   7474873.68047   5805132.83643  23016455.4584   23016454.4234
     -4378.7614
  -3820538.13347  -2975427.97743  23244262.3104   23244260.9274
      2142.4614
   5213994.60547   4049477.75443  23535372.3414   23535369.1224
     -3207.6974
   5008432.56648   3888899.81644  22607549.2314   22607545.0134
     -2919.7134
  -4355983.18748  -3377372.65244  22509715.4744   22509714.1144
      2143.1424
 04  9  3 15 22 15.0010000  0  7G11G14G15G 1G19G22G25
  -3227363.40649  -2503617.57444  22368950.0604   22368946.9464
      1381.7534
   3526467.55149   2738926.94546  20904655.2004   20904651.9664
     -2309.3614
   7540614.26647   5856359.22343  23028965.8964   23028964.6964
     -4382.7064
  -3852615.64547  -3000423.43743  23238157.9424   23238156.7634
      2138.5014
   5262182.03147   4087026.35943  23544542.2714   23544539.1534
     -3212.4954
   5052270.61748   3923059.32444  22615891.4114   22615887.1034
     -2922.5374
  -4388056.71548  -3402364.99244  22503612.5214   22503610.5284
      2138.2354
 04  9  3 15 22 30.0010000  0  7G11G14G15G 1G19G22G25
  -3247989.55549  -2519689.90244  22365024.9744   22365022.2944
      1375.0774
   3561192.76249   2765985.53546  20911263.1224   20911260.3994
     -2315.0144
   7606411.41847   5907629.69143  23041487.3564   23041485.3294
     -4386.4774
  -3884636.00447  -3025374.34043  23232064.5054   23232063.1884
      2134.6914
   5310438.84847   4124629.03543  23553725.4584   23553721.6064
     -3217.1214
   5096148.74248   3957250.05144  22624240.9814   22624236.8804
     -2925.2084
  -4420058.68448  -3427301.56644  22497522.6064   22497520.4784
      2133.4654
 04  9  3 15 22 45.0010000  0  7G11G14G15G 1G19G22G25
  -3268511.28149  -2535680.85544  22361120.4274   22361117.1104
      1368.1154
   3596006.55149   2793113.15246  20917887.9894   20917884.8564
     -2320.9194
   7672268.94547   5958947.21543  23054018.9114   23054017.4544
     -4390.5024
  -3916595.02047  -3050277.46943  23225982.5444   23225981.6224
      2130.6014
   5358768.62548   4162288.57843  23562923.0524   23562918.5524
     -3221.9854
   5140070.88748   3991475.09044  22632598.3964   22632594.5834
     -2928.1434
  -4451984.73448  -3452179.00444  22491447.2554   22491445.3374
      2128.4034
 04  9  3 15 23  0.0010000  0  7G11G14G15G 1G19G22G25
  -3288930.53549  -2551591.97344  22357234.5524   22357231.3374
      1361.2844
   3630906.56349   2820307.95746  20924529.3024   20924526.4034
     -2326.6674
   7738184.40648   6010309.86743  23066562.0524   23066561.2824
     -4394.3644
  -3948494.63747  -3075134.29743  23219912.6224   23219911.0954
      2126.6414
   5407168.95348   4200003.09443  23572132.9424   23572129.2044
     -3226.6894
   5184035.06648   4025732.87144  22640965.1854   22640960.9384
     -2930.9454
  -4483836.65648  -3476998.66444  22485386.4664   22485384.3964
      2123.4614
 04  9  3 15 23 15.0010000  0  7G11G14G15G 1G19G22G25
  -3309247.99249  -2567423.76644  22353367.9664   22353364.9424
      1354.4974
   3665891.60249   2847569.01646  20931186.9194   20931183.4894
     -2332.3364
   7804156.66847   6061716.78543  23079116.6384   23079115.2784
     -4398.1514
  -3980335.69147  -3099945.52043  23213853.4034   23213852.1264
      2122.7374
   5455638.55148   4237771.59043  23581356.2394   23581352.5324
     -3231.3074
   5228040.30548   4060022.64844  22649339.3174   22649335.2164
     -2933.6834
  -4515614.88348  -3501760.90644  22479339.2004   22479337.0284
      2118.5484
 04  9  3 15 23 30.0010000  0  7G11G14G15G 1G19G22G25
  -3329463.37549  -2583176.00844  22349521.4354   22349518.1614
      1347.6924
   3700961.24249   2874896.00046  20937860.0604   20937856.9314
     -2337.9764
   7870185.23447   6113167.58643  23091680.8644   23091679.7554
     -4401.9044
  -4012118.21547  -3124711.12143  23207805.9354   23207804.3214
      2118.8354
   5504176.88748   4275593.65643  23590593.8964   23590589.8604
     -3235.8894
   5272086.40648   4094344.25044  22657721.1304   22657716.7244
     -2936.4074
  -4547319.29348  -3526465.61744  22473305.7084   22473303.8924
      2113.6274
 04  9  3 15 23 45.0010000  0  7G11G14G15G 1G19G22G25
  -3349578.01249  -2598849.75044  22345694.2244   22345690.5634
      1340.9764
   3736113.91449   2902287.68446  20944549.5754   20944546.3644
     -2343.5114
   7936268.46147   6164660.96143  23104256.5134   23104254.9274
     -4405.5484
  -4043843.48047  -3149432.09043  23201768.0524   23201767.3804
      2115.0184
   5552782.13748   4313467.84843  23599842.8964   23599838.7124
     -3240.3504
   5316171.92648   4128696.59444  22666109.9664   22666106.0564
     -2939.0354
  -4578951.10548  -3551113.77044  22467286.8334   22467285.1034
      2108.7884
 04  9  3 15 24  0.0010000  0  7G11G14G15G 1G19G22G25
  -3369588.74249  -2614442.53144  22341885.8884   22341882.3254
      1334.0494
   3771352.38349   2929746.21546  20951254.9584   20951251.7394
     -2349.2314
   8002408.96947   6216198.97743  23116842.4114   23116841.5604
     -4409.3674
  -4075508.43048  -3174106.07043  23195742.3884   23195741.3964
      2110.9974
   5601456.89148   4351396.20743  23609105.3494   23609101.0014
     -3244.9844
   5360299.78148   4163081.90645  22674507.2714   22674503.7284
     -2941.8574
  -4610507.02048  -3575702.77344  22461281.9034   22461279.9854
      2103.7284
 04  9  3 15 24 15.0010000  0  7G11G14G15G 1G19G22G25
  -3389494.83649  -2629953.77744  22338097.8024   22338094.3994
      1327.0734
   3806676.56649   2957271.55146  20957977.1694   20957973.6224
     -2354.9464
   8068606.83247   6267781.68843  23129440.2474   23129438.9704
     -4413.1914
  -4107112.74247  -3198732.80543  23189728.5524   23189727.2824
      2106.9544
   5650200.95748   4389378.58243  23618380.7244   23618377.1144
     -3249.6044
   5404470.28548   4197500.46144  22682912.7084   22682908.6884
     -2944.7004
  -4641986.48048  -3600232.21144  22455291.5994   22455288.9114
      2098.6314
 04  9  3 15 24 30.0010000  0  7G11G14G15G 1G19G22G25
  -3409297.35949  -2645384.32044  22334329.6694   22334325.7284
      1320.1684
   3842085.03549   2984862.55146  20964715.2084   20964712.1814
     -2360.5654
   8134860.45747   6319407.84443  23142047.7474   23142046.4784
     -4416.9084
  -4138657.50847  -3223313.11743  23183726.0054   23183724.5174
      2102.9844
   5699012.78148   4427413.76243  23627669.2394   23627664.8494
     -3254.1224
   5448682.19548   4231951.26644  22691325.7314   22691322.0754
     -2947.4614
  -4673390.43448  -3624702.81644  22449315.0524   22449313.2714
      2093.5974
 04  9  3 15 24 45.0010000  0  7G11G14G15G 1G19G22G25
  -3428994.47348  -2660732.71944  22330581.2554   22330578.1924
      1313.1414
   3877579.17649   3012520.31346  20971469.3884   20971466.1144
     -2366.2764
   8201171.20747   6371078.51643  23154665.7944   23154665.3214
     -4420.7174
  -4170141.00447  -3247845.68443  23177734.7554   23177733.0834
      2098.9004
   5747893.65648   4465502.73443  23636970.6854   23636966.4114
     -3258.7254
   5492936.99648   4266435.50844  22699747.6064   22699743.7744
     -2950.3204
  -4704716.92648  -3649113.06644  22443354.2634   22443351.9704
      2088.4334
 04  9  3 15 25  0.0010000  0  7G11G14G15G 1G19G22G25
  -3448588.88749  -2676001.09044  22326852.7944   22326849.5754
      1306.2944
   3913155.75049   3040242.31346  20978239.4974   20978236.3254
     -2371.7724
   8267535.80547   6422791.16843  23167294.8024   23167294.2474
     -4424.3074
  -4201566.10947  -3272332.77343  23171755.0284   23171752.7434
      2095.0074
   5796840.12547   4503642.81343  23646284.6064   23646281.0014
     -3263.0984
   5537231.63748   4300950.78144  22708176.5214   22708172.8334
     -2952.9764
  -4735968.55548  -3673464.96544  22437407.0134   22437405.1304
      2083.4424
 04  9  3 15 25 15.0010000  0  7G11G14G15G 1G19G22G25
  -3468080.02049  -2691188.98044  22323143.7244   22323140.8534
      1299.4094
   3948814.95749   3068028.70346  20985024.9894   20985022.3254
     -2377.2804
   8333954.31347   6474545.81343  23179934.1534   23179932.8214
     -4427.9014
  -4232932.19147  -3296773.85943  23165786.2164   23165784.2554
      2091.0724
   5845852.16848   4541833.98843  23655611.3254   23655608.2864
     -3267.4704
   5581566.59448   4335497.48044  22716613.4114   22716609.4854
     -2955.6644
  -4767144.70748  -3697758.06644  22431474.2714   22431472.7904
      2078.4104
 04  9  3 15 25 30.0010000  0  7G11G14G15G 1G19G22G25
  -3487466.13349  -2706295.04344  22319454.5054   22319451.7204
      1292.4084
   3984558.03149   3095880.44146  20991827.0914   20991823.8844
     -2382.8724
   8400427.97347   6526343.43443  23192583.0914   23192582.8804
     -4431.5774
  -4264237.72348  -3321167.77343  23159828.8884   23159826.7434
      2087.0354
   5894930.97348   4580077.17243  23664950.9504   23664947.7784
     -3271.9204
   5625943.32848   4370076.73044  22725058.1144   22725053.9114
     -2958.4494
  -4798243.57048  -3721990.93444  22425556.2864   22425554.3454
      2073.2584
 04  9  3 15 25 45.0010000  0  7G11G14G15G 1G19G22G25
  -3506747.38349  -2721319.39544  22315785.4504   22315782.6064
      1285.4174
   4020384.32449   3123797.02046  20998644.6064   20998641.2904
     -2388.4204
   8466956.09047   6578183.49643  23205242.7944   23205243.0364
     -4435.2084
  -4295482.99648  -3345514.72343  23153883.0604   23153880.6964
      2083.0184
   5944075.69947   4618371.72743  23674302.8104   23674299.9974
     -3276.3154
   5670361.29748   4404688.11344  22733510.1534   22733506.1774
     -2961.1984
  -4829265.18048  -3746163.60244  22419653.0444   22419651.2434
      2068.1074
 04  9  3 15 26  0.0010000  0  7G11G14G15G 1G19G22G25
  -3525922.32449  -2736260.89545  22312136.5054   22312133.5874
      1278.3294
   4056294.67249   3151779.10546  21005478.4274   21005474.6854
     -2394.0234
   8533539.48047   6630066.61743  23217913.2394   23217913.2124
     -4438.8934
  -4326666.83248  -3369813.80143  23147949.0284   23147946.9154
      2078.9224
   5993287.05548   4656718.19543  23683667.6224   23683664.6494
     -3280.7574
   5714821.62948   4439332.51244  22741970.8414   22741966.4934
     -2964.0224
  -4860208.04748  -3770274.91444  22413765.2554   22413763.3644
      2062.8584
 04  9  3 15 26 15.0010000  0  7G11G14G15G 1G19G22G25
  -3544990.77349  -2751119.42644  22308507.6304   22308504.9384
      1271.2304
   4092288.85249   3179826.51246  21012327.3024   21012324.3374
     -2399.6124
   8600177.81647   6681992.56343  23230595.0364   23230593.9194
     -4442.5564
  -4357789.12548  -3394064.93443  23142026.5054   23142024.7474
      2074.8204
   6042564.68048   4695116.31343  23693045.1924   23693041.9664
     -3285.1754
   5759324.44148   4474010.00844  22750439.3804   22750435.4624
     -2966.8544
  -4891071.90248  -3794324.67244  22407891.9814   22407889.8764
      2057.5904
 04  9  3 15 26 30.0010000  0  7G11G14G15G 1G19G22G25
  -3563955.67249  -2765897.27745  22304899.3104   22304896.1654
      1264.3274
   4128363.25449   3207936.42646  21019192.1854   21019189.5014
     -2404.9604
   8666867.43047   6733958.45343  23243285.1384   23243284.2864
     -4445.9744
  -4388853.08647  -3418270.61343  23136115.5604   23136113.3684
      2070.9314
   6091904.89148   4733563.20743  23702434.2944   23702431.2594
     -3289.3474
   5803866.28548   4508717.92644  22758915.3024   22758911.5284
     -2969.4564
  -4921859.84848  -3818315.26244  22402033.0914   22402030.8454
      2052.5304
 04  9  3 15 26 45.0010000  0  7G11G14G15G 1G19G22G25
  -3582814.99649  -2780592.85944  22301310.6304   22301306.9584
      1257.2884
   4164519.65249   3236110.23046  21026072.6854   21026069.3254
     -2410.4274
   8733610.03147   6785965.64843  23255985.4354   23255985.1774
     -4449.5074
  -4419856.62947  -3442429.21143  23130214.9114   23130213.4544
      2066.9034
   6141309.17248   4772060.01643  23711835.6924   23711832.7354
     -3293.6194
   5848449.08648   4543457.74244  22767399.0994   22767395.9464
     -2972.1874
  -4952569.64148  -3842244.95744  22396188.5994   22396186.6064
      2047.3204
 04  9  3 15 27  0.0010000  0  7G11G14G15G 1G19G22G25
  -3601568.51649  -2795206.00044  22297741.5604   22297738.7164
      1250.2354
   4200757.70749   3264347.66846  21032968.5604   21032965.2124
     -2415.8704
   8800405.32447   6838013.88343  23268697.1064   23268696.3724
     -4453.0204
  -4450799.66847  -3466540.65243  23124327.1534   23124325.5014
      2062.8694
   6190777.16047   4810606.46943  23721248.9974   23721246.1424
     -3297.8664
   5893072.75448   4578229.41044  22775890.6614   22775887.3724
     -2974.9114
  -4983200.94548  -3866113.50044  22390360.2314   22390358.2434
      2042.0874
 04  9  3 15 27 15.0010000  0  7G11G14G15G 1G19G22G25
  -3620216.36349  -2809736.78544  22294192.8724   22294189.8994
      1243.1904
   4237076.84449   3292648.28946  21039879.7394   21039876.8254
     -2421.2764
   8867252.51247   6890102.55543  23281417.2244   23281416.5914
     -4456.4794
  -4481682.47747  -3490605.17243  23118449.7634   23118448.6924
      2058.8544
   6240308.09047   4849201.96543  23730674.6144   23730670.9074
     -3302.0624
   5937736.92248   4613032.63344  22784389.6924   22784386.5524
     -2977.6114
  -5013753.82848  -3889920.92644  22384546.5134   22384543.9504
      2036.8594
 04  9  3 15 27 30.0010000  0  7G11G14G15G 1G19G22G25
  -3638756.25449  -2824183.45744  22290665.3414   22290661.6264
      1235.9934
   4273478.80549   3321013.44546  21046806.7164   21046803.6264
     -2426.7974
   8934153.35947   6942233.04343  23294148.5994   23294147.3764
     -4460.0574
  -4512502.95347  -3514621.12543  23112585.3254   23112583.4744
      2054.6984
   6289903.57847   4887847.77043  23740112.1534   23740108.5364
     -3306.3664
   5982443.55148   4647868.94144  22792897.7314   22792893.9314
     -2980.4424
  -5044226.00448  -3913665.46944  22378747.5214   22378745.3924
      2031.4784
 04  9  3 15 27 45.0010000  0  7G11G14G15G 1G19G22G25
  -3657188.69549  -2838546.40644  22287157.4974   22287154.0134
      1228.8294
   4309962.58649   3349442.35546  21053749.1534   21053745.8494
     -2432.2524
   9001106.91847   6994404.59843  23306888.7864   23306888.4624
     -4463.5714
  -4543261.82448  -3538589.07443  23106731.8564   23106731.1104
      2050.5914
   6339562.48048   4926542.99643  23749562.3644   23749558.5634
     -3310.5934
   6027191.78948   4682737.67644  22801412.7714   22801409.1384
     -2983.2164
  -5074617.92648  -3937347.47344  22372964.3564   22372961.8534
      2026.1284
 04  9  3 15 28  0.0010000  0  7G11G14G15G 1G19G22G25
  -3675513.60549  -2852825.54744  22283670.2864   22283666.8174
      1221.6614
   4346527.87549   3377934.78546  21060707.5674   21060704.5364
     -2437.6864
   9068112.82448   7046616.94943  23319639.4814   23319639.3454
     -4467.0604
  -4573959.03948  -3562508.97343  23100890.2004   23100889.6384
      2046.4814
   6389284.39548   4965287.32843  23759023.1224   23759019.8924
     -3314.7944
   6071981.66448   4717638.85544  22809936.0134   22809932.3884
     -2985.9924
  -5104929.23849  -3960966.67645  22367196.0524   22367193.7244
      2020.7544
 04  9  3 15 28 15.0010000  0  7G11G14G15G 1G19G22G25
  -3693731.14549  -2867021.04344  22280203.8494   22280200.4354
      1214.5034
   4383174.10949   3406490.28146  21067681.0054   21067678.3134
     -2443.0824
   9135170.37547   7098869.54743  23332400.7714   23332399.5674
     -4470.5034
  -4604594.86347  -3586381.02343  23095060.5994   23095059.6734
      2042.3884
   6439068.37148   5004080.02743  23768497.5364   23768492.8844
     -3318.9324
   6116812.70348   4752572.12144  22818467.1694   22818463.1924
     -2988.7364
  -5135160.02748  -3984523.12145  22361443.2784   22361441.3294
      2015.3864
 04  9  3 15 28 30.0010000  0  7G11G14G15G 1G19G22G25
  -3711840.39149  -2881132.15644  22276757.3804   22276753.8964
      1207.2834
   4419901.44149   3435108.97346  21074670.1064   21074667.8214
     -2448.4894
   9202279.82447   7151162.58243  23345172.0674   23345170.4784
     -4473.9634
  -4635168.68448  -3610204.79343  23089242.7244   23089241.4544
      2038.2554
   6488914.76648   5042921.35543  23777983.0754   23777978.5994
     -3323.0934
   6161685.43448   4787537.86744  22827006.1304   22827002.7044
     -2991.5154
  -5165309.58248  -4008016.26644  22355706.3174   22355704.2204
      2009.9704
 04  9  3 15 28 45.0010000  0  7G11G14G15G 1G19G22G25
  -3729840.29349  -2895158.05544  22273332.2784   22273329.0364
      1199.9934
   4456710.65649   3463791.47346  21081674.8564   21081671.9384
     -2453.9484
   9269441.76247   7203496.52743  23357951.4424   23357950.6494
     -4477.4624
  -4665679.48847  -3633979.44543  23083436.7244   23083435.5604
      2034.0544
   6538823.94548   5081811.60543  23787480.6854   23787475.5754
     -3327.2794
   6206600.73848   4822536.77044  22835553.8104   22835549.9424
     -2994.3544
  -5195376.72348  -4031445.19544  22349984.5444   22349982.8134
      2004.4764
 04  9  3 15 29  0.0010000  0  7G11G14G15G 1G19G22G25
  -3747732.98849  -2909100.41845  22269927.7474   22269924.3174
      1192.8464
   4493599.19149   3492535.77346  21088694.3174   21088691.6884
     -2459.2364
   9336653.67247   7255869.39543  23370741.3804   23370740.7044
     -4480.7944
  -4696129.40647  -3657706.64143  23077642.3804   23077641.1694
      2029.9954
   6588793.23448   5120748.69943  23796988.9974   23796985.1924
     -3331.2864
   6251556.34048   4857567.10244  22844108.3804   22844104.7354
     -2997.0404
  -5225363.35548  -4054811.39144  22344278.1144   22344276.4894
      1999.1094
 04  9  3 15 29 15.0010000  0  7G11G14G15G 1G19G22G25
  -3765518.69949  -2922959.41045  22266543.1144   22266539.7824
      1185.7144
   4530566.17249   3521341.20746  21095729.0444   21095726.2864
     -2464.4654
   9403914.55147   7308280.43042  23383541.0674   23383540.0914
     -4484.0594
  -4726518.91446  -3681386.77343  23071858.9114   23071858.4854
      2025.9674
   6638821.76248   5159731.93843  23806508.9664   23806505.3644
     -3335.2354
   6296551.63748   4892628.35544  22852670.6774   22852667.1884
     -2999.6864
  -5255269.78948  -4078115.09444  22338587.2164   22338585.3994
      1993.7624
 04  9  3 15 29 30.0010000  0  7G11G14G15G 1G19G22G25
  -3783194.87149  -2936733.05944  22263179.3414   22263175.7204
      1178.4114
   4567613.69149   3550209.38746  21102778.9194   21102775.8604
     -2469.8354
   9471226.37547   7360731.15643  23396350.1854   23396349.1614
     -4487.4554
  -4756845.68046  -3705018.00443  23066088.4974   23066087.7944
      2021.7844
   6688911.36748   5198762.77743  23816041.0674   23816037.3334
     -3339.3074
   6341588.78148   4927722.21144  22861240.7084   22861237.4584
     -3002.4764
  -5285093.43748  -4101354.29744  22332911.5604   22332909.6964
      1988.2434
 04  9  3 15 29 45.0010000  0  7G11G14G15G 1G19G22G25
  -3800760.30549  -2950420.41044  22259836.5914   22259833.5604
      1171.0294
   4604742.59049   3579140.98046  21109843.8804   21109841.6924
     -2475.2604
   9538589.98047   7413222.24642  23409168.8414   23409168.2044
     -4490.9074
  -4787108.53947  -3728599.43743  23060329.1774   23060328.8254
      2017.5244
   6739062.62547   5237841.66043  23825584.3564   23825581.5404
     -3343.4174
   6386668.80148   4962849.46944  22869819.5674   22869815.3104
     -3005.3354
  -5314833.05548  -4124528.00844  22327252.9584   22327250.8334
      1982.6414
 04  9  3 15 30  0.0010000  0  7G11G14G15G 1G19G22G25
  -3818216.62149  -2964022.73845  22256514.5604   22256511.7514
      1163.7544
   4641950.69949   3608134.30546  21116924.9504   21116921.9894
     -2480.5414
   9606003.21547   7465751.99242  23421997.4504   23421996.4934
     -4494.2164
  -4817309.27748  -3752132.47344  23054582.8334   23054581.7124
      2013.3834
   6789273.40247   5276966.90643  23835138.6144   23835135.6184
     -3347.3854
   6431789.85948   4998008.72344  22878405.6304   22878401.3024
     -3008.0714
  -5344489.92648  -4147637.25044  22321608.8104   22321607.2044
      1977.1254
 04  9  3 15 30 15.0010000  0  7G11G14G15G 1G19G22G25
  -3835563.47749  -2977539.77044  22253213.7944   22253210.9194
      1156.4574
   4679237.85249   3637189.21946  21124020.2164   21124017.4584
     -2485.8104
   9673465.78547   7518320.18042  23434834.6534   23434833.8764
     -4497.5054
  -4847447.80548  -3775617.03544  23048847.4744   23048846.8414
      2009.2354
   6839543.28546   5316138.21142  23844704.9274   23844702.2394
     -3351.3264
   6476951.87148   5033199.88344  22886999.5444   22886995.4074
     -3010.8014
  -5374063.83248  -4170681.84844  22315981.3104   22315979.2314
      1971.5944
 04  9  3 15 30 30.0010000  0  7G11G14G15G 1G19G22G25
  -3852799.82849  -2990970.69144  22249933.6384   22249930.7164
      1149.0904
   4716604.57849   3666306.14146  21131131.1854   21131128.1534
     -2491.1154
   9740978.16447   7570927.20742  23447681.6614   23447680.8294
     -4500.8254
  -4877523.20348  -3799052.39843  23043124.6774   23043123.2284
      2005.0274
   6889872.66446   5355355.85943  23854281.5604   23854279.8534
     -3355.2924
   6522155.73448   5068423.65244  22895601.8334   22895597.5524
     -3013.5914
  -5403553.68448  -4193660.94145  22310369.3884   22310367.1734
      1965.9904
 04  9  3 15 30 45.0010000  0  7G11G14G15G 1G19G22G25
  -3869927.37549  -3004316.84045  22246674.5444   22246671.8024
      1141.8364
   4754048.81349   3695483.45346  21138256.4194   21138253.6694
     -2496.2824
   9808538.23047   7623571.37142  23460538.1694   23460537.7354
     -4504.0044
  -4907537.19548  -3822439.92643  23037412.7944   23037411.4814
      2000.9334
   6940259.37547   5394618.20343  23863870.6774   23863868.5524
     -3359.1144
   6567399.54348   5103678.54744  22904211.4584   22904207.3494
     -3016.2544
  -5432961.16448  -4216575.86345  22304774.1384   22304771.7004
      1960.4994
 04  9  3 15 31  0.0010000  0  7G11G14G15G 1G19G22G25
  -3886946.19949  -3017578.25445  22243435.9504   22243433.3294
      1134.5884
   4791569.98849   3724720.72746  21145396.3724   21145393.3214
     -2501.4124
   9876145.41047   7676252.25442  23473403.6224   23473403.0524
     -4507.1454
  -4937489.91848  -3845779.69943  23031712.8644   23031711.4034
      1996.8484
   6990702.72347   5433924.65243  23873470.2944   23873466.9664
     -3362.8904
   6612682.97748   5138964.32044  22912828.5444   22912824.6344
     -3018.8964
  -5462286.06648  -4239426.43044  22299193.6144   22299191.5094
      1954.9934
 04  9  3 15 31 15.0010000  0  7G11G14G15G 1G19G22G25
  -3903854.01649  -3030753.17245  22240218.4034   22240215.5054
      1127.1884
   4829169.91049   3754019.35246  21152551.6614   21152548.4314
     -2506.6614
   9943801.43847   7728971.19942  23486277.7864   23486277.4894
     -4510.4024
  -4967379.29748  -3869070.12143  23026025.1854   23026023.5834
      1992.6254
   7041204.22347   5473276.43043  23883080.2634   23883077.5634
     -3366.7674
   6658008.05948   5174282.53144  22921453.2474   22921449.7674
     -3021.6724
  -5491526.10248  -4262210.85545  22293628.8024   22293627.3764
      1949.3364
 04  9  3 15 31 30.0010000  0  7G11G14G15G 1G19G22G25
  -3920652.54749  -3043842.94145  22237021.7784   22237018.8924
      1119.9024
   4866846.32849   3783377.59446  21159720.9504   21159717.9704
     -2511.7614
  10011504.04347   7781726.43442  23499161.7864   23499160.9974
     -4513.5074
  -4997207.25848  -3892312.69143  23020348.8884   23020347.4974
      1988.5314
   7091761.61747   5512671.76643  23892701.5364   23892698.7944
     -3370.4934
   6703372.79748   5209631.65244  22930086.3564   22930082.3994
     -3024.3164
  -5520683.04748  -4284930.55145  22288080.9194   22288078.5524
      1943.7964
 04  9  3 15 31 45.0010000  0  7G11G14G15G 1G19G22G25
  -3937341.68749  -3056847.46945  22233846.0134   22233843.0794
      1112.6094
   4904598.78549   3812795.07846  21166904.9194   21166902.1734
     -2516.8304
  10079252.74248   7834517.58242  23512054.3254   23512053.3494
     -4516.5804
  -5026973.82047  -3915507.41043  23014684.7314   23014683.0244
      1984.4384
   7142374.29748   5552110.19943  23902333.2634   23902329.3964
     -3374.1794
   6748776.89848   5245011.44544  22938726.1694   22938722.6034
     -3026.9404
  -5549756.82448  -4307585.44145  22282548.3884   22282546.0174
      1938.2524
 04  9  3 15 32  0.0010000  0  7G11G14G15G 1G19G22G25
  -3953920.23449  -3069765.80944  22230691.2864   22230688.0604
      1105.2364
   4942428.10949   3842272.46146  21174103.4894   21174100.9384
     -2521.9554
  10147048.27046   7887345.22342  23524955.0444   23524954.0754
     -4519.7024
  -5056677.93046  -3938653.47343  23009032.1144   23009030.8764
      1980.2744
   7193042.88748   5591592.19543  23911974.3724   23911971.3174
     -3377.9064
   6794221.45348   5280422.77044  22947374.0604   22947370.2284
     -3029.6374
  -5578746.09048  -4330174.46145  22277031.7634   22277029.6424
      1932.6184
 04  9  3 15 32 15.0010000  0  7G11G14G15G 1G19G22G25
  -3970387.70749  -3082597.60944  22227557.7314   22227554.5674
      1097.8324
   4980334.33249   3871809.77346  21181317.1464   21181314.3454
     -2527.0824
  10214890.68447   7940209.40242  23537865.2944   23537864.1184
     -4522.8284
  -5086319.06648  -3961750.46143  23003392.2004   23003390.4894
      1976.0764
   7243767.26248   5631117.66843  23921627.2004   23921623.1964
     -3381.6254
   6839706.73448   5315865.82444  22956029.8494   22956025.7984
     -3032.3524
  -5607650.16048  -4352697.10945  22271531.2084   22271529.4744
      1926.9384
 04  9  3 15 32 30.0010000  0  7G11G14G15G 1G19G22G25
  -3986743.50849  -3095342.39544  22224445.4274   22224441.9194
      1090.3874
   5018317.58249   3901407.09846  21188544.8564   21188542.2434
     -2532.2174
  10282779.93047   7993110.09042  23550783.8104   23550782.7434
     -4525.9504
  -5115896.93748  -3984798.14843  22997762.8254   22997761.7204
      1971.8584
   7294547.46548   5670686.64143  23931289.9894   23931285.7744
     -3385.3474
   6885232.92648   5351340.75844  22964692.9584   22964689.1774
     -3035.0794
  -5636468.40248  -4375152.87945  22266047.2244   22266045.1614
      1921.2164
 04  9  3 15 32 45.0010000  0  7G11G14G15G 1G19G22G25
  -4002990.13349  -3108002.10545  22221353.8024   22221349.9504
      1083.1084
   5056374.94149   3931062.16446  21195787.1304   21195784.4784
     -2537.1574
  10350713.00047   8046044.91042  23563710.8804   23563710.5634
     -4528.8714
  -5145414.27348  -4007798.66044  22992146.7084   22992145.2514
      1967.8224
   7345380.32848   5710296.64543  23940963.1224   23940959.3134
     -3388.8584
   6930797.26648   5386845.41444  22973363.5994   22973359.5524
     -3037.6234
  -5665203.34448  -4397543.73045  22260579.3964   22260577.1494
      1915.6634
 04  9  3 15 33  0.0010000  0  7G11G14G15G 1G19G22G25
  -4019124.81649  -3120574.59044  22218283.5914   22218279.6924
      1075.6464
   5094508.58249   3960776.68446  21203043.9504   21203041.3214
     -2542.2434
  10418692.05547   8099015.54342  23576647.3414   23576646.7904
     -4531.9374
  -5174868.40248  -4030749.91443  22986540.9814   22986540.5214
      1963.6094
   7396267.95348   5749949.32043  23950646.6304   23950641.9584
     -3392.5084
   6976402.30548   5422381.78144  22982042.4814   22982038.7784
     -3040.3364
  -5693852.16848  -4419867.47745  22255127.6224   22255125.8494
      1909.9224
 04  9  3 15 33 15.0010000  0  7G11G14G15G 1G19G22G25
  -4035147.42249  -3133059.73444  22215234.3884   22215231.0284
      1068.1744
   5132718.37149   3990550.52746  21210314.8254   21210312.0874
     -2547.3194
  10486716.92647   8152021.89842  23589592.0364   23589591.3454
     -4534.9914
  -5204259.07447  -4053651.71944  22980948.4114   22980947.3134
      1959.3784
   7447210.00447   5789644.40243  23960340.7394   23960336.2084
     -3396.1374
   7022048.14148   5457949.94144  22990728.0364   22990724.2784
     -3043.0564
  -5722414.44548  -4442123.79745  22249692.3104   22249690.5954
      1904.1524
 04  9  3 15 33 30.0010000  0  7G11G14G15G 1G19G22G25
  -4051057.35949  -3145457.09844  22212206.7004   22212203.3334
      1060.6634
   5171004.27349   4020383.69546  21217600.4194   21217597.7004
     -2552.3934
  10554787.53947   8205063.90643  23602545.7474   23602544.3924
     -4538.0414
  -5233585.94547  -4076503.82043  22975367.6064   22975366.2944
      1955.1254
   7498206.34447   5829381.79742  23970045.0604   23970040.5244
     -3399.7564
   7067735.03948   5493550.11744  22999422.2084   22999418.7594
     -3045.7934
  -5750889.51248  -4464312.15645  22244274.1384   22244271.9854
      1898.3384
 04  9  3 15 33 45.0010000  0  7G11G14G15G 1G19G22G25
  -4066855.37549  -3157767.23044  22209200.2714   22209196.9894
      1053.2014
   5209365.07849   4050275.21146  21224900.3334   21224896.9314
     -2557.3874
  10622902.65247   8258140.56642  23615508.0754   23615506.4814
     -4541.0084
  -5262850.00047  -4099306.95743  22969799.1464   22969797.1304
      1950.9374
   7549255.55547   5869160.35243  23979759.3644   23979755.5134
     -3403.2814
   7113461.86348   5529181.38744  23008123.7944   23008119.9154
     -3048.4554
  -5779278.27048  -4486433.26645  22238871.8334   22238869.4074
      1892.5844
 04  9  3 15 34  0.0010000  0  7G11G14G15G 1G19G22G25
  -4082538.88349  -3169988.15645  22206216.1614   22206212.1734
      1045.5674
   5247802.87549   4080226.73446  21232214.4974   21232211.7284
     -2562.5204
  10691064.30147   8311253.50842  23628477.9974   23628477.2904
     -4544.1104
  -5292048.77747  -4122059.24244  22964242.4504   22964240.9934
      1946.5854
   7600359.64547   5908981.69142  23989484.1534   23989480.1814
     -3406.9394
   7159230.91848   5564845.55544  23016833.4274   23016829.9584
     -3051.2704
  -5807578.02748  -4508485.00845  22233486.3644   22233484.0714
      1886.6514
 04  9  3 15 34 15.0010000  0  7G11G14G15G 1G19G22G25
  -4098109.14849  -3182120.83244  22203252.9894   22203249.5444
      1038.0184
   5286316.21549   4110237.12146  21239543.4584   21239540.5174
     -2567.5564
  10759270.82847   8364401.41042  23641457.5604   23641456.9974
     -4547.1024
  -5321183.49647  -4144761.62144  22958698.9504   22958696.8254
      1942.3154
   7651516.82447   5948844.39542  23999218.8564   23999215.0634
     -3410.4794
   7205040.80948   5600541.55544  23025550.7084   23025546.7634
     -3053.9934
  -5835789.87548  -4530468.26245  22228118.3104   22228115.7164
      1880.7904
 04  9  3 15 34 30.0010000  0  7G11G14G15G 1G19G22G25
  -4113565.18449  -3194164.49245  22200311.8564   22200308.5244
      1030.4024
   5324905.28949   4140306.51246  21246886.7394   21246884.1344
     -2572.6054
  10827522.53947   8417584.51242  23654445.3414   23654444.7244
     -4550.1144
  -5350253.47348  -4167413.55143  22953166.4034   22953164.6534
      1937.9984
   7702727.38747   5988748.68843  24008963.9274   24008960.1574
     -3414.0374
   7250892.24248   5636269.93844  23034275.9274   23034272.3884
     -3056.7624
  -5863912.84848  -4552382.26245  22222766.1614   22222764.0714
      1874.8654
 04  9  3 15 34 45.0010000  0  7G11G14G15G 1G19G22G25
  -4128905.83249  -3206118.24645  22197392.6144   22197389.5874
      1022.7104
   5363570.78149   4170435.46546  21254244.7944   21254241.6534
     -2577.6994
  10895820.12547   8470803.35242  23667442.4114   23667441.4544
     -4553.1724
  -5379257.73848  -4190014.26643  22947646.8414   22947645.6814
      1933.6184
   7753991.82447   6028694.98043  24018718.7634   24018715.9074
     -3417.6294
   7296786.00048   5672031.30144  23043008.9744   23043005.3724
     -3059.5844
  -5891945.73448  -4574226.05945  22217431.8494   22217429.8564
      1868.8594
 04  9  3 15 35  0.0010000  0  7G11G14G15G 1G19G22G25
  -4144132.24249  -3217982.98445  22194495.2394   22194492.2554
      1015.0944
   5402311.23049   4200622.81646  21261616.5914   21261614.0444
     -2582.6974
  10964161.93047   8524056.67242  23680446.6464   23680446.2944
     -4556.1204
  -5408197.52747  -4212564.72744  22942139.5054   22942138.7594
      1929.3194
   7805308.41447   6068681.89543  24028485.0754   24028481.6814
     -3421.1064
   7342720.77348   5707824.61344  23051750.1384   23051746.1184
     -3062.3184
  -5919889.57448  -4596000.47345  22212114.0994   22212112.0754
      1862.9234
 04  9  3 15 35 15.0010000  0  7G11G14G15G 1G19G22G25
  -4159245.10949  -3229759.24645  22191619.5834   22191616.4034
      1007.5244
   5441125.42249   4230867.62946  21269002.7474   21269000.0094
     -2587.6134
  11032546.67646   8577343.43442  23693459.8644   23693459.4464
     -4558.9834
  -5437073.59847  -4235065.54343  22936644.6384   22936643.2864
      1925.0714
   7856675.84047   6108708.42643  24038259.7394   24038256.5054
     -3424.4954
   7388695.66048   5743649.17244  23060498.9504   23060495.0874
     -3064.9924
  -5947745.03549  -4617706.03145  22206813.0914   22206810.9974
      1857.0314
 04  9  3 15 35 30.0010000  0  7G11G14G15G 1G19G22G25
  -4174242.17648  -3241445.27045  22188765.2554   22188762.6224
       999.8044
   5480015.19949   4261171.33646  21276403.3724   21276400.6304
     -2592.6524
  11100976.20346   8630665.09442  23706482.2164   23706481.1774
     -4561.9684
  -5465883.80548  -4257515.04343  22931161.8254   22931161.4194
      1920.6804
   7908095.71147   6148775.82443  24048044.1534   24048041.5444
     -3427.9914
   7434712.71148   5779506.59844  23069255.8174   23069252.1424
     -3067.8034
  -5975509.72349  -4639340.83645  22201530.3174   22201528.1654
      1850.9794
 04  9  3 15 35 45.0010000  0  7G11G14G15G 1G19G22G25
  -4189123.33649  -3253040.98045  22185934.0214   22185931.2284
       992.0774
   5518980.24649   4291533.69946  21283818.0524   21283815.2784
     -2597.6704
  11169450.09847   8684021.32442  23719512.1924   23719511.4584
     -4564.9264
  -5494628.13748  -4279913.23043  22925692.6144   22925691.3024
      1916.2894
   7959567.71947   6188883.85943  24057839.7784   24057836.0994
     -3431.4674
   7480771.77748   5815396.75844  23078020.4034   23078017.0994
     -3070.6044
  -6003183.47349  -4660904.79745  22196264.1224   22196261.8174
      1844.9174
 04  9  3 15 36  0.0010000  0  7G11G14G15G 1G19G22G25
  -4203890.36349  -3264547.75845  22183123.6384   22183120.7124
       984.4684
   5558018.18049   4321952.85946  21291246.6064   21291243.9074
     -2602.5294
  11237965.98847   8737410.29742  23732549.8724   23732549.3254
     -4567.7264
  -5523308.67648  -4302261.68043  22920234.9814   22920233.8104
      1912.0364
   8011089.32448   6229030.52743  24067643.7004   24067640.5484
     -3434.7744
   7526870.70348   5851317.97344  23086792.8494   23086789.3494
     -3073.2624
  -6030768.02349  -4682399.24645  22191014.9114   22191012.5174
      1838.9704
 04  9  3 15 36 15.0010000  0  7G11G14G15G 1G19G22G25
  -4218542.82849  -3275965.26645  22180335.3724   22180332.3214
       976.8314
   5597129.02349   4352428.82846  21298689.1614   21298686.4624
     -2607.3904
  11306523.77746   8790831.91443  23745596.5754   23745595.6614
     -4570.5194
  -5551925.00848  -4324560.12543  22914789.6144   22914788.3414
      1907.7554
   8062660.26248   6269215.64543  24077458.0914   24077454.5564
     -3438.0624
   7573009.71548   5887270.43444  23095572.9114   23095569.1694
     -3075.9344
  -6058262.86349  -4703823.79345  22185782.5994   22185780.5444
      1832.9894
 04  9  3 15 36 30.0010000  0  7G11G14G15G 1G19G22G25
  -4233080.10948  -3287293.02045  22177568.9114   22177566.1814
       969.1524
   5636313.02049   4382961.79746  21306145.6384   21306143.1224
     -2612.2664
  11375123.62947   8844286.28942  23758651.1224   23758649.3564
     -4573.3234
  -5580476.65648  -4346808.14844  22909356.5444   22909354.6734
      1903.4434
   8114280.56648   6309439.23043  24087280.0364   24087277.6494
     -3441.3544
   7619189.19548   5923254.42244  23104360.4664   23104356.5174
     -3078.6324
  -6085667.35549  -4725177.94145  22180567.9194   22180565.3844
      1826.9664
 04  9  3 15 36 45.0010000  0  7G11G14G15G 1G19G22G25
  -4247503.04348  -3298531.66845  22174824.3884   22174821.6064
       961.5294
   5675568.80549   4413550.71946  21313615.7784   21313613.0094
     -2617.0524
  11443764.11747   8897772.35242  23771712.8024   23771711.3334
     -4576.0334
  -5608964.54748  -4369006.50844  22903935.4194   22903933.4974
      1899.1934
   8165948.87148   6349700.21943  24097112.6064   24097109.3994
     -3444.5544
   7665408.09448   5959269.14544  23113155.7714   23113151.7164
     -3081.2604
  -6112982.14549  -4746462.18445  22175369.8724   22175367.7474
      1820.9864
 04  9  3 15 37  0.0010000  0  7G11G14G15G 1G19G22G25
  -4261812.42649  -3309681.82845  22172101.4814   22172098.4664
       953.9594
   5714895.07849   4444194.55146  21321099.3724   21321096.9384
     -2621.7524
  11512443.92247   8951289.02742  23784781.7084   23784780.6734
     -4578.6544
  -5637389.74248  -4391155.99644  22898526.2244   22898524.3104
      1895.0134
   8217663.67647   6389997.44143  24106953.5284   24106950.2474
     -3447.6544
   7711665.37548   5995313.75444  23121958.3724   23121954.6734
     -3083.8194
  -6140208.17249  -4767677.26645  22170188.6924   22170187.2314
      1815.0684
 04  9  3 15 37 15.0010000  0  7G11G14G15G 1G19G22G25
  -4276007.73048  -3320743.10245  22169400.4114   22169397.1304
       946.3544
   5754292.07449   4474893.50046  21328596.5134   21328593.8414
     -2626.4664
  11581163.10546   9004836.41042  23797858.1694   23797857.8454
     -4581.2794
  -5665751.74247  -4413256.25444  22893129.1064   22893127.4354
      1890.8004
   8269425.02347   6430330.93443  24116803.3414   24116800.2284
     -3450.7574
   7757961.34448   6031388.52044  23130768.1924   23130764.5874
     -3086.3984
  -6167344.71949  -4788822.61745  22165025.3414   22165022.8994
      1809.1034
 04  9  3 15 37 30.0010000  0  7G11G14G15G 1G19G22G25
  -4290087.32048  -3331714.21145  22166720.7474   22166717.7394
       938.6394
   5793760.84049   4505648.37546  21336106.9504   21336104.6224
     -2631.2514
  11649922.80147   9058415.32442  23810942.8724   23810942.7284
     -4583.9804
  -5694049.02748  -4435306.07844  22887744.7314   22887742.9814
      1886.4864
   8321233.88348   6470701.43843  24126662.1464   24126658.9154
     -3453.9244
   7804297.35248   6067494.47744  23139585.2714   23139581.9384
     -3089.0674
  -6194390.02749  -4809896.88345  22159878.5754   22159876.4464
      1803.0214
 04  9  3 15 37 45.0010000  0  7G11G14G15G 1G19G22G25
  -4304053.69948  -3342597.10945  22164063.2864   22164060.1654
       931.0924
   5833298.52049   4536456.93846  21343630.5674   21343628.1064
     -2635.8454
  11718720.16046   9112023.61342  23824034.0284   23824034.7744
     -4586.4914
  -5722284.25447  -4457307.53544  22882371.7394   22882369.9894
      1882.3484
   8373087.25447   6511106.60542  24136528.9664   24136526.5214
     -3456.8914
   7850670.71148   6103629.52744  23148410.1064   23148406.5014
     -3091.5574
  -6221346.50049  -4830901.92244  22154749.1464   22154746.9274
      1797.0984
 04  9  3 15 38  0.0010000  0  7G11G14G15G 1G19G22G25
  -4317903.89549  -3353389.47345  22161427.7314   22161424.4034
       923.3464
   5872907.41849   4567321.00846  21351168.5444   21351165.9814
     -2640.5934
  11787557.34847   9165662.93842  23837134.1694   23837133.2824
     -4589.1464
  -5750454.77348  -4479258.58244  22877010.8564   22877009.3884
      1878.0354
   8424987.16047   6551548.05942  24146405.9744   24146403.0174
     -3459.9944
   7897083.94548   6139795.66044  23157241.9504   23157238.7124
     -3094.2164
  -6248211.34449  -4851835.54745  22149636.5834   22149634.7124
      1790.9904
 04  9  3 15 38 15.0010000  0  7G11G14G15G 1G19G22G25
  -4331639.72348  -3364092.71545  22158813.4584   22158810.6854
       915.7224
   5912585.46149   4598238.95346  21358718.8964   21358716.0634
     -2645.2034
  11856432.30147   9219331.65642  23850240.3494   23850240.5174
     -4591.6644
  -5778562.25047  -4501160.50444  22871662.0674   22871660.8964
      1873.8324
   8476931.58247   6592024.20342  24156290.8564   24156287.1734
     -3462.9614
   7943535.22748   6175991.44144  23166081.8334   23166077.8724
     -3096.7524
  -6274986.09049  -4872698.98445  22144541.3884   22144539.0244
      1784.9834
 04  9  3 15 38 30.0010000  0  7G11G14G15G 1G19G22G25
  -4345262.33249  -3374707.73845  22156221.6694   22156218.1774
       908.1744
   5952331.08649   4629209.56346  21366282.2554   21366279.5994
     -2649.7084
  11925343.21147   9273028.41842  23863354.3414   23863353.4814
     -4594.0614
  -5806608.02348  -4523014.33644  22866324.9894   22866324.1884
      1869.7184
   8528918.64847   6632533.56642  24166183.2474   24166179.3454
     -3465.8044
   7990023.14548   6212215.77344  23174927.8174   23174924.1424
     -3099.1954
  -6301671.75049  -4893492.99245  22139463.5284   22139460.9114
      1779.0444
 04  9  3 15 38 45.0010000  0  7G11G14G15G 1G19G22G25
  -4358770.93049  -3385233.92645  22153650.8724   22153647.7474
       900.5734
   5992144.61749   4660233.08246  21373858.2784   21373855.6774
     -2654.2354
  11994290.43847   9326753.48042  23876474.6534   23876473.7204
     -4596.4824
  -5834591.46947  -4544819.60244  22861000.2714   22860998.7514
      1865.5634
   8580948.51647   6673076.27342  24176084.1854   24176080.0674
     -3468.6584
   8036548.23848   6248469.06644  23183781.7474   23183777.6384
     -3101.6734
  -6328267.48049  -4914216.94145  22134402.3174   22134399.9664
      1773.0494
 04  9  3 15 39  0.0010000  0  7G11G14G15G 1G19G22G25
  -4372164.59849  -3395670.55145  22151102.3414   22151099.1734
       892.9114
   6032026.53149   4691309.88746  21381447.7004   21381444.9154
     -2658.7944
  12063274.32047   9380507.10942  23889601.3104   23889601.1224
     -4598.9264
  -5862511.72347  -4566575.63344  22855686.6854   22855685.6464
      1861.3504
   8633021.54347   6713652.62942  24185993.7474   24185989.2124
     -3471.5354
   8083111.20748   6284751.87944  23192641.9354   23192638.3884
     -3104.1984
  -6354772.41449  -4934870.13345  22129358.9424   22129356.3174
      1766.9964
 04  9  3 15 39 15.0010000  0  7G11G14G15G 1G19G22G25
  -4385443.50049  -3406017.75445  22148574.9424   22148572.1264
       885.2604
   6071976.12949   4722439.43046  21389049.7164   21389046.9074
     -2663.3074
  12132294.12947   9434288.73042  23902736.0914   23902735.3214
     -4601.3214
  -5890369.14547  -4588282.70344  22850385.6924   22850384.7284
      1857.1614
   8685136.85547   6754261.94542  24195911.0994   24195907.1694
     -3474.3544
   8129711.55148   6321063.80944  23201510.2864   23201506.3334
     -3106.6904
  -6381186.59849  -4955452.60245  22124332.1924   22124329.8604
      1760.9464
 04  9  3 15 39 30.0010000  0  7G11G14G15G 1G19G22G25
  -4398606.84849  -3416274.91445  22146070.5604   22146066.8414
       877.5574
   6111993.90249   4753622.10246  21396664.6774   21396662.0134
     -2667.8524
  12201350.32047   9488098.71542  23915876.5754   23915876.8644
     -4603.7464
  -5918162.94147  -4609940.19144  22845096.5054   22845095.3964
      1852.9204
   8737294.78147   6794904.44942  24205836.7004   24205832.5174
     -3477.1954
   8176349.99248   6357405.42244  23210384.8884   23210381.1224
     -3109.2294
  -6407508.93749  -4975963.51245  22119323.2084   22119321.0364
      1754.8234
 04  9  3 15 39 45.0010000  0  7G11G14G15G 1G19G22G25
  -4411654.75449  -3426442.11345  22143587.4664   22143584.2044
       869.8604
   6152079.15649   4784857.35246  21404292.6224   21404290.2204
     -2672.3504
  12270442.22747   9541936.50842  23929024.4194   23929024.7204
     -4606.1274
  -5945893.45348  -4631548.38344  22839819.8964   22839818.4854
      1848.7014
   8789494.51647   6835579.54742  24215770.1534   24215766.0444
     -3479.9824
   8223026.08248   6393776.39544  23219266.9664   23219263.4784
     -3111.7394
  -6433739.68749  -4996403.05945  22114331.6464   22114329.4354
      1748.7174
 04  9  3 15 40  0.0010000  0  7G11G14G15G 1G19G22G25
  -4424586.41448  -3436518.74245  22141126.7084   22141123.7004
       862.1114
   6192232.15649   4816145.39146  21411933.6304   21411930.9704
     -2676.8674
  12339570.02747   9595802.25842  23942179.0214   23942179.2284
     -4608.5204
  -5973560.13348  -4653106.84044  22834555.2164   22834553.4544
      1844.4454
   8841736.17247   6876287.31342  24225710.4424   24225707.0754
     -3482.7774
   8269740.27047   6430177.04344  23228156.1614   23228152.8724
     -3114.2794
  -6459878.11749  -5016770.65245  22109357.5054   22109355.6534
      1742.5624
 04  9  3 15 40 15.0010000  0  7G11G14G15G 1G19G22G25
  -4437402.18049  -3446505.05545  22138688.1304   22138684.5284
       854.3844
   6232452.39849   4847485.82846  21419587.2784   21419584.6304
     -2681.3494
  12408733.14147   9649695.53542  23955339.8414   23955340.0794
     -4610.8744
  -6001163.14148  -4674615.67644  22829302.4664   22829301.3104
      1840.2014
   8894019.07447   6917027.19942  24235660.1224   24235656.6424
     -3485.5274
   8316492.37948   6466607.22744  23237053.2944   23237049.7634
     -3116.8074
  -6485924.14549  -5037066.24645  22104401.4274   22104399.4074
      1736.4024
 04  9  3 15 40 30.0010000  0  7G11G14G15G 1G19G22G25
  -4450101.93748  -3456400.97745  22136270.9194   22136268.0284
       846.6514
   6272739.26649   4878878.18046  21427253.6614   21427251.0174
     -2685.7914
  12477930.81347   9703615.75842  23968507.9894   23968507.9664
     -4613.1784
  -6028702.79748  -4696075.13744  22824061.9744   22824060.2164
      1835.9774
   8946342.49247   6957798.68442  24245616.6064   24245612.9584
     -3488.2284
   8363281.79747   6503066.50044  23245957.0214   23245953.3254
     -3119.2954
  -6511877.97349  -5057290.00845  22099462.1774   22099460.5214
      1730.2554
 04  9  3 15 40 45.0010000  0  7G11G14G15G 1G19G22G25
  -4462686.03149  -3466206.76245  22133876.3644   22133872.9974
       838.9404
   6313092.16449   4910321.98846  21434932.6534   21434929.8724
     -2690.1934
  12547162.38347   9757562.39142  23981682.5674   23981682.1574
     -4615.4384
  -6056179.52048  -4717485.57044  22818833.0674   22818832.0674
      1831.7824
   8998705.60547   6998601.09043  24255581.0604   24255577.4234
     -3490.8744
   8410108.23848   6539554.61744  23254867.2314   23254864.2784
     -3121.7634
  -6537739.72749  -5077442.00845  22094541.2164   22094539.1304
      1724.1174
 04  9  3 15 41  0.0010000  0  7G11G14G15G 1G19G22G25
  -4475151.04349  -3475919.75445  22131504.5134   22131501.4354
       831.0014
   6353513.81649   4941819.37146  21442624.5914   21442621.7434
     -2694.7774
  12616430.67647   9811537.62942  23994863.4034   23994863.5794
     -4617.8864
  -6083590.02048  -4738844.40644  22813617.1534   22813615.4784
      1827.3674
   9051111.00047   7039436.42643  24265552.8964   24265551.1854
     -3493.6934
   8456974.67248   6576073.88744  23263786.0054   23263782.2284
     -3124.4294
  -6563506.09849  -5097519.69145  22089637.3884   22089635.9934
      1717.7584
 04  9  3 15 41 15.0010000  0  7G11G14G15G 1G19G22G25
  -4487500.36349  -3485542.59445  22129154.4354   22129151.3964
       823.2884
   6394000.39149   4973367.33646  21450329.0754   21450326.2394
     -2699.1054
  12685731.65247   9865538.35542  24008052.1304   24008051.0094
     -4620.0654
  -6110937.89548  -4760154.41844  22808412.9504   22808411.5754
      1823.1924
   9103554.75447   7080301.64543  24275533.5214   24275531.3724
     -3496.2504
   8503877.46148   6612621.48444  23272711.3254   23272707.7394
     -3126.8534
  -6589180.33249  -5117525.57445  22084751.9274   22084750.0014
      1711.6164
 04  9  3 15 41 30.0010000  0  7G11G14G15G 1G19G22G25
  -4499732.30149  -3495073.98045  22126826.8564   22126823.4704
       815.4634
   6434553.47749   5004967.12946  21458046.2394   21458043.1574
     -2703.5394
  12755066.84047   9919565.75042  24021245.5284   24021244.8764
     -4622.3464
  -6138221.29348  -4781414.19544  22803220.8334   22803220.0874
      1818.8934
   9156038.21147   7121197.80142  24285520.8334   24285518.4624
     -3498.8974
   8550818.31348   6649198.74644  23281644.1144   23281640.6924
     -3129.3904
  -6614760.39549  -5137458.08645  22079884.8334   22079882.1184
      1705.3384
 04  9  3 15 41 45.0010000  0  7G11G14G15G 1G19G22G25
  -4511844.66049  -3504512.18745  22124522.1064   22124518.4154
       807.4914
   6475174.53949   5036619.89546  21465775.8414   21465772.5174
     -2708.0714
  12824437.72347   9973620.93442  24034446.6614   24034446.9704
     -4624.7264
  -6165438.40248  -4802622.31244  22798041.4664   22798040.8414
      1814.4744
   9208562.73047   7162125.94542  24295515.3104   24295512.7674
     -3501.6354
   8597799.03948   6685807.08644  23290584.0604   23290580.5404
     -3132.0484
  -6640244.23449  -5157315.61745  22075035.1464   22075032.6854
      1698.9234
 04  9  3 15 42  0.0010000  0  7G11G14G15G 1G19G22G25
  -4523838.85949  -3513858.31645  22122239.7554   22122235.8764
       799.6134
   6515861.94549   5068324.35246  21473518.4744   21473515.6814
     -2712.4944
  12893842.53547  10027702.54742  24047653.3964   24047653.8414
     -4626.9874
  -6192590.59448  -4823779.86744  22792874.9894   22792873.6574
      1810.1464
   9261126.43047   7203084.62543  24305518.1694   24305515.4784
     -3504.2474
   8644818.10948   6722445.29344  23299531.1854   23299527.6734
     -3134.6054
  -6665633.16849  -5177099.20745  22070203.9974   22070201.6144
      1692.5964
 04  9  3 15 42 15.0010000  0  7G11G14G15G 1G19G22G25
  -4535716.11349  -3523113.32445  22119979.4664   22119975.9424
       791.8174
   6556614.03149   5100079.21146  21481273.7714   21481270.5214
     -2716.8064
  12963279.53947  10081809.24242  24060867.5914   24060866.9584
     -4629.1344
  -6219679.25048  -4844887.89544  22787719.7714   22787718.8494
      1805.9104
   9313727.49647   7244072.43043  24315527.9894   24315525.2944
     -3506.7384
   8691874.06648   6759112.25444  23308486.3414   23308482.2394
     -3137.0644
  -6690928.34049  -5196809.72345  22065390.3174   22065387.4584
      1686.3454
 04  9  3 15 42 30.0010000  0  7G11G14G15G 1G19G22G25
  -4547473.79749  -3532275.16445  22117742.1534   22117738.5874
       783.8464
   6597432.80149   5131886.03146  21489040.9584   21489038.1614
     -2721.2514
  13032750.76647  10135942.61742  24074087.5994   24074086.8644
     -4631.4154
  -6246701.91048  -4865944.50844  22782577.8964   22782576.7984
      1801.5114
   9366367.95747   7285090.93043  24325545.6064   24325542.7634
     -3509.3644
   8738969.22748   6795809.75843  23317447.8104   23317443.7044
     -3139.6774
  -6716127.14849  -5216445.14145  22060595.2944   22060592.7204
      1679.9214
 04  9  3 15 42 45.0010000  0  7G11G14G15G 1G19G22G25
  -4559112.40649  -3541344.20345  22115527.4194   22115523.9974
       775.9074
   6638317.44149   5163744.18046  21496821.0754   21496817.9854
     -2725.6434
  13102255.29347  10190101.94942  24087314.0134   24087313.5484
     -4633.6354
  -6273659.20748  -4886950.17244  22777448.1534   22777446.2284
      1797.1534
   9419046.76647   7326139.28542  24335569.8494   24335567.0244
     -3511.9214
   8786102.95748   6832537.31644  23326416.8724   23326413.2744
     -3142.2494
  -6741229.77049  -5236005.62145  22055818.2004   22055816.0914
      1673.5084
 04  9  3 15 43  0.0010000  0  7G11G14G15G 1G19G22G25
  -4570632.31249  -3550320.76245  22113334.8804   22113331.8134
       767.9944
   6679267.05549   5195652.96946  21504613.8724   21504610.8844
     -2729.9744
  13171792.28947  10244286.56342  24100546.2004   24100545.8294
     -4635.8004
  -6300551.66048  -4907905.32444  22772330.2164   22772329.1264
      1792.8304
   9471762.79347   7367216.68843  24345601.0754   24345598.4234
     -3514.4024
   8833274.46148   6869294.31643  23335393.3724   23335390.0094
     -3144.7674
  -6766236.62149  -5255491.47345  22051059.4974   22051057.6654
      1667.1234
 04  9  3 15 43 15.0010000  0  7G11G14G15G 1G19G22G25
  -4582033.21949  -3559204.59045  22111165.6464   22111162.5914
       760.0604
   6720281.60949   5227612.34846  21512418.2864   21512415.5874
     -2734.3044
  13241361.53947  10298496.33242  24113785.0754   24113784.4664
     -4637.9504
  -6327379.01247  -4928809.73844  22767225.3104   22767224.6614
      1788.4904
   9524515.86347   7408322.94142  24355639.9814   24355636.5794
     -3516.8714
   8880483.96948   6906080.92643  23344377.6064   23344373.7204
     -3147.3014
  -6791147.32849  -5274902.40645  22046319.5214   22046317.0174
      1660.7144
 04  9  3 15 43 30.0010000  0  7G11G14G15G 1G19G22G25
  -4593316.22749  -3567996.55145  22109018.3564   22109015.4384
       752.2014
   6761359.62149   5259621.18046  21520235.3884   21520232.1614
     -2738.5344
  13310961.45747  10352730.00042  24127029.7634   24127028.4544
     -4639.9954
  -6354142.44148  -4949664.34844  22762132.0674   22762131.1654
      1784.2294
   9577304.41847   7449456.84842  24365685.3644   24365682.0134
     -3519.2374
   8927730.23048   6942896.16843  23353368.1064   23353364.9274
     -3149.7514
  -6815962.84049  -5294239.16845  22041596.8644   22041594.6424
      1654.3674
 04  9  3 15 43 45.0010000  0  7G11G14G15G 1G19G22G25
  -4604480.73049  -3576696.16845  22106893.8724   22106890.8604
       744.3004
   6802501.11349   5291679.47746  21528064.1304   21528061.2714
     -2742.7664
  13380592.10947  10406987.60542  24140279.7714   24140278.6184
     -4642.0434
  -6380841.52348  -4970468.81644  22757051.2554   22757050.1424
      1779.9394
   9630128.29347   7490618.28142  24375737.4664   24375733.7984
     -3521.5924
   8975013.60548   6979740.32044  23362365.7474   23362362.4664
     -3152.2254
  -6840682.44949  -5313501.18445  22036893.2474   22036890.9544
      1647.9744
 04  9  3 15 44  0.0010000  0  7G11G14G15G 1G19G22G25
  -4615522.80149  -3585300.37145  22104792.7634   22104789.4784
       736.1384
   6843709.59849   5323789.97746  21535905.8804   21535903.2554
     -2747.2324
  13450256.85247  10461271.78142  24153536.7084   24153536.3104
     -4644.3164
  -6407472.49248  -4991220.21944  22751984.1854   22751982.2314
      1775.3984
   9682990.87947   7531809.89542  24385797.0674   24385793.0244
     -3524.1724
   9022337.73448   7016616.24244  23371371.0674   23371367.5914
     -3154.9424
  -6865302.21949  -5332685.41845  22032207.8254   22032206.0054
      1641.3184
 04  9  3 15 44 15.0010000  0  7G11G14G15G 1G19G22G25
  -4626446.27048  -3593812.16845  22102714.1144   22102710.9624
       728.2314
   6884980.87149   5355949.39546  21543759.6694   21543757.1184
     -2751.4184
  13519951.39548  10515579.16842  24166798.7944   24166798.9234
     -4646.3034
  -6434039.29748  -5011921.62544  22746928.6384   22746927.0524
      1771.1204
   9735887.69147   7573028.16842  24395863.3334   24395858.4744
     -3526.4544
   9069698.53148   7053520.71944  23380383.7244   23380379.9544
     -3157.3864
  -6889826.07849  -5351794.91045  22027541.1304   22027539.3294
      1634.9244
 04  9  3 15 44 30.0010000  0  7G11G14G15G 1G19G22G25
  -4637250.01649  -3602230.67645  22100658.0754   22100654.7284
       720.2504
   6926315.67649   5388158.33246  21551625.2554   21551622.4234
     -2755.6544
  13589676.41847  10569910.32042  24180066.7864   24180067.5094
     -4648.3354
  -6460540.92248  -5032572.23044  22741885.9194   22741884.1424
      1766.7754
   9788819.34447   7614273.60942  24405935.5284   24405931.4274
     -3528.7774
   9117096.90248   7090454.50044  23389403.4974   23389399.7904
     -3159.8914
  -6914252.69949  -5370828.64545  22022893.2314   22022890.7244
      1628.4414
 04  9  3 15 44 45.0010000  0  7G11G14G15G 1G19G22G25
  -4647933.74248  -3610555.66045  22098624.9814   22098621.6494
       712.2484
   6967713.86749   5420416.64146  21559503.4354   21559500.1964
     -2759.8794
  13659431.62947  10624264.99642  24193340.7084   24193341.7674
     -4650.3474
  -6486977.25447  -5053171.97344  22736855.2944   22736853.2124
      1762.4224
   9841785.61347   7655545.99242  24416014.2864   24416011.1884
     -3531.0854
   9164532.95348   7127417.60944  23398430.3334   23398426.2394
     -3162.4034
  -6938581.71949  -5389786.31245  22018263.4034   22018260.8174
      1621.9354
 04  9  3 15 45  0.0010000  0  7G11G14G15G 1G19G22G25
  -4658497.56649  -3618787.20745  22096614.5054   22096611.3724
       704.2554
   7009174.98849   5452724.00046  21567392.9974   21567389.9664
     -2764.0754
  13729216.57447  10678642.81342  24206620.2004   24206621.1924
     -4652.3304
  -6513348.37148  -5073720.89544  22731836.9424   22731834.0094
      1758.0744
   9894785.70747   7696844.75842  24426100.1464   24426096.6264
     -3533.3404
   9212006.35948   7164409.86344  23407463.6464   23407460.6224
     -3164.8944
  -6962813.15649  -5408667.94145  22013652.3804   22013650.0054
      1615.4294
 04  9  3 15 45 15.0010000  0  7G11G14G15G 1G19G22G25
  -4668940.44149  -3626924.52045  22094627.6614   22094624.3254
       696.1924
   7050699.60549   5485080.83646  21575294.7164   21575292.0954
     -2768.3084
  13799031.75447  10733044.21942  24219906.1694   24219906.4544
     -4654.3454
  -6539653.40248  -5094218.31644  22726830.7244   22726829.0094
      1753.6694
   9947820.13347   7738170.25442  24436192.1304   24436188.5674
     -3535.6284
   9259517.96148   7201431.85544  23416505.3024   23416501.7244
     -3167.4404
  -6986945.90249  -5427472.67245  22009060.0674   22009057.8454
      1608.8504
 04  9  3 15 45 30.0010000  0  7G11G14G15G 1G19G22G25
  -4679263.25849  -3634968.27345  22092663.1384   22092659.9464
       688.1884
   7092286.29349   5517486.03546  21583208.2944   21583205.8334
     -2772.4464
  13868875.75447  10787468.04342  24233197.2474   24233197.4074
     -4656.2674
  -6565893.39848  -5114665.05144  22721837.4664   22721835.0874
      1749.3334
  10000887.43446   7779521.36342  24446289.9194   24446287.6304
     -3537.8204
   9307066.60548   7238482.71144  23425553.5054   23425549.8294
     -3169.9104
  -7010980.78149  -5446201.14845  22004486.2634   22004483.7594
      1602.3254
 04  9  3 15 45 45.0010000  0  7G11G14G15G 1G19G22G25
  -4689464.94949  -3642917.64545  22090721.7084   22090718.7554
       680.1134
   7133935.79349   5549940.18446  21591134.4034   21591131.7674
     -2776.6334
  13938749.32447  10841914.92642  24246493.8804   24246494.0364
     -4658.2384
  -6592067.29748  -5135060.28944  22716856.6774   22716854.4504
      1744.9274
  10053988.05546   7820898.41842  24456394.4744   24456392.0214
     -3540.0414
   9354653.26248   7275563.19143  23434609.2634   23434605.5444
     -3172.4444
  -7034916.61749  -5464852.44145  21999931.2864   21999929.2204
      1595.7224
 04  9  3 15 46  0.0010000  0  7G11G14G15G 1G19G22G25
  -4699545.10549  -3650772.32045  22088803.5674   22088800.5484
       672.0104
   7175648.03149   5582443.21546  21599072.0364   21599068.7634
     -2780.8164
  14008652.07447  10896384.54342  24259795.1924   24259796.7204
     -4660.1834
  -6618174.99648  -5155403.94144  22711888.7394   22711886.8454
      1740.5134
  10107121.76647   7862301.26642  24466505.7084   24466503.1814
     -3542.2474
   9402277.96948   7312673.30943  23443672.0604   23443668.1424
     -3174.9804
  -7058753.08649  -5483426.30145  21995395.2634   21995393.6064
      1589.0984
 04  9  3 15 46 15.0010000  0  7G11G14G15G 1G19G22G25
  -4709502.75849  -3658531.53945  22086908.7394   22086905.6814
       663.8434
   7217423.68049   5614995.66046  21607021.3564   21607018.6064
     -2785.0434
  14078584.80147  10950877.54742  24273103.4584   24273103.7744
     -4662.1824
  -6644215.47748  -5175695.22344  22706933.0364   22706932.0244
      1736.0324
  10160289.12947   7903730.34442  24476623.2714   24476620.9584
     -3544.4914
   9449941.59448   7349813.77743  23452742.0134   23452738.0284
     -3177.5754
  -7082488.96549  -5501921.77745  21990878.5914   21990876.2474
      1582.3924
 04  9  3 15 46 30.0010000  0  7G11G14G15G 1G19G22G25
  -4719337.44949  -3666194.93745  22085037.6064   22085034.3064
       655.6464
   7259262.93049   5647597.65646  21614983.2554   21614980.2314
     -2789.2834
  14148547.50047  11005393.88742  24286416.5284   24286416.6924
     -4664.1804
  -6670188.23848  -5195933.73444  22701990.5754   22701989.5564
      1731.5174
  10213490.09847   7945185.60242  24486747.2714   24486744.8684
     -3546.7314
   9497644.53948   7386984.87544  23461819.6924   23461815.7634
     -3180.1964
  -7106123.55149  -5520338.33245  21986380.9584   21986378.6424
      1575.6394
 04  9  3 15 46 45.0010000  0  7G11G14G15G 1G19G22G25
  -4729048.81649  -3673762.24245  22083189.4814   22083186.4194
       647.4244
   7301165.24249   5680248.80146  21622956.8724   21622953.9114
     -2793.4874
  14218539.84447  11059933.30542  24299736.4424   24299736.2634
     -4666.1564
  -6696093.40648  -5216119.56644  22697061.4114   22697060.2084
      1727.0114
  10266724.20747   7986666.67243  24496878.0524   24496875.4744
     -3548.9414
   9545386.58648   7424186.44943  23470904.6224   23470900.6654
     -3182.8034
  -7129656.71549  -5538675.85945  21981902.9814   21981900.3104
      1568.8784
 04  9  3 15 47  0.0010000  0  7G11G14G15G 1G19G22G25
  -4738637.56249  -3681234.00045  22081364.4194   22081361.3884
       639.2504
   7343129.73049   5712948.39546  21630942.4894   21630939.6304
     -2797.6334
  14288560.59047  11114494.88342  24313061.4194   24313061.1034
     -4668.0504
  -6721931.67248  -5236253.27044  22692144.4274   22692143.3644
      1722.5514
  10319990.16847   8028172.58643  24507013.6144   24507011.3294
     -3551.0644
   9593166.91848   7461417.85543  23479997.0284   23479992.7044
     -3185.3554
  -7153089.06249  -5556934.82045  21977443.6304   21977441.4274
      1562.1574
 04  9  3 15 47 15.0010000  0  7G11G14G15G 1G19G22G25
  -4748102.49249  -3688609.27745  22079563.5754   22079560.5244
       630.9954
   7385157.13749   5745697.01246  21638939.8024   21638937.1424
     -2801.8274
  14358610.53946  11169079.19542  24326390.8024   24326390.8174
     -4669.9974
  -6747701.96548  -5256334.00444  22687240.1534   22687239.7354
      1718.0204
  10373288.63347   8069703.80143  24517156.7474   24517153.8024
     -3553.2314
   9640986.53148   7498679.87143  23489097.1384   23489092.8534
     -3187.9744
  -7176419.35549  -5575114.26245  21973004.1924   21973001.5754
      1555.3534
 04  9  3 15 47 30.0010000  0  7G11G14G15G 1G19G22G25
  -4757444.06649  -3695888.43045  22077785.7634   22077782.9704
       622.7724
   7427246.65249   5778494.02745  21646949.4034   21646947.0364
     -2805.9684
  14428688.78547  11223685.57842  24339726.1224   24339726.3994
     -4671.8834
  -6773404.85248  -5276362.22344  22682349.5364   22682348.9584
      1713.5264
  10426618.64147   8111259.61743  24527305.2394   24527302.0954
     -3555.3344
   9688844.81648   7535972.02344  23498204.0524   23498199.9074
     -3190.5524
  -7199647.90649  -5593214.43045  21968583.4974   21968581.7204
      1548.5704
 04  9  3 15 47 45.0010000  0  7G11G14G15G 1G19G22G25
  -4766661.90649  -3703071.16045  22076031.9664   22076028.4854
       614.5234
   7469398.39549   5811339.52346  21654970.4274   21654968.0444
     -2810.1164
  14498795.35947  11278314.03142  24353067.4504   24353067.4194
     -4673.7724
  -6799039.93048  -5296337.60244  22677471.3174   22677471.1144
      1709.0054
  10479980.17247   8152839.99642  24537459.5524   24537456.4784
     -3557.4354
   9736742.13348   7573294.58643  23507318.7474   23507315.0914
     -3193.1544
  -7222774.15649  -5611234.87145  21964183.0754   21964181.0994
      1541.7504
 04  9  3 15 48  0.0010000  0  6G11G14G15G 1G22G25
  -4775756.29349  -3710157.69945  22074301.4034   22074297.6224
       606.2924
   7511611.48049   5844232.82445  21663003.5524   21663000.7394
     -2814.2064
  14568929.22347  11332963.73842  24366413.1694   24366412.8134
     -4675.5914
  -6824607.87148  -5316260.66444  22672606.0914   22672605.4154
      1704.5294
   9784677.63348   7610646.89843  23516440.1304   23516436.7714
     -3195.7004
  -7245798.46549  -5629175.88345  21959801.6144   21959799.6344
      1534.9544
 04  9  3 15 48 15.0010000  0  6G11G14G15G 1G22G25
  -4784726.81649  -3717147.72345  22072593.9584   22072590.6534
       598.0354
   7553885.85249   5877173.88346  21671048.1614   21671045.3024
     -2818.2914
  14639090.32847  11387634.72742  24379763.9584   24379763.9234
     -4677.4074
  -6850108.21149  -5336131.05144  22667753.2864   22667752.9074
      1700.0234
   9832651.62948   7648029.19544  23525569.0834   23525565.7784
     -3198.2664
  -7268720.27049  -5647037.02345  21955440.1774   21955437.6854
      1528.1204
 04  9  3 15 48 30.0010000  0  6G11G14G15G 1G22G25
  -4793574.01649  -3724041.65245  22070910.1534   22070907.2864
       589.8134
   7596220.64849   5910162.02746  21679103.9974   21679101.6774
     -2822.3204
  14709277.73447  11442326.16442  24393120.6304   24393120.9114
     -4679.1604
  -6875541.65648  -5355949.31244  22662913.5674   22662912.7554
      1695.5634
   9880663.46148   7685440.97744  23534705.4274   23534702.2904
     -3200.7894
  -7291540.02749  -5664818.64145  21951097.2004   21951095.2044
      1521.3174
 04  9  3 15 48 45.0010000  0  6G11G14G15G 1G22G25
  -4802295.94949  -3730837.96545  22069251.0364   22069247.8764
       581.4624
   7638617.55149   5943198.56646  21687172.2714   21687169.4664
     -2826.4604
  14779493.00447  11497039.31342  24406481.7474   24406481.9544
     -4681.0184
  -6900906.23448  -5375713.90244  22658086.5994   22658085.9074
      1690.9724
   9928714.96548   7722883.69144  23543849.3804   23543845.6854
     -3203.4344
  -7314255.60548  -5682519.08646  21946774.5834   21946772.4154
      1514.3724
 04  9  3 15 49  0.0010000  0  5G11G14G 1G22G25
  -4810892.17649  -3737536.32445  22067615.2554   22067611.9784
       573.0824
   7681076.52049   5976283.46146  21695251.6304   21695249.0174
     -2830.5984
  -6926201.67648  -5395424.62544  22653273.1464   22653272.2824
      1686.3634
   9976806.21948   7760357.37543  23553000.9664   23552997.5914
     -3206.0844
  -7336866.60949  -5700138.03945  21942472.4034   21942469.9894
      1507.4004
 04  9  3 15 49 15.0010000  0  5G11G14G 1G22G25
  -4819361.01249  -3744135.42245  22066003.5674   22066000.4974
       564.5894
   7723598.68849   6009417.60546  21703343.4744   21703340.5674
     -2834.8114
  -6951426.44548  -5415080.27744  22648472.5364   22648471.6814
      1681.6514
  10024938.74248   7797863.21143  23562160.0994   23562156.7554
     -3208.8354
  -7359371.35549  -5717674.19945  21938189.2944   21938187.2744
      1500.3164
 04  9  3 15 49 30.0010000  0  5G11G14G 1G22G25
  -4827704.88349  -3750637.15245  22064415.6464   22064412.4074
       556.2584
   7766181.29749   6042598.85546  21711446.8334   21711443.9784
     -2838.8414
  -6976583.16848  -5434682.90244  22643685.3564   22643684.0244
      1677.1154
  10073109.73048   7835399.00844  23571326.9274   23571323.5404
     -3211.3994
  -7381772.25848  -5735129.43445  21933926.7084   21933924.8644
      1493.3934
 04  9  3 15 49 45.0010000  0  5G11G14G 1G22G25
  -4835920.60549  -3757039.01245  22062852.5524   22062849.2004
       547.7154
   7808827.09849   6075829.34046  21719561.6854   21719559.1854
     -2843.0534
  -7001668.71548  -5454230.07044  22638911.8964   22638910.4814
      1672.3704
  10121322.31348   7872967.21944  23580501.8644   23580498.3724
     -3214.1724
  -7404065.90648  -5752501.10246  21929684.3334   21929682.5214
      1486.2434
 04  9  3 15 50  0.0010000  0  5G11G14G 1G22G25
  -4844010.09449  -3763342.51645  22061313.2164   22061309.5604
       539.2994
   7851533.84849   6109107.31346  21727688.7004   21727686.0634
     -2847.1174
  -7026685.05148  -5473723.32044  22634151.5364   22634150.0714
      1667.7564
  10169574.29748   7910566.13743  23589683.7944   23589680.2164
     -3216.7994
  -7426254.18749  -5769790.66046  21925462.0284   21925460.3604
      1479.2194
 04  9  3 15 50 15.0010000  0  5G11G14G 1G22G25
  -4851973.06249  -3769547.43745  22059797.5834   22059794.2864
       530.8654
   7894301.43849   6142432.69945  21735827.0604   21735824.4424
     -2851.1734
  -7051631.98048  -5493162.48044  22629404.1144   22629402.7394
      1663.1294
  10217865.98448   7948196.00444  23598873.3334   23598870.0834
     -3219.4464
  -7448336.69148  -5786997.79345  21921260.0524   21921257.9624
      1472.1674
 04  9  3 15 50 30.0010000  0  5G11G14G 1G22G25
  -4859809.89548  -3775654.05945  22058306.5054   22058303.1224
       522.4554
   7937129.12949   6175804.91445  21743977.0444   21743974.6774
     -2855.1794
  -7076510.01248  -5512547.94544  22624670.4274   22624668.5604
      1658.5354
  10266196.66448   7985856.23843  23608070.7474   23608067.0794
     -3222.0454
  -7470313.74648  -5804122.77045  21917077.9744   21917075.6694
      1465.1374
 04  9  3 15 50 45.0010000  0  5G11G14G 1G22G25
  -4867520.60248  -3781662.40645  22056839.2474   22056835.9034
       514.0474
   7980016.42649   6209223.57845  21752138.0674   21752135.6424
     -2859.1534
  -7101319.26248  -5531879.81644  22619949.0364   22619947.8104
      1653.9504
  10314566.13748   8023546.71544  23617275.0754   23617271.4624
     -3224.6324
  -7492185.25048  -5821165.48846  21912915.9894   21912913.8684
      1458.1004
 04  9  3 15 51  0.0010000  0  5G11G14G 1G22G25
  -4875104.53549  -3787571.96545  22055396.1384   22055392.9424
       505.5964
   8022963.71949   6242688.99245  21760310.6384   21760308.4974
     -2863.1534
  -7126059.23448  -5551157.69944  22615241.4974   22615239.9114
      1649.3324
  10362974.88748   8061267.78543  23626486.6534   23626483.2824
     -3227.2504
  -7513950.46949  -5838125.39145  21908773.9814   21908772.2204
      1451.0154
 04  9  3 15 51 15.0010000  0  5G11G14G 1G22G25
  -4882562.82448  -3793383.62145  22053976.6924   22053973.2984
       497.2194
   8065969.35949   6276199.87146  21768494.7784   21768491.4814
     -2867.0434
  -7150731.08648  -5570382.51644  22610546.3334   22610544.8454
      1644.7904
  10411421.59048   8099018.43043  23635705.8884   23635702.7784
     -3229.7804
  -7535610.43748  -5855003.27346  21904652.2164   21904650.5674
      1443.9984
 04  9  3 15 51 30.0010000  0  6G20G11G14G 1G22G25
    -97063.60257    -69730.19152  24576428.3564   24576425.8534

  -4889897.39149  -3799098.87145  22052581.1384   22052577.7354
       488.9714
   8109031.03949   6309754.41046  21776688.9274   21776686.1224
     -2870.7794
  -7175336.97748  -5589555.93044  22605863.7244   22605862.4784
      1640.3934
  10459904.06648   8136796.95744  23644931.5914   23644928.9074
     -3232.1654
  -7557167.13349  -5871800.69146  21900550.1224   21900548.4814
      1437.1134
 04  9  3 15 51 45.0010000  0  6G20G11G14G 1G22G25
   -131185.07047    -96318.35242  24569935.1854   24569932.7744
      2274.7654
  -4897106.91048  -3804716.68445  22051208.9744   22051205.9784
       480.6354
   8152149.76249   6343353.40646  21784894.2944   21784891.3214
     -2874.5824
  -7199875.64149  -5608676.95344  22601194.7784   22601193.1494
      1635.9114
  10508423.47748   8174604.26643  23654164.6694   23654161.5564
     -3234.6274
  -7578619.03948  -5888516.45746  21896467.8964   21896466.0054
      1430.1274
 04  9  3 15 52  0.0010000  0  6G20G11G14G 1G22G25
   -165306.13746   -122906.18442  24563441.5134   24563439.8724
      2274.7384
  -4904191.95748  -3810237.50045  22049860.7474   22049857.8764
       472.3364
   8195324.44149   6376996.00445  21793110.1064   21793107.2044
     -2878.3124
  -7224347.71549  -5627746.09444  22596537.7244   22596536.3684
      1631.4724
  10556979.01648   8212439.72743  23663404.0524   23663401.5364
     -3237.0364
  -7599966.64848  -5905150.95345  21892405.7784   21892403.7314
      1423.1744
 04  9  3 15 52 15.0010000  0  6G20G11G14G 1G22G25
   -199429.71146   -149495.95742  24556948.4744   24556945.7944
      2274.9054
  -4911155.30948  -3815663.49645  22048535.8254   22048533.0484
       464.2234
   8238551.98049   6410679.78945  21801335.6694   21801333.5444
     -2881.8364
  -7248756.01648  -5646765.53944  22591892.8564   22591892.1534
      1627.2204
  10605567.84448   8250301.11743  23672650.3644   23672647.7394
     -3239.2554
  -7621212.68748  -5921706.30145  21888362.9424   21888360.7904
      1416.4034
 04  9  3 15 52 30.0010000  0  6G20G11G14G 1G22G25
   -233553.87946   -176086.19142  24550454.0914   24550452.0834
      2274.9454
  -4917994.95348  -3820993.09045  22047234.2554   22047231.1614
       455.9764
   8281833.93849   6444405.98046  21809572.2634   21809569.3414
     -2885.4644
  -7273098.78949  -5665733.93044  22587260.4114   22587259.3494
      1622.8524
  10654191.63348   8288189.75043  23681903.6304   23681900.2744
     -3241.5864
  -7642355.13748  -5938180.93746  21884339.6384   21884337.2124
      1409.4974
 04  9  3 15 52 45.0010000  0  6G20G11G14G 1G22G25
   -267677.10246   -202675.68442  24543960.8964   24543959.2244
      2274.8824
  -4924709.39848  -3826225.12945  22045956.5284   22045953.2314
       447.6304
   8325171.63349   6478175.59446  21817819.3104   21817816.3884
     -2889.1804
  -7297374.53548  -5684650.07844  22582641.1614   22582639.8724
      1618.3834
  10702851.74648   8326106.69143  23691163.2084   23691159.6884
     -3244.0084
  -7663392.44148  -5954573.63346  21880336.3564   21880334.3844
      1402.4874
 04  9  3 15 53  0.0010000  0  6G20G11G14G 1G22G25
   -301799.91046   -229264.85942  24537468.2474   24537466.3924
      2274.8544
  -4931299.19549  -3831360.03945  22044702.5214   22044699.2714
       439.3204
   8368564.02349   6511987.83645  21826076.3724   21826073.7904
     -2892.8264
  -7321583.93448  -5703514.53944  22578034.0284   22578032.9974
      1613.9604
  10751547.40248   8364051.33643  23700429.0364   23700426.3494
     -3246.3774
  -7684325.09048  -5970884.77746  21876352.7944   21876350.7744
      1395.5104
 04  9  3 15 53 15.0010000  0  6G20G11G14G 1G22G25
   -335920.77046   -255852.52042  24530974.5674   24530973.1224
      2274.7244
  -4937762.74248  -3836396.57045  22043472.4274   22043469.2474
       430.9034
   8412012.30949   6545843.62946  21834344.6384   21834341.7394
     -2896.5524
  -7345725.46548  -5722326.10544  22573439.9814   22573438.6614
      1609.4354
  10800280.09848   8402024.85543  23709703.4354   23709699.9384
     -3248.8464
  -7705151.16048  -5987112.87546  21872389.8414   21872387.5874
      1388.4054
 04  9  3 15 53 30.0010000  0  6G20G11G14G 1G22G25
   -370039.26647   -282438.32042  24524483.1694   24524480.9584
      2274.5664
  -4944099.52049  -3841334.32845  22042266.7244   22042263.1854
       422.4524
   8455516.59049   6579743.06345  21842622.9894   21842620.0634
     -2900.2854
  -7369798.77349  -5741084.52044  22568859.3334   22568857.7164
      1604.8874
  10849050.09048   8440027.42643  23718983.4974   23718980.8684
     -3251.3334
  -7725870.09448  -6003257.49646  21868446.7944   21868444.7474
      1381.2624
 04  9  3 15 53 45.0010000  0  6G20G11G14G 1G22G25
   -404157.39547   -309023.86742  24517990.3254   24517988.8994
      2274.5424
  -4950311.54748  -3846174.87145  22041084.8414   22041080.4744
       414.1354
   8499074.55549   6613684.32446  21850911.8804   21850908.7944
     -2903.8644
  -7393805.89148  -5759791.35944  22564290.8254   22564289.3724
      1600.4744
  10897855.28948   8478057.41843  23728271.3964   23728268.1144
     -3253.6804
  -7746483.78948  -6019320.11346  21864524.5994   21864522.2904
      1374.2464
 04  9  3 15 54  0.0010000  0  6G20G11G14G 1G22G25
   -438271.93047   -335606.60942  24511498.5604   24511497.1654
      2274.3024
  -4956395.32048  -3850915.48445  22039926.9974   22039923.1064
       405.5854
   8542689.12149   6647669.69145  21859211.0674   21859208.4234
     -2907.6384
  -7417743.58249  -5778444.09844  22559735.4814   22559734.1144
      1595.8464
  10946698.77748   8516117.25443  23737565.9744   23737563.0484
     -3256.2334
  -7766988.96948  -6035298.16846  21860622.6304   21860620.2714
      1367.0124
 04  9  3 15 54 15.0020000  0  6G20G11G14G 1G22G25
   -472385.04747   -362188.25042  24505006.8304   24505005.0804
      2274.2084
  -4962351.31248  -3855556.52745  22038794.0254   22038789.7174
       397.0664
   8586362.92649   6681701.21145  21867522.1584   21867519.4204
     -2911.5874
  -7441613.43448  -5797043.98044  22555193.2444   22555191.7564
      1591.3234
  10995583.72348   8554209.38344  23746868.8544   23746865.6584
     -3258.9964
  -7787386.89548  -6051192.66446  21856740.7914   21856738.7684
      1359.8624
 04  9  3 15 54 30.0020000  0  6G20G11G14G 1G22G25
   -506490.92248   -388764.24642  24498516.9634   24498514.7684
      2273.7254
  -4968177.27049  -3860096.24245  22037684.8934   22037681.8774
       388.3974
   8630091.10249   6715775.10545  21875843.4944   21875840.5644
     -2915.2124
  -7465411.07448  -5815587.59044  22550664.5574   22550663.2714
      1586.5094
  11044504.73048   8592329.61743  23756177.2444   23756175.1114
     -3261.4014
  -7807673.30149  -6067000.24246  21852880.5884   21852878.2684
      1352.4274
 04  9  3 15 54 45.0020000  0  6G20G11G14G 1G22G25
   -540593.25847   -415337.49242  24492027.7604   24492024.9244
      2273.4894
  -4973875.12948  -3864536.13745  22036600.7834   22036597.4514
       379.8574
   8673874.68049   6749892.17246  21884175.2684   21884172.3224
     -2918.9054
  -7489139.56649  -5834077.31244  22546149.5334   22546147.7914
      1581.8994
  11093463.43848   8630479.22343  23765494.3144   23765491.3464
     -3263.9144
  -7827850.92248  -6082723.05946  21849040.9864   21849038.3464
      1345.1754
 04  9  3 15 55  0.0020000  0  6G20G11G14G 1G22G25
   -574693.76247   -441909.30942  24485538.6584   24485536.0644
      2273.3674
  -4979446.42248  -3868877.40245  22035540.5414   22035537.4084
       371.4204
   8717711.97349   6784051.08246  21892517.3464   21892514.4944
     -2922.4864
  -7512800.56249  -5852514.45344  22541646.9394   22541645.4824
      1577.4004
  11142458.16848   8668656.91443  23774817.3544   23774814.7444
     -3266.3154
  -7847921.24648  -6098362.27046  21845221.6744   21845219.3384
      1338.0224
 04  9  3 15 55 15.0020000  0  6G20G11G14G 1G22G25
   -608791.50846   -468478.96942  24479049.8774   24479047.8344
      2273.1834
  -4984890.06648  -3873119.21545  22034504.3774   22034501.6314
       362.9104
   8761603.55949   6818252.30545  21900869.6354   21900866.6234
     -2926.1064
  -7536393.19949  -5870898.32044  22537157.2364   22537156.1004
      1572.8424
  11191489.68448   8706863.24243  23784148.7754   23784144.8184
     -3268.7684
  -7867883.11348  -6113916.96145  21841422.9084   21841420.5374
      1330.7914
 04  9  3 15 55 30.0020000  0  6G20G11G14G 1G22G25
   -642885.98846   -495046.09442  24472561.5494   24472559.1434
      2272.9654
  -4990205.79748  -3877261.35245  22033492.6434   22033489.7684
       354.3824
   8805549.37549   6852495.78945  21909232.2294   21909229.1974
     -2929.7214
  -7559917.16449  -5889228.67244  22532681.0104   22532679.7914
      1568.2644
  11240558.21148   8745098.42243  23793485.4084   23793482.3464
     -3271.2354
  -7887736.01648  -6129386.75446  21837645.6894   21837642.3424
      1323.5274
 04  9  3 15 55 45.0020000  0  6G20G11G14G 1G22G25
   -676977.96946   -521611.28942  24466073.9244   24466071.1864
      2272.7994
  -4995394.02048  -3881304.12945  22032505.5334   22032502.7094
       345.8824
   8849548.47749   6886780.80145  21917604.8304   21917601.4794
     -2933.2734
  -7583373.14148  -5907506.04344  22528217.4474   22528216.0724
      1563.7324
  11289663.05548   8783361.91843  23802830.1584   23802826.2954
     -3273.6564
  -7907480.57848  -6144772.12546  21833888.1044   21833885.1394
      1316.3044
 04  9  3 15 56  0.0020000  0  6G20G11G14G 1G22G25
   -711067.33246   -548174.42242  24459586.7914   24459584.5684
      2272.6244
  -5000454.70748  -3885247.52745  22031542.6744   22031539.7794
       337.3794
   8893600.59049   6921107.10945  21925987.4634   21925985.0064
     -2936.8084
  -7606761.09849  -5925730.40644  22523767.1974   22523765.6824
      1559.1974
  11338804.14848   8821653.65643  23812181.0644   23812177.7254
     -3276.0734
  -7927116.57848  -6160072.89846  21830151.2684   21830148.7404
      1309.0674
 04  9  3 15 56 15.0020000  0  6G20G11G14G 1G22G25
   -745152.20746   -574734.05542  24453099.8694   24453098.3224
      2272.3254
  -5005385.97748  -3889090.07845  22030604.1894   22030601.1894
       328.7514
   8937707.31349   6955475.97745  21934380.7444   21934377.5764
     -2940.4484
  -7630079.19549  -5943900.34844  22519329.3074   22519328.1274
      1554.5404
  11387983.33248   8859975.06343  23821539.4714   23821536.0614
     -3278.6124
  -7946642.14148  -6175287.61346  21826435.5184   21826433.0254
      1301.7044
 04  9  3 15 56 30.0020000  0  6G20G11G14G 1G22G25
   -779232.98845   -601290.50442  24446615.0644   24446613.1894
      2272.0524
  -5010188.35548  -3892832.19945  22029690.2294   22029687.3074
       320.1594
   8981867.78549   6989886.71545  21942784.4634   21942781.4434
     -2944.0324
  -7653328.03548  -5962016.31244  22514905.4944   22514904.3424
      1549.9234
  11437199.75448   8898325.49243  23830905.3144   23830901.9324
     -3281.0954
  -7966057.42648  -6190416.40245  21822740.7294   21822738.5614
      1294.3524
 04  9  3 15 56 45.0020000  0  6G20G11G14G 1G22G25
   -813310.31645   -627844.25042  24440130.1114   24440128.6824
      2271.8224
  -5014862.28148  -3896474.22345  22028800.8774   22028798.4754
       311.5954
   9026081.05549   7024338.60945  21951197.6664   21951194.8574
     -2947.5514
  -7676508.21549  -5980078.78144  22510494.0024   22510492.5764
      1545.3454
  11486452.75848   8936704.43043  23840278.1274   23840274.9204
     -3283.5344
  -7985362.82048  -6205459.56646  21819067.3854   21819064.5334
      1287.0264
 04  9  3 15 57  0.0020000  0  6G20G11G14G 1G22G25
   -847385.44145   -654396.28942  24433645.5644   24433645.0184
      2271.6754
  -5019408.94948  -3900017.09045  22027935.7684   22027932.8654
       303.1114
   9070345.66449   7058830.50445  21959621.1114   21959617.9904
     -2950.9744
  -7699621.05549  -5998088.77044  22506095.9084   22506094.8034
      1540.8564
  11535741.07848   8975110.89143  23849657.2134   23849653.7404
     -3285.8884
  -8004559.68448  -6220418.15245  21815414.1664   21815411.7874
      1279.7914
 04  9  3 15 57 15.0020000  0  6G20G11G14G 1G22G25
   -881455.89546   -680944.66042  24427162.6194   24427161.0644
      2271.3644
  -5023825.79748  -3903458.79745  22027095.5964   22027092.5184
       294.4574
   9114663.59849   7093363.95345  21968054.6744   21968051.8814
     -2954.5294
  -7722664.21949  -6016044.47344  22501710.9554   22501709.8304
      1536.2114
  11585066.90248   9013546.57043  23859043.5254   23859040.2644
     -3288.3884
  -8023645.47348  -6235290.19146  21811782.1434   21811779.7484
      1272.3864
 04  9  3 15 57 30.0020000  0  6G20G11G14G 1G22G25
   -915524.46946   -707491.59842  24420679.8074   24420678.2524
      2271.2384
  -5028115.83649  -3906801.68745  22026278.9164   22026275.7754
       286.0034
   9159031.91049   7127936.66045  21976497.7214   21976494.7684
     -2957.8874
  -7745640.47749  -6033948.04744  22497338.9554   22497337.4944
      1531.7514
  11634427.37548   9052009.23843  23868436.5184   23868433.6664
     -3290.6984
  -8042622.69949  -6250077.62946  21808170.9004   21808168.9324
      1265.1484
 04  9  3 15 57 45.0020000  0  6G20G11G14G 1G22G25
   -949588.50046   -734034.97342  24414198.1894   24414196.0724
      2270.9354
  -5032276.40249  -3910043.69145  22025487.2054   22025483.5764
       277.3714
   9203452.84049   7162550.35245  21984950.6274   21984948.0414
     -2961.3954
  -7768547.27749  -6051797.49245  22492979.9324   22492978.4474
      1527.1204
  11683824.88348   9090500.78943  23877836.6044   23877833.8114
     -3293.1674
  -8061488.69149  -6264778.39546  21804580.6584   21804578.8304
      1257.7334
 04  9  3 15 58  0.0020000  0  6G20G11G14G 1G22G25
   -983649.28146   -760575.83642  24407716.1434   24407714.6274
      2270.7194
  -5036308.42248  -3913185.52745  22024719.9944   22024716.8074
       268.8014
   9247924.83649   7197203.84445  21993413.6354   21993410.7684
     -2964.8004
  -7791385.83649  -6069593.77044  22488634.1114   22488632.1704
      1522.5714
  11733258.18448   9129020.20343  23887243.5414   23887240.4674
     -3295.5534
  -8080244.50048  -6279393.30546  21801011.8304   21801009.5964
      1250.3874
 04  9  3 15 58 15.0020000  0  6G20G11G14G 1G22G25
  -1017704.07046   -787112.00842  24401236.0644   24401234.2324
      2270.3194
  -5040209.23049  -3916225.12145  22023977.6114   22023974.3774
       260.0544
   9292450.28549   7231898.99645  22001886.1584   22001884.0254
     -2968.3634
  -7814153.56649  -6087334.85245  22484301.3304   22484299.3964
      1517.8494
  11782729.75048   9167569.45343  23896657.1114   23896654.5884
     -3298.1044
  -8098887.36749  -6293920.21146  21797464.2684   21797462.0064
      1242.8584
 04  9  3 15 58 30.0020000  0  6G20G11G14G 1G22G25
  -1051754.17246   -813644.55542  24394756.5494   24394754.5454
      2270.0074
  -5043980.20749  -3919163.54745  22023260.1354   22023257.0724
       251.3984
   9337027.50449   7266634.48045  22010369.0964   22010366.3424
     -2971.8154
  -7836851.85248  -6105021.83244  22479982.0024   22479980.0724
      1513.2194
  11832238.24648   9206147.47343  23906078.7294   23906076.1934
     -3300.5664
  -8117418.32049  -6308359.90246  21793937.9474   21793935.7404
      1235.3974
 04  9  3 15 58 45.0020000  0  6G20G11G14G 1G22G25
  -1085797.48046   -840171.77342  24388278.0804   24388276.2794
      2269.5544
  -5047619.04748  -3921999.01245  22022567.5184   22022564.3614
       242.5894
   9381658.44549   7301411.82045  22018861.6044   22018859.5374
     -2975.3964
  -7859478.55549  -6122653.01244  22475676.1354   22475674.5334
      1508.4474
  11881785.57848   9244755.74243  23915506.9864   23915504.5024
     -3303.1554
  -8135835.21948  -6322710.72746  21790433.3144   21790430.8894
      1227.7934
 04  9  3 15 59  0.0020000  0  6G20G11G14G 1G22G25
  -1119835.30546   -866694.74242  24381800.6824   24381798.9674
      2269.1884
  -5051127.40249  -3924732.80145  22021900.0644   22021896.9204
       233.8904
   9426341.14849   7336229.50045  22027364.6744   22027362.1234
     -2978.8474
  -7882035.28149  -6140229.66844  22471383.7134   22471382.1394
      1503.7824
  11931370.10548   9283393.01243  23924942.4714   23924940.2954
     -3305.6354
  -8154139.63749  -6336973.90646  21786949.6664   21786947.3654
      1220.2954
 04  9  3 15 59 15.0020000  0  6G20G11G14G 1G22G25
  -1153868.10546   -893213.77742  24375324.3854   24375322.3224
      2268.8534
  -5054505.56649  -3927365.14545  22021257.4164   22021254.3034
       225.2114
   9471075.02749   7371087.06345  22035877.2994   22035874.4594
     -2982.2594
  -7904522.42649  -6157752.11345  22467104.6664   22467103.2054
      1499.1434
  11980991.41848   9322058.94543  23934385.0104   23934382.5574
     -3308.0874
  -8172331.69949  -6351149.53146  21783488.2684   21783485.9634
      1212.8044
 04  9  3 15 59 30.0020000  0  6G20G11G14G 1G22G25
  -1187896.82446   -919729.64842  24368848.9794   24368847.0724
      2268.5814
  -5057754.31249  -3929896.63745  22020638.9794   22020636.0104
       216.5834
   9515858.82849   7405983.51645  22044399.6974   22044397.1154
     -2985.5874
  -7926940.95749  -6175221.09844  22462838.3774   22462836.9594
      1494.5694
  12030648.36748   9360752.64543  23943834.7834   23943832.1584
     -3310.4634
  -8190412.24249  -6365238.25446  21780047.4244   21780045.4754
      1205.3704
 04  9  3 15 59 45.0020000  0  6G20G11G14G 1G22G25
  -1221919.11746   -946240.53142  24362374.9714   24362372.0724
      2268.1534
  -5060871.38749  -3932325.53145  22020045.7364   22020042.6074
       207.8054
   9560694.45749   7440920.35945  22052931.1974   22052928.8034
     -2989.0424
  -7949288.66849  -6192634.89144  22458585.6824   22458584.6354
      1489.8474
  12080343.12548   9399475.78943  23953291.7294   23953288.5064
     -3312.9844
  -8208378.84849  -6379238.20346  21776628.3384   21776626.5574
      1197.7744
 04  9  3 16  0  0.0020000  0  6G20G11G14G 1G22G25
  -1255936.66847   -972747.71942  24355901.7134   24355897.6314
      2267.8374
  -5063858.45349  -3934653.11345  22019477.2914   22019474.1114
       199.1384
   9605579.97749   7475896.07445  22061473.2054   22061469.9864
     -2992.3684
  -7971567.28549  -6209994.84844  22454346.4394   22454344.7834
      1485.2414
  12130073.84048   9438226.95743  23962755.2444   23962752.2404
     -3315.3814
  -8226233.05949  -6393150.57046  21773231.0184   21773229.0414
      1190.2814
 04  9  3 16  0 15.0020000  0  6G20G11G14G 1G22G25
  -1289948.60947   -999250.52342  24349428.9714   24349425.9434
      2267.4634
  -5066714.85249  -3936878.87945  22018933.7294   22018930.7444
       190.4274
   9650515.70349   7510910.91445  22070023.8074   22070020.8934
     -2995.7154
  -7993776.28949  -6227300.55544  22450119.7364   22450118.8574
      1480.6004
  12179841.07448   9477006.59043  23972225.5104   23972221.8934
     -3317.8164
  -8243974.18049  -6406974.81246  21769855.0964   21769852.9984
      1182.7414
 04  9  3 16  0 30.0020000  0  6G20G11G14G 1G22G25
  -1323954.83647  -1025748.86742  24342957.5494   24342954.9474
      2267.0824
  -5069440.09449  -3939002.44945  22018414.8464   22018412.2994
       181.6834
   9695501.71549   7545964.94545  22078584.6274   22078581.7604
     -2999.0674
  -8015915.34048  -6244551.74244  22445906.9244   22445906.2094
      1475.9374
  12229645.05148   9515814.84843  23981703.3694   23981699.9594
     -3320.2654
  -8261601.65249  -6420710.50446  21766500.5884   21766498.5494
      1175.1654
 04  9  3 16  0 45.0020000  0  6G20G11G14G 1G22G25
  -1357956.07847  -1052243.35542  24336487.5494   24336484.9394
      2266.7494
  -5072035.05949  -3941024.50845  22017921.2684   22017918.2834
       172.9984
   9740536.74249   7581057.16845  22087154.6664   22087151.4674
     -3002.3354
  -8037985.30548  -6261749.10245  22441706.8774   22441705.8144
      1471.3314
  12279484.78548   9554650.96543  23991187.2834   23991184.6704
     -3322.6494
  -8279116.12149  -6434358.13746  21763167.4554   21763165.6354
      1167.6314
 04  9  3 16  1  0.0020000  0  6G20G11G14G 1G22G25
  -1391952.73047  -1078734.24242  24330018.5574   24330015.9714
      2266.4434
  -5074500.10949  -3942945.33646  22017452.4084   22017449.1544
       164.3374
   9785620.11749   7616187.06645  22095733.6354   22095730.4714
     -3005.5584
  -8059986.71549  -6278893.05145  22437520.9244   22437519.3574
      1466.7614
  12329359.71948   9593514.49643  24000678.5884   24000674.7874
     -3324.9964
  -8296518.03549  -6447918.05946  21759856.4164   21759853.8264
      1160.1284
 04  9  3 16  1 15.0020000  0  6G20G11G14G 1G22G25
  -1425940.68047  -1105218.35942  24323550.5574   24323548.4514
      2265.8634
  -5076831.26649  -3944761.82446  22017008.8304   22017005.9714
       155.4104
   9830755.66849   7651357.61745  22104322.5644   22104319.6464
     -3009.0374
  -8081915.44149  -6295980.35545  22433347.4244   22433346.1504
      1461.9154
  12379273.82848   9632408.59443  24010176.6194   24010173.8464
     -3327.6074
  -8313803.15249  -6461386.97746  21756566.8384   21756564.7994
      1152.3414
 04  9  3 16  1 30.0020000  0  6G20G11G14G 1G22G25
  -1459920.93047  -1131696.45742  24317084.6894   24317082.3654
      2265.3504
  -5079029.41449  -3946474.68045  22016590.2054   22016587.3464
       146.5434
   9875942.08649   7686567.79345  22112920.6744   22112918.4394
     -3012.4284
  -8103772.57049  -6313011.88345  22429188.8544   22429186.6624
      1457.1424
  12429226.04348   9671332.35243  24019682.3074   24019679.4864
     -3330.1484
  -8330972.50449  -6474765.68046  21753299.8544   21753297.3734
      1144.6234
 04  9  3 16  1 45.0020000  0  6G20G11G14G 1G22G25
  -1493892.69947  -1158167.95742  24310620.5104   24310617.3504
      2264.7854
  -5081093.73449  -3948083.24646  22016197.7754   22016194.5764
       137.6214
   9921179.82048   7721817.96545  22121529.5494   22121526.7874
     -3015.8494
  -8125557.41049  -6329987.07445  22425043.3934   22425041.4674
      1452.3234
  12479216.86348   9710286.19943  24029195.6114   24029191.6434
     -3332.7214
  -8348025.12549  -6488053.43446  21750054.8224   21750052.5924
      1136.8414
 04  9  3 16  2  0.0020000  0  6G20G11G14G 1G22G25
  -1527857.14547  -1184633.74242  24304156.8224   24304154.6074
      2264.2964
  -5083025.34849  -3949588.40645  22015830.2134   22015827.1114
       128.7744
   9966467.40249   7757106.97745  22130147.4244   22130144.9554
     -3019.1724
  -8147271.23449  -6346906.92644  22420910.9084   22420909.2564
      1447.5884
  12529245.07448   9749269.18443  24038715.3614   24038711.7714
     -3335.2144
  -8364961.92649  -6501250.93446  21746831.5964   21746829.3264
      1129.1204
 04  9  3 16  2 15.0020000  0  6G20G11G14G 1G22G25
  -1561814.11347  -1211093.68042  24297694.9244   24297692.6074
      2263.7984
  -5084824.26249  -3950990.16045  22015487.0804   22015484.6544
       119.9284
  10011804.63349   7792434.68045  22138775.2214   22138772.6354
     -3022.4824
  -8168913.94949  -6363771.37145  22416792.3774   22416790.7174
      1442.8484
  12579310.59448   9788281.24243  24048242.3384   24048239.1074
     -3337.7014
  -8381782.73449  -6514358.04746  21743631.2994   21743628.5764
      1121.3874
 04  9  3 16  2 30.0020000  0  6G20G11G14G 1G22G25
  -1595765.57047  -1237549.36342  24291234.7214   24291231.9554
      2263.4304
  -5086492.37149  -3952289.99245  22015170.4084   22015167.4674
       111.2074
  10057189.19949   7827799.26245  22147411.1354   22147408.5804
     -3025.6384
  -8190487.53148  -6380581.94544  22412687.1274   22412685.7644
      1438.2394
  12629411.40648   9827320.80143  24057776.2684   24057772.9044
     -3340.0544
  -8398489.53549  -6527376.33646  21740451.6434   21740449.4794
      1113.7874
 04  9  3 16  2 45.0020000  0  6G20G11G14G 1G22G25
  -1629710.02047  -1263999.55542  24284775.2054   24284772.2834
      2262.9634
  -5088028.07049  -3953486.64545  22014878.1274   22014874.8614
       102.3804
  10102622.25049   7863201.62945  22156056.9944   22156054.7684
     -3028.8704
  -8211990.58249  -6397337.55545  22408595.0104   22408593.4164
      1433.5374
  12679548.80548   9866388.87143  24067317.0964   24067314.3574
     -3342.4934
  -8415080.64849  -6540304.46146  21737294.4714   21737292.3224
      1106.0744
 04  9  3 16  3  0.0020000  0  6G20G11G14G 1G22G25
  -1663647.31647  -1290444.18742  24278317.1044   24278314.5024
      2262.4864
  -5089431.39149  -3954580.15645  22014610.6974   22014608.0764
        93.5554
  10148103.58249   7898641.61345  22164711.8544   22164709.8384
     -3032.0894
  -8233423.14149  -6414038.24645  22404516.8224   22404515.1934
      1428.8374
  12729722.62948   9905485.30943  24076864.8854   24076861.9794
     -3344.9224
  -8431555.87949  -6553142.30546  21734159.4004   21734157.2684
      1098.3494
 04  9  3 16  3 15.0020000  0  6G20G11G14G 1G22G25
  -1697576.80947  -1316882.73442  24271859.6194   24271857.8934
      2261.9664
  -5090701.58649  -3955569.92245  22014369.5104   22014366.5494
        84.6804
  10193633.51649   7934119.47345  22173376.0574   22173373.4674
     -3035.3294
  -8254784.57849  -6430683.51245  22400451.7834   22400450.2684
      1424.0964
  12779933.58248   9944610.69543  24086419.5644   24086416.5534
     -3347.3974
  -8447914.55949  -6565889.32446  21731046.5104   21731044.2404
      1090.5794
 04  9  3 16  3 30.0020000  0  6G20G11G14G 1G22G25
  -1731500.48847  -1343316.75042  24265404.3854   24265402.6354
      2261.5794
  -5091840.64849  -3956457.51245  22014152.5254   22014149.8114
        75.9384
  10239209.78549   7969633.43045  22182049.0964   22182046.5184
     -3038.4184
  -8276076.91049  -6447274.93445  22396399.9324   22396398.7754
      1419.4894
  12830179.50848   9983763.30943  24095981.0254   24095978.6544
     -3349.7284
  -8464158.62149  -6578547.02746  21727955.2604   21727953.0024
      1082.9384
 04  9  3 16  3 45.0020000  0  6G20G11G14G 1G22G25
  -1765418.21947  -1369746.14842  24258950.0184   24258948.2954
      2261.1824
  -5092848.42649  -3957242.79746  22013960.7994   22013957.8304
        67.1854
  10284832.21149   8005183.35945  22190730.4864   22190728.0144
     -3041.4954
  -8297300.17649  -6463812.53545  22392361.4244   22392360.0184
      1414.8844
  12880460.27348  10022943.09843  24105549.6434   24105546.2214
     -3352.0514
  -8480287.80549  -6591115.21546  21724885.8774   21724883.9474
      1075.2794
 04  9  3 16  4  0.0020000  0  6G20G11G14G 1G22G25
  -1799328.68747  -1396169.89142  24252497.6974   24252494.6824
      2260.6984
  -5093723.79749  -3957924.91445  22013794.3464   22013790.9434
        58.3584
  10330501.64849   8040769.92645  22199421.2994   22199418.7604
     -3044.6294
  -8318453.18048  -6480295.39145  22388335.6044   22388334.4324
      1410.2004
  12930776.88348  10062150.80543  24115124.6114   24115121.2714
     -3354.4414
  -8496300.77349  -6603592.84446  21721838.5574   21721836.6664
      1067.5314
 04  9  3 16  4 15.0020000  0  6G20G11G14G 1G22G25
  -1833229.51247  -1422586.09842  24246046.3074   24246043.2054
      2260.0554
  -5094464.37549  -3958501.99245  22013653.3464   22013649.9714
        49.3724
  10376220.14549   8076394.71145  22208120.8774   22208118.4824
     -3047.9004
  -8339533.62948  -6496721.70345  22384324.2444   22384323.0964
      1405.3634
  12981131.72748  10101388.31343  24124707.1584   24124703.2214
     -3356.9904
  -8512195.17249  -6615978.07846  21718814.0964   21718812.1934
      1059.6274
 04  9  3 16  4 30.0020000  0  6G20G11G14G 1G22G25
  -1867122.39847  -1448996.12542  24239597.0804   24239593.6784
      2259.5264
  -5095071.78549  -3958975.31245  22013537.7684   22013534.2604
        40.4944
  10421985.78549   8112056.23445  22216830.0804   22216827.5964
     -3051.0434
  -8360543.22349  -6513092.80545  22380326.1044   22380325.5214
      1400.6404
  13031522.96948  10140654.18443  24134296.3304   24134292.4554
     -3359.4164
  -8527972.56649  -6628272.14146  21715811.9554   21715809.8934
      1051.8264
 04  9  3 16  4 45.0020000  0  6G20G11G14G 1G22G25
  -1901009.04747  -1475401.31642  24233148.0334   24233144.8504
      2259.1104
  -5095547.73449  -3959346.18445  22013447.6274   22013443.9594
        31.7304
  10467796.50849   8147752.89545  22225547.3614   22225545.0184
     -3054.0484
  -8381483.81649  -6529410.14845  22376341.8464   22376340.5254
      1396.0404
  13081948.67248  10179946.90643  24143891.2054   24143888.9084
     -3361.7144
  -8543634.57449  -6640476.29746  21712831.2754   21712829.3574
      1044.1344
 04  9  3 16  5  0.0020000  0  6G20G11G14G 1G22G25
  -1934887.94547  -1501800.45742  24226701.2134   24226698.3894
      2258.5934
  -5095890.64849  -3959613.40245  22013381.7294   22013378.7794
        22.8614
  10513653.50449   8183485.60245  22234273.9794   22234271.3814
     -3057.1334
  -8402353.92649  -6545672.55945  22372370.4864   22372369.0334
      1391.3414
  13132410.29348  10219267.60943  24153494.2054   24153491.6584
     -3364.1084
  -8559179.51649  -6652589.23846  21709873.4084   21709871.2324
      1036.3294
 04  9  3 16  5 15.0020000  0  6G20G11G14G 1G22G25
  -1968758.48847  -1528193.06242  24220256.1354   24220252.5644
      2258.0364
  -5096100.12949  -3959776.63345  22013342.0804   22013338.8344
        13.9654
  10559556.93849   8219254.49245  22243009.0644   22243006.5614
     -3060.2294
  -8423153.07049  -6561879.68045  22368412.5024   22368411.1044
      1386.6104
  13182908.34448  10258616.71142  24163103.7684   24163101.1234
     -3366.5374
  -8574606.75849  -6664610.46946  21706937.5104   21706935.6664
      1028.4834
 04  9  3 16  5 30.0020000  0  6G20G11G14G 1G22G25
  -2002619.19947  -1554578.02742  24213812.3384   24213809.6464
      2257.3814
  -5096174.76249  -3959834.80145  22013327.6114   22013324.8504
         4.9764
  10605508.07848   8255060.56345  22251753.4794   22251750.4984
     -3063.4094
  -8443879.93049  -6578030.47345  22364468.1354   22364466.5104
      1381.7914
  13233443.93848  10297995.04343  24172720.0494   24172716.9244
     -3369.0404
  -8589914.87149  -6676538.86346  21704024.7444   21704022.6004
      1020.5414
 04  9  3 16  5 45.0020000  0  6G20G11G14G 1G22G25
  -2036470.19147  -1580955.42242  24207370.7914   24207368.1744
      2256.7334
  -5096114.58249  -3959787.91445  22013339.1274   22013336.2134
        -4.0124
  10651506.37948   8290903.37945  22260506.3854   22260503.8774
     -3066.5534
  -8464534.61349  -6594125.01245  22360537.7524   22360536.3854
      1376.9794
  13284016.83248  10337402.46543  24182343.9864   24182340.9984
     -3371.5264
  -8605103.86349  -6688374.43746  21701134.2214   21701132.6744
      1012.5994
 04  9  3 16  6  0.0020000  0  6G20G11G14G 1G22G25
  -2070313.59847  -1607326.88742  24200930.9004   24200928.2364
      2256.2274
  -5095921.85548  -3959637.73845  22013375.7914   22013373.0724
       -12.8484
  10697549.28148   8326780.95745  22269268.0884   22269265.0454
     -3069.5274
  -8485119.41848  -6610165.12945  22356620.3074   22356618.9394
      1372.3204
  13334624.62948  10376837.07843  24191974.5024   24191970.8654
     -3373.8534
  -8620175.84449  -6700118.82846  21698266.1194   21698263.9944
      1004.7994
 04  9  3 16  6 15.0020000  0  6G20G11G14G 1G22G25
  -2104148.23447  -1633691.54342  24194491.6974   24194489.7484
      2255.6424
  -5095595.45348  -3959383.40645  22013437.9244   22013435.5104
       -21.7604
  10743637.67248   8362693.97745  22278038.3144   22278035.4004
     -3072.5594
  -8505633.36349  -6626150.00845  22352716.8074   22352715.1784
      1367.5964
  13385268.38748  10416299.71143  24201611.7294   24201608.4864
     -3376.2514
  -8635129.63749  -6711771.12546  21695420.3464   21695418.2214
       996.9204
 04  9  3 16  6 30.0020000  0  6G20G11G14G 1G22G25
  -2137975.37547  -1660050.33642  24188055.0254   24188052.0884
      2255.1434
  -5095136.41448  -3959025.71145  22013525.3774   22013522.1664
       -30.6034
  10789770.14848   8398641.34845  22286816.9164   22286814.5414
     -3075.4984
  -8526077.62949  -6642080.59445  22348826.0964   22348824.6044
      1362.9514
  13435946.81648  10455789.37543  24211255.3074   24211252.7014
     -3378.5624
  -8649966.28149  -6723332.14146  21692597.0884   21692595.3894
       989.1104
 04  9  3 16  6 45.0020000  0  6G20G11G14G 1G22G25
  -2171792.37947  -1686401.24642  24181619.7684   24181616.9514
      2254.4674
  -5094542.24648  -3958562.74245  22013638.5644   22013635.6584
       -39.6114
  10835949.05548   8434624.89845  22295604.6974   22295602.0294
     -3078.5944
  -8546449.72349  -6657954.94145  22344949.7524   22344948.2684
      1358.1404
  13486662.40248  10495307.97743  24220906.0724   24220903.6154
     -3381.0394
  -8664683.05948  -6734799.75046  21689796.7054   21689794.4944
       981.1184
 04  9  3 16  7  0.0020000  0  6G20G11G14G 1G22G25
  -2205599.80947  -1712744.69542  24175186.3854   24175184.1464
      2253.8294
  -5093813.66848  -3957995.02045  22013776.9394   22013773.9514
       -48.5724
  10882173.27048   8470643.75845  22304401.1114   22304398.0374
     -3081.6144
  -8566750.40649  -6673773.65645  22341086.6744   22341084.9794
      1353.3794
  13537414.21148  10534854.80943  24230563.4394   24230561.5884
     -3383.4544
  -8679280.60948  -6746174.46146  21687019.0804   21687016.5684
       973.1704
 04  9  3 16  7 15.0020000  0  6G20G11G14G 1G22G25
  -2239399.37147  -1739081.98042  24168754.5254   24168752.4244
      2253.3044
  -5092952.37548  -3957323.89545  22013941.1664   22013937.8774
       -57.4204
  10928440.83248   8506696.39845  22313205.4634   22313202.4164
     -3084.5044
  -8586981.37549  -6689538.03945  22337236.6974   22337235.4864
      1348.7314
  13588200.55147  10574428.55143  24240227.6664   24240225.6664
     -3385.7564
  -8693760.63348  -6757457.59046  21684263.3384   21684261.1314
       965.3354
 04  9  3 16  7 30.0020000  0  6G20G11G14G 1G22G25
  -2273190.48447  -1765412.69942  24162324.4944   24162322.0684
      2252.7414
  -5091957.83249  -3956548.93045  22014130.1894   22014126.9124
       -66.3034
  10974751.98848   8542782.99245  22322017.7364   22322015.4164
     -3087.4104
  -8607142.22349  -6705247.78145  22333400.3074   22333398.8344
      1344.0574
  13639021.74248  10614029.43442  24249899.2444   24249896.5064
     -3388.0794
  -8708122.50049  -6768648.64146  21681530.5104   21681528.3854
       957.4584
 04  9  3 16  7 45.0020000  0  6G20G11G14G 1G22G25
  -2306970.22747  -1791734.56242  24155896.4794   24155894.0414
      2251.9834
  -5090827.00848  -3955667.77745  22014345.5494   22014341.9044
       -75.3884
  11021109.36748   8578905.61345  22330839.1584   22330836.7994
     -3090.4924
  -8627229.94549  -6720900.54745  22329577.5964   22329576.4474
      1339.1824
  13689880.59448  10653659.67642  24259577.0964   24259574.5924
     -3390.5904
  -8722363.11348  -6779745.21546  21678820.3544   21678818.3694
       949.3744
 04  9  3 16  8  0.0020000  0  6G20G11G14G 1G22G25
  -2340737.96547  -1818047.06242  24149470.6744   24149467.9554
      2251.1834
  -5089559.38748  -3954680.03145  22014586.8224   22014583.4284
       -84.5084
  11067513.24248   8615064.47345  22339669.7364   22339666.8734
     -3093.5924
  -8647244.19949  -6736496.06245  22325769.3384   22325767.6544
      1334.2844
  13740777.40648  10693319.49242  24269262.7364   24269259.5214
     -3393.1214
  -8736481.85948  -6790746.82446  21676133.5104   21676130.8694
       941.2504
 04  9  3 16  8 15.0020000  0  6G20G11G14G 1G22G25
  -2374497.61347  -1844353.25442  24143046.0804   24143043.8694
      2250.6434
  -5088159.10548  -3953588.90245  22014853.1354   22014849.8304
       -93.3524
  11113959.19548   8651256.11345  22348508.1894   22348505.5374
     -3096.3974
  -8667189.12149  -6752037.55545  22321973.5494   22321971.9434
      1329.6614
  13791708.09848  10733005.71542  24278954.3464   24278951.2214
     -3395.3794
  -8750482.59448  -6801656.48846  21673469.4554   21673466.9284
       933.3824
 04  9  3 16  8 30.0020000  0  6G20G11G14G 1G22G25
  -2408248.53547  -1870652.66842  24136624.0334   24136621.6934
      2250.0614
  -5086625.57848  -3952393.95746  22015144.9634   22015141.7214
      -102.2354
  11160447.62148   8687480.84445  22357354.6584   22357351.6584
     -3099.2284
  -8687064.05149  -6767524.50845  22318191.6274   22318190.1154
      1324.9954
  13842673.21948  10772718.75843  24288652.9554   24288649.9754
     -3397.6754
  -8764364.59848  -6812473.62946  21670827.6664   21670825.0844
       925.4674
 04  9  3 16  8 45.0020000  0  6G20G11G14G 1G22G25
  -2441988.83247  -1896943.78543  24130203.1274   24130200.9474
      2249.3534
  -5084956.80949  -3951093.62546  22015462.5574   22015459.5374
      -111.2514
  11206980.18448   8723739.97345  22366209.2524   22366206.7014
     -3102.1714
  -8706867.16049  -6782955.49245  22314423.4554   22314421.6154
      1320.2074
  13893674.52748  10812460.00443  24298358.1434   24298355.7324
     -3400.0874
  -8778126.03948  -6823196.81646  21668209.2754   21668206.9514
       917.4294
 04  9  3 16  9  0.0020000  0  6G20G11G14G 1G22G25
  -2475718.63748  -1923226.73843  24123784.8144   24123782.3734
      2248.6544
  -5083152.93448  -3949688.01245  22015805.5334   22015802.8144
      -120.2584
  11253556.39548   8760033.11345  22375072.5644   22375070.1504
     -3105.0814
  -8726598.68449  -6798330.70345  22310668.5964   22310666.9754
      1315.4354
  13944711.78548  10852229.25843  24308070.6744   24308067.4674
     -3402.4844
  -8791766.91049  -6833826.05546  21665613.6504   21665610.7484
       909.3914
 04  9  3 16  9 15.0020000  0  6G20G11G14G 1G22G25
  -2509437.26647  -1949500.97343  24117368.1194   24117365.2714
      2247.9094
  -5081213.36348  -3948176.66045  22016174.6824   22016172.2294
      -129.3054
  11300176.62948   8796360.54745  22383944.2054   22383941.5184
     -3108.0164
  -8746258.05149  -6813649.68445  22306927.4244   22306925.8934
      1310.6244
  13995785.52348  10892026.93843  24317789.4714   24317786.5884
     -3404.9164
  -8805286.56249  -6844360.84046  21663040.7604   21663038.2564
       901.3104
 04  9  3 16  9 30.0020000  0  6G20G11G14G 1G22G25
  -2543144.87947  -1975766.64842  24110953.5804   24110951.3774
      2247.1744
  -5079138.28548  -3946559.73045  22016569.5494   22016567.0534
      -138.3394
  11346840.44148   8832721.94145  22392823.9004   22392821.6194
     -3110.9214
  -8765845.48449  -6828912.60945  22303200.1824   22303198.6044
      1305.8294
  14046895.37548  10931852.77043  24327515.2604   24327512.1044
     -3407.3234
  -8818685.09048  -6854801.25046  21660490.9324   21660488.8344
       893.2354
 04  9  3 16  9 45.0020000  0  6G20G11G14G 1G22G25
  -2576842.55147  -2002024.55142  24104541.0884   24104538.0804
      2246.5114
  -5076928.90648  -3944838.14145  22016990.0254   22016987.7134
      -147.2924
  11393546.14848   8869115.98845  22401711.8144   22401709.5144
     -3113.7144
  -8785362.28548  -6844120.49645  22299485.9394   22299484.5924
      1301.1204
  14098039.83647  10971705.55142  24337247.6974   24337244.9754
     -3409.6314
  -8831963.64148  -6865148.16846  21657964.3774   21657962.2054
       885.2374
 04  9  3 16 10  0.0020000  0  6G20G11G14G 1G22G25
  -2610530.93747  -2028275.25842  24098130.8464   24098127.7014
      2245.8924
  -5074585.94148  -3943012.46945  22017436.1504   22017433.3574
      -156.1984
  11440292.96548   8905542.06345  22410607.6044   22410605.2794
     -3116.4544
  -8804809.15649  -6859273.89545  22295785.6114   22295783.6544
      1296.4584
  14149218.10947  11011584.68442  24346986.2994   24346983.7914
     -3411.8854
  -8845122.69949  -6875401.97346  21655460.1434   21655457.5844
       877.2714
 04  9  3 16 10 15.0020000  0  6G20G11G14G 1G22G25
  -2644209.23047  -2054518.06642  24091721.8464   24091719.0684
      2245.2204
  -5072108.50048  -3941082.00445  22017907.5724   22017904.7794
      -165.1634
  11487081.30548   8942000.50045  22419510.8464   22419508.3184
     -3119.2234
  -8824185.39549  -6874372.26245  22292098.3694   22292096.6044
      1291.7494
  14200431.05147  11051490.82442  24356731.9394   24356729.0574
     -3414.1964
  -8858161.50048  -6885562.06646  21652978.9394   21652976.5534
       869.2534
 04  9  3 16 10 30.0020000  0  6G20G11G14G 1G22G25
  -2677876.71947  -2080752.47742  24085315.1274   24085312.2834
      2244.4994
  -5069495.98449  -3939046.27046  22018404.4394   22018401.7914
      -174.1684
  11533911.56348   8978491.59845  22428421.9944   22428419.7794
     -3122.0174
  -8843490.40649  -6889415.11745  22288424.4634   22288422.8774
      1287.0014
  14251679.10548  11091424.34842  24366484.1434   24366481.2324
     -3416.5374
  -8871079.30949  -6895627.88346  21650520.8304   21650518.6004
       861.1874
 04  9  3 16 10 45.0020000  0  6G20G11G14G 1G22G25
  -2711532.41447  -2106977.69142  24078910.1274   24078907.4284
      2243.7134
  -5066747.57848  -3936904.66845  22018927.8774   22018924.8264
      -183.2274
  11580784.45748   9015015.91444  22437342.3464   22437339.6194
     -3124.8604
  -8862723.32449  -6904401.80545  22284764.5884   22284763.4164
      1282.1954
  14302963.12147  11131385.86742  24376243.5184   24376240.8034
     -3418.9344
  -8883875.02348  -6905598.56246  21648085.4084   21648083.5494
       853.0484
 04  9  3 16 11  0.0020000  0  6G20G11G14G 1G22G25
  -2745179.02747  -2133195.81242  24072507.4714   24072505.1744
      2243.1084
  -5063866.03948  -3934659.32046  22019475.9244   22019473.0104
      -192.1034
  11627696.90248   9051571.04745  22446269.4474   22446267.2444
     -3127.4964
  -8881886.94549  -6919334.48845  22281117.8774   22281117.0184
      1277.5754
  14354280.10548  11171373.10542  24386009.2134   24386005.6894
     -3421.1324
  -8896551.30548  -6915476.18046  21645673.6434   21645671.2714
       845.0854
 04  9  3 16 11 15.0020000  0  6G20G11G14G 1G22G25
  -2778814.96146  -2159405.61742  24066106.3774   24066104.8034
      2242.3964
  -5060849.83248  -3932309.03546  22020050.0254   22020047.0374
      -201.0804
  11674650.05948   9088157.91045  22455204.1114   22455201.6744
     -3130.2104
  -8900979.89148  -6934212.09845  22277484.4944   22277483.5844
      1272.8634
  14405631.53148  11211387.17243  24395780.9084   24395778.0764
     -3423.4284
  -8909106.64548  -6925259.55146  21643284.2364   21643282.0214
       837.0234
 04  9  3 16 11 30.0020000  0  6G20G11G14G 1G22G25
  -2812437.20747  -2185604.75042  24059708.1114   24059706.2094
      2241.4834
  -5057695.80149  -3929851.35245  22020650.3774   22020647.0764
      -210.2694
  11721646.85948   9124778.78144  22464147.5884   22464145.1394
     -3133.1204
  -8919999.03949  -6949032.20345  22273865.4634   22273864.3654
      1267.9434
  14457020.36348  11251430.37542  24405559.4164   24405557.1234
     -3425.9224
  -8921537.80548  -6934946.15646  21640918.6974   21640916.6074
       828.7444
 04  9  3 16 11 45.0020000  0  6G20G11G14G 1G22G25
  -2846048.42247  -2211795.29742  24053312.0724   24053310.3734
      2240.7484
  -5054406.84848  -3927288.54745  22021276.2524   22021273.1044
      -219.2644
  11768684.00048   9161431.07845  22473098.4084   22473095.3464
     -3135.8094
  -8938947.32449  -6963797.09445  22270259.6274   22270258.5294
      1263.2194
  14508443.60548  11291500.39543  24415345.0724   24415342.6464
     -3428.2164
  -8933847.56248  -6944538.17646  21638575.9864   21638573.4164
       820.6514
 04  9  3 16 12  0.0020000  0  6G20G11G14G 1G22G25
  -2879648.21947  -2237976.93442  24046919.3144   24046916.5844
      2239.9864
  -5050982.76649  -3924620.43745  22021927.9394   22021924.8694
      -228.2724
  11815761.64148   9198114.94144  22482056.8934   22482054.0024
     -3138.5094
  -8957824.58249  -6978506.64145  22266667.6114   22266665.6114
      1258.4844
  14559901.40248  11331597.33242  24425137.2684   24425134.4864
     -3430.5204
  -8946035.60248  -6954035.34046  21636256.5644   21636254.3574
       812.5364
 04  9  3 16 12 15.0020000  0  6G20G11G14G 1G22G25
  -2913235.84447  -2264149.09443  24040527.2294   24040525.4864
      2239.1754
  -5047422.80948  -3921846.45345  22022605.3304   22022602.0334
      -237.3304
  11862880.12548   9234830.64145  22491023.6194   22491020.7014
     -3141.2324
  -8976630.08249  -6993160.27345  22263088.7754   22263087.1544
      1253.7004
  14611394.33248  11371721.65643  24434936.3544   24434933.6044
     -3432.8624
  -8958101.07048  -6963436.99646  21633960.7604   21633958.2444
       804.3654
 04  9  3 16 12 30.0020000  0  6G20G11G14G 1G22G25
  -2946809.41048  -2290310.30143  24034138.3384   24034137.3224
      2238.2384
  -5043725.06248  -3918965.10246  22023308.8694   22023305.9594
      -246.5164
  11910041.26248   9271579.56345  22499997.7294   22499995.2954
     -3144.0764
  -8995362.00449  -7007756.56245  22259524.2214   22259522.3184
      1248.7954
  14662924.19947  11411874.75443  24444742.2524   24444739.9864
     -3435.3244
  -8970042.09448  -6972741.68046  21631688.5184   21631686.1074
       796.0684
 04  9  3 16 12 45.0020000  0  6G20G11G14G 1G22G25
  -2980368.73847  -2316460.41843  24027752.6824   24027750.7834
      2237.2894
  -5039889.50849  -3915976.36346  22024038.7524   22024035.8224
      -255.7044
  11957244.74248   9308361.48044  22508980.2294   22508977.6504
     -3146.8994
  -9014020.28949  -7022295.48045  22255973.7134   22255971.9904
      1243.8864
  14714490.99248  11452056.64143  24454555.0494   24454552.6744
     -3437.7864
  -8981858.50449  -6981949.26246  21629440.1044   21629437.2444
       787.7614
 04  9  3 16 13  0.0020000  0  6G20G11G14G 1G22G25
  -3013916.37947  -2342601.43043  24021369.1744   24021366.8034
      2236.5094
  -5035918.85249  -3912882.35546  22024794.4164   22024791.3854
      -264.7104
  12004487.61348   9345174.09444  22517970.2214   22517967.7524
     -3149.5254
  -9032607.74249  -7036779.20745  22252436.7914   22252435.0334
      1239.1644
  14766091.93447  11492265.12943  24464374.1044   24464371.8224
     -3440.0634
  -8993552.80949  -6991061.69546  21627214.8854   21627212.2754
       779.6204
 04  9  3 16 13 15.0020000  0  6G20G11G14G 1G22G25
  -3047449.26647  -2368730.93743  24014987.9944   24014985.8114
      2235.5264
  -5031809.83249  -3909680.53146  22025576.1584   22025573.7684
      -273.9354
  12051772.77049   9382019.64844  22526968.5724   22526965.9044
     -3152.3444
  -9051121.20349  -7051205.27745  22248913.6194   22248911.3424
      1234.2314
  14817730.05147  11532502.59042  24474200.2214   24474197.9754
     -3442.5414
  -9005121.75449  -7000076.45746  21625013.1274   21625011.0764
       771.2634
 04  9  3 16 13 30.0020000  0  6G20G11G14G 1G22G25
  -3080970.00447  -2394850.98043  24008608.9794   24008607.1004
      2234.7164
  -5027565.38349  -3906373.17245  22026383.7294   22026381.3774
      -282.9634
  12099097.24649   9418895.85944  22535974.1664   22535971.4164
     -3154.9654
  -9069563.51249  -7065575.91045  22245404.1504   22245402.0804
      1229.4874
  14869402.34047  11572766.65643  24484033.4714   24484030.7324
     -3444.8194
  -9016568.12549  -7008995.69546  21622835.1194   21622833.0534
       763.0914
 04  9  3 16 13 45.0020000  0  6G20G11G14G 1G22G25
  -3114478.54747  -2420961.52043  24002232.5884   24002230.5844
      2233.9034
  -5023185.58648  -3902960.35245  22027217.3144   22027214.8074
      -291.9864
  12146460.60949   9455802.35945  22544987.0414   22544984.2404
     -3157.5584
  -9087934.82049  -7079891.21545  22241908.2834   22241906.3034
      1224.7544
  14921108.63747  11613057.21942  24493872.8464   24493870.2254
     -3447.0864
  -9027891.97749  -7017819.46546  21620680.2754   21620678.3464
       754.9234
 04  9  3 16 14  0.0020000  0  6G20G11G14G 1G22G25
  -3147975.38747  -2447062.94942  23995858.5334   23995855.8654
      2233.1234
  -5018670.79748  -3899442.34046  22028076.4084   22028073.7404
      -300.9864
  12193862.15649   9492738.61745  22554007.3384   22554004.7714
     -3160.1034
  -9106235.59849  -7094151.55545  22238425.8934   22238423.7444
      1220.0524
  14972848.41048  11653373.88342  24503719.3224   24503715.6784
     -3449.3184
  -9039093.50048  -7026547.92246  21618548.9714   21618546.4984
       746.7684
 04  9  3 16 14 15.0020000  0  6G20G11G14G 1G22G25
  -3181460.22747  -2473155.02742  23989485.7294   23989484.4674
      2232.3234
  -5014020.91449  -3895819.06245  22028961.2444   22028958.5684
      -309.9924
  12241301.76649   9529704.53144  22563034.8224   22563031.8734
     -3162.6414
  -9124465.71949  -7108356.83645  22234956.6194   22234954.7754
      1215.3414
  15024621.73848  11693716.69942  24513571.8074   24513568.7214
     -3451.5554
  -9050172.50449  -7035180.90246  21616440.6664   21616438.2684
       738.6004
 04  9  3 16 14 30.0020000  0  6G20G11G14G 1G22G25
  -3214931.66847  -2499236.67242  23983117.1114   23983114.8854
      2231.4294
  -5009234.74248  -3892089.59046  22029871.8614   22029869.1864
      -319.0784
  12288780.39849   9566700.85944  22572069.7214   22572066.6274
     -3165.2424
  -9142624.07849  -7122506.20345  22231501.6114   22231499.6314
      1210.5574
  15076429.66047  11734086.48442  24523429.7364   24523426.7094
     -3453.8614
  -9061127.78549  -7043717.47347  21614355.8464   21614353.3224
       730.3524
 04  9  3 16 14 45.0020000  0  6G20G11G14G 1G22G25
  -3248387.97347  -2525306.50442  23976749.7294   23976748.1464
      2230.4204
  -5004310.47349  -3888252.50046  22030809.1044   22030806.4204
      -328.2854
  12336299.65649   9603728.84044  22581111.6114   22581109.6974
     -3167.9514
  -9160708.91449  -7136598.28545  22228059.7834   22228058.4284
      1205.6564
  15128273.93047  11774484.56642  24533295.2364   24533292.2294
     -3456.2854
  -9071957.41049  -7052156.14146  21612294.8854   21612292.5214
       721.9754
 04  9  3 16 15  0.0020000  0  6G20G11G14G 1G22G25
  -3281830.21146  -2551365.39542  23970386.2604   23970383.9164
      2229.4834
  -4999249.26248  -3884308.69946  22031772.4244   22031769.5334
      -337.4144
  12383858.01649   9640787.28544  22590162.2214   22590159.9944
     -3170.5574
  -9178721.52048  -7150634.06645  22224632.2914   22224630.9284
      1200.8404
  15180153.15247  11814909.89142  24543167.4714   24543164.3734
     -3458.6154
  -9082662.64149  -7060497.87146  21610257.4864   21610255.2754
       713.6824
 04  9  3 16 15 15.0020000  0  6G20G11G14G 1G22G25
  -3315261.04747  -2577415.37943  23964024.3934   23964022.7094
      2228.7224
  -4994053.98448  -3880260.43745  22032760.9244   22032758.2174
      -346.3524
  12431452.59449   9677873.94944  22599219.2444   22599216.8144
     -3172.9724
  -9196664.59849  -7164615.68745  22221217.5254   22221216.5104
      1196.2054
  15232064.59448  11855360.33642  24553046.7604   24553042.8774
     -3460.7634
  -9093246.03549  -7068744.66446  21608243.6114   21608241.1004
       705.5604
 04  9  3 16 15 30.0020000  0  6G20G11G14G 1G22G25
  -3348679.32047  -2603455.57843  23957665.2364   23957663.1314
      2227.8854
  -4988723.45749  -3876106.78546  22033775.4324   22033772.5104
      -355.3684
  12479084.19149   9714989.46944  22608282.9714   22608280.9124
     -3175.4404
  -9214536.96549  -7178542.19945  22217816.6194   22217815.4284
      1191.4914
  15284009.24247  11895836.66042  24562930.2684   24562927.8344
     -3462.9774
  -9103706.30549  -7076895.50846  21606253.1114   21606250.4474
       697.3514
 04  9  3 16 15 45.0020000  0  6G20G11G14G 1G22G25
  -3382083.18747  -2629484.55542  23951308.7364   23951306.5804
      2226.9244
  -4983256.00849  -3871846.45346  22034815.7604   22034812.9634
      -364.4974
  12526754.23449   9752134.94144  22617354.3074   22617352.0574
     -3178.0034
  -9232337.06249  -7192412.39145  22214429.1504   22214428.4324
      1186.6734
  15335988.63747  11936340.03942  24572822.4244   24572819.3464
     -3465.2934
  -9114041.63749  -7084949.02046  21604286.2214   21604283.8694
       689.0224
 04  9  3 16 16  0.0020000  0  6G20G11G14G 1G22G25
  -3415474.40647  -2655503.67643  23944954.4474   23944952.5334
      2226.0814
  -4977653.49649  -3867480.85946  22035881.8224   22035878.8144
      -373.5014
  12574460.60549   9789308.72744  22626432.9004   22626430.3964
     -3180.4254
  -9250066.84849  -7206227.79745  22211055.3464   22211054.1004
      1181.9864
  15388000.86747  11976869.00042  24582720.2524   24582716.9004
     -3467.4824
  -9124253.91449  -7092906.63346  21602343.2364   21602340.5214
       680.8184
 04  9  3 16 16 15.0020000  0  6G20G11G14G 1G22G25
  -3448851.94948  -2681512.13343  23938603.0104   23938600.9714
      2225.1704
  -4971915.04749  -3863009.35246  22036974.1044   22036970.8964
      -382.5634
  12622204.00449   9826511.35945  22635518.4164   22635515.1894
     -3182.8934
  -9267725.45349  -7219987.74245  22207695.4244   22207693.8544
      1177.2404
  15440046.71547  12017424.16442  24592624.3384   24592621.0294
     -3469.7234
  -9134342.19949  -7100767.62946  21600423.2834   21600420.9674
       672.5524
 04  9  3 16 16 30.0020000  0  6G20G11G14G 1G22G25
  -3482216.00448  -2707510.10243  23932254.2294   23932252.2564
      2224.2704
  -4966040.94949  -3858432.14546  22038091.9324   22038088.5574
      -391.6074
  12669983.90248   9863742.44545  22644610.0254   22644607.5494
     -3185.3274
  -9285313.20749  -7233692.48445  22204348.3934   22204346.7254
      1172.5174
  15492125.76247  12058005.19542  24602534.2914   24602531.9284
     -3471.9364
  -9144306.69549  -7108532.16046  21598526.9164   21598524.7174
       664.3004
 04  9  3 16 16 45.0020000  0  6G20G11G14G 1G22G25
  -3515566.55548  -2733497.52743  23925907.8934   23925906.1394
      2223.3704
  -4960031.15248  -3853749.18745  22039235.5414   22039232.2444
      -400.6534
  12717800.07449   9901001.78144  22653709.4004   22653706.8694
     -3187.7454
  -9302830.15249  -7247342.04345  22201014.9794   22201013.2404
      1167.7964
  15544237.86747  12098611.96942  24612450.8934   24612448.0924
     -3474.1404
  -9154147.35248  -7116200.19546  21596654.4554   21596652.1154
       656.0444
 04  9  3 16 17  0.0020000  0  6G20G11G14G 1G22G25
  -3548901.15247  -2759472.54743  23919564.4944   23919562.2444
      2222.3074
  -4953883.53549  -3848958.84846  22040405.2364   22040402.1394
      -409.8414
  12765654.57049   9938290.98444  22662815.5884   22662813.1434
     -3190.3004
  -9320274.11749  -7260934.73845  22197695.5574   22197693.9904
      1162.9314
  15596385.16847  12139246.22742  24622374.2604   24622371.0494
     -3476.4874
  -9163861.68049  -7123769.78146  21594805.7444   21594803.4594
       647.6224
 04  9  3 16 17 15.0020000  0  6G20G11G14G 1G22G25
  -3582220.21547  -2785435.43743  23913224.0104   23913221.4004
      2221.2714
  -4947598.53549  -3844061.44946  22041601.4714   22041597.8384
      -419.0004
  12813546.71149   9975609.52044  22671929.4554   22671926.9004
     -3192.8094
  -9337645.52349  -7274470.89545  22194389.9634   22194388.1784
      1158.0944
  15648567.32447  12179907.60542  24632304.3694   24632302.1664
     -3478.8104
  -9173450.02349  -7131241.21546  21592981.2364   21592978.9084
       639.2234
 04  9  3 16 17 30.0020000  0  6G20G11G14G 1G22G25
  -3615524.50447  -2811386.81643  23906886.9164   23906883.9364
      2220.2864
  -4941177.04749  -3839057.71146  22042823.1114   22042819.9864
      -428.0994
  12861475.29749  10012956.45344  22681049.9554   22681047.2214
     -3195.2394
  -9354945.21949  -7287951.16045  22191097.6044   22191095.9904
      1153.3134
  15700783.28547  12220595.32042  24642240.5574   24642237.8574
     -3481.0644
  -9182913.20349  -7138615.11346  21591180.5804   21591178.1314
       630.8794
 04  9  3 16 17 45.0020000  0  6G20G11G14G 1G22G25
  -3648815.88747  -2837328.14842  23900550.9794   23900548.3304
      2219.4264
  -4934621.03549  -3833949.13346  22044071.0414   22044067.8934
      -437.0674
  12909438.04349  10050330.01244  22690176.4794   22690174.4824
     -3197.5164
  -9372175.35249  -7301377.23845  22187819.1664   22187817.9044
      1148.6764
  15753030.82047  12261307.63342  24652183.3774   24652179.8384
     -3483.1694
  -9192253.16049  -7145892.99646  21589403.2364   21589400.9004
       622.6644
 04  9  3 16 18  0.0020000  0  6G20G11G14G 1G22G25
  -3682092.54347  -2863258.00043  23894219.1274   23894216.0574
      2218.4444
  -4927928.69148  -3828734.32446  22045344.4944   22045341.6394
      -446.1564
  12957436.53149  10087731.41044  22699310.6584   22699308.4824
     -3199.8994
  -9389334.08649  -7314747.67245  22184554.0104   22184552.4004
      1143.9164
  15805311.68847  12302045.94942  24662132.1744   24662128.2794
     -3485.3914
  -9201468.05948  -7153073.42646  21587649.7604   21587647.3464
       614.3274
 04  9  3 16 18 15.0020000  0  6G20G11G14G 1G22G25
  -3715354.84448  -2889176.66042  23887889.2134   23887885.9824
      2217.4874
  -4921100.60248  -3823413.74246  22046643.6044   22046641.0214
      -455.2064
  13005470.11749  10125160.15644  22708451.1354   22708448.8424
     -3202.2394
  -9406421.96149  -7328062.89546  22181302.2834   22181300.7054
      1139.1924
  15857625.29347  12342809.77042  24672086.9004   24672084.6274
     -3487.5744
  -9210558.30149  -7160156.72346  21585919.7914   21585917.5214
       606.0164
 04  9  3 16 18 30.0020000  0  6G20G11G14G 1G22G25
  -3748600.14547  -2915082.08242  23881562.8774   23881560.0024
      2216.3534
  -4914134.19549  -3817985.37946  22047969.3464   22047966.6114
      -464.4274
  13053541.05948  10162618.02044  22717598.9474   22717596.4514
     -3204.7294
  -9423436.45349  -7341320.93745  22178064.5334   22178062.7644
      1134.2994
  15909974.18847  12383601.05942  24682048.6744   24682046.1664
     -3489.9264
  -9219521.16449  -7167140.77046  21584214.3854   21584211.8384
       597.5244
 04  9  3 16 18 45.0020000  0  6G20G11G14G 1G22G25
  -3781829.54747  -2940975.10543  23875239.2364   23875235.9864
      2215.2934
  -4907030.73448  -3812450.21946  22049320.9634   22049318.2794
      -473.5644
  13101647.89548  10200103.84844  22726753.2994   22726750.7524
     -3207.1224
  -9440378.93049  -7354522.85546  22174840.4714   22174838.5764
      1129.4984
  15962356.87946  12424418.69542  24692017.1274   24692013.8894
     -3492.1794
  -9228357.94549  -7174026.56646  21582532.9394   21582530.0144
       589.1194
 04  9  3 16 19  0.0020000  0  6G20G11G14G 1G22G25
  -3815043.21148  -2966855.87142  23868919.1114   23868915.9474
      2214.2444
  -4899790.46149  -3806808.45746  22050698.8854   22050695.7214
      -482.6854
  13149790.19149  10237617.30544  22735914.3774   22735912.1434
     -3209.4864
  -9457249.56649  -7367668.80545  22171629.8774   22171628.5294
      1124.7094
  16014773.09847  12465262.46142  24701991.4794   24701989.1934
     -3494.4154
  -9237068.79749  -7180814.23446  21580874.9324   21580872.6274
       580.7234
 04  9  3 16 19 15.0020000  0  6G20G11G14G 1G22G25
  -3848238.74248  -2992722.50843  23862602.1894   23862598.8814
      2213.0354
  -4892411.21948  -3801058.40246  22052102.8774   22052099.9514
      -491.9494
  13197970.01648  10275160.01644  22745082.8464   22745080.6974
     -3211.9884
  -9474046.22749  -7380757.10245  22168433.5804   22168432.1354
      1119.7774
  16067224.90646  12506133.96142  24711972.3934   24711970.0294
     -3496.7874
  -9245651.27349  -7187501.87546  21579241.7214   21579239.4794
       572.1654
 04  9  3 16 19 30.0020000  0  6G20G11G14G 1G22G25
  -3881415.21548  -3018574.30942  23856289.0414   23856285.6624
      2211.7654
  -4884892.08248  -3795199.34446  22053534.0104   22053530.7684
      -501.2764
  13246187.93848  10312732.40644  22754258.3144   22754255.4944
     -3214.5284
  -9490768.10949  -7393787.14145  22165251.5494   22165250.0254
      1114.7924
  16119713.19146  12547033.89542  24721960.1894   24721958.3544
     -3499.2194
  -9254104.69149  -7194088.94946  21577633.1044   21577630.8304
       563.5614
 04  9  3 16 19 45.0020000  0  6G20G11G14G 1G22G25
  -3914571.98048  -3044410.73443  23849980.0724   23849976.3574
      2210.4514
  -4877232.57848  -3789230.90245  22054991.4554   22054988.2364
      -510.6344
  13294444.15648  10350334.63344  22763440.6974   22763438.4204
     -3217.0814
  -9507414.79349  -7406758.57045  22162083.8774   22162082.1704
      1109.7794
  16172238.32046  12587962.49242  24731955.4794   24731953.1744
     -3501.6754
  -9262428.38349  -7200574.93446  21576049.1274   21576046.8544
       554.9134
 04  9  3 16 20  0.0020000  0  6G20G11G14G 1G22G25
  -3947709.96148  -3070232.53543  23843673.9714   23843670.3654
      2209.1994
  -4869433.69948  -3783153.86345  22056475.2364   22056472.1934
      -519.9254
  13342737.48848  10387965.78144  22772631.1044   22772628.5374
     -3219.5554
  -9523987.31649  -7419672.21945  22158930.1194   22158928.8144
      1104.8354
  16224799.16846  12628918.95742  24741957.6434   24741954.5104
     -3504.0574
  -9270623.21549  -7206960.51246  21574489.6584   21574487.1194
       546.3224
 04  9  3 16 20 15.0020000  0  6G20G11G14G 1G22G25
  -3980828.59848  -3096039.25843  23837371.5804   23837368.2714
      2207.9094
  -4861495.08249  -3776967.93045  22057986.5804   22057983.1074
      -529.2414
  13391068.17649  10425626.03544  22781828.3144   22781825.6044
     -3222.0464
  -9540485.14149  -7432527.66445  22155790.9244   22155789.1234
      1099.8554
  16277396.17645  12669903.59842  24751966.7914   24751962.7404
     -3506.4674
  -9278688.71949  -7213245.31246  21572954.7684   21572952.3224
       537.7004
 04  9  3 16 20 30.0020000  0  6G20G11G14G 1G22G25
  -4013928.06648  -3121831.04343  23831072.7524   23831069.7604
      2206.6314
  -4853417.04749  -3770673.37145  22059523.3934   22059520.2364
      -538.5364
  13439435.57448  10463314.90244  22791032.2684   22791029.4674
     -3224.4934
  -9556908.70349  -7445325.23845  22152665.6894   22152663.5924
      1094.9044
  16330028.80145  12710915.97342  24761982.8464   24761978.9204
     -3508.8424
  -9286625.12949  -7219429.51646  21571444.7444   21571441.9364
       529.0944
 04  9  3 16 20 45.0020000  0  6G20G11G14G 1G22G25
  -4047007.86748  -3147607.50443  23824778.1434   23824774.8934
      2205.3204
  -4845199.31649  -3764269.94546  22061087.2444   22061084.1434
      -547.8494
  13487839.88749  10501032.52744  22800243.6504   22800240.7644
     -3226.9544
  -9573257.62949  -7458064.64545  22149554.2684   22149552.3504
      1089.9284
  16382697.32846  12751956.36742  24772004.7994   24772001.4904
     -3511.2354
  -9294431.91049  -7225512.72346  21569958.9794   21569956.3424
       520.4524
 04  9  3 16 21  0.0020000  0  6G20G11G14G 1G22G25
  -4080071.37548  -3173371.27743  23818486.0574   23818483.4084
      2204.2344
  -4836845.34449  -3757760.36345  22062676.7754   22062673.7404
      -556.9324
  13536277.37948  10538776.01644  22809460.2134   22809458.1704
     -3229.1664
  -9589535.50449  -7470748.69545  22146456.6974   22146454.6934
      1085.1924
  16435398.27046  12793021.98842  24782034.1824   24782030.6624
     -3513.3964
  -9302112.52049  -7231497.60246  21568497.2684   21568495.0294
       512.0414
 04  9  3 16 21 15.0020000  0  6G20G11G14G 1G22G25
  -4113116.15248  -3199120.42643  23812197.6434   23812195.3034
      2202.9854
  -4828352.73049  -3751142.75445  22064293.1584   22064290.2714
      -566.1744
  13584750.38348  10576547.16844  22818685.0804   22818682.4554
     -3231.5344
  -9605739.86349  -7483375.46145  22143373.2444   22143371.3304
      1080.2914
  16488133.80146  12834114.56642  24792069.5414   24792066.3654
     -3515.7024
  -9309664.45349  -7237382.21546  21567060.3224   21567058.1624
       503.4624
 04  9  3 16 21 30.0020000  0  6G20G11G14G 1G22G25
  -4146141.94148  -3224854.79743  23805913.1354   23805910.6934
      2201.7194
  -4819721.30949  -3744416.97745  22065935.4634   22065932.6744
      -575.4284
  13633258.71148  10614345.85944  22827915.5254   22827913.2364
     -3233.8894
  -9621870.66449  -7495944.91445  22140303.6044   22140301.5924
      1075.3874
  16540904.11546  12875234.22342  24802110.6584   24802108.6074
     -3518.0214
  -9317087.48049  -7243166.39146  21565647.6894   21565645.4204
       494.8684
 04  9  3 16 21 45.0020000  0  6G20G11G14G 1G22G25
  -4179149.42248  -3250574.89143  23799631.2364   23799629.9434
      2200.4994
  -4810952.15649  -3737583.87946  22067604.3144   22067601.5064
      -584.6104
  13681801.20749  10652171.16044  22837152.5644   22837150.2484
     -3236.1664
  -9637928.84849  -7508457.77045  22137247.5574   22137245.9984
      1070.5464
  16593708.08246  12916380.13742  24812159.0644   24812157.7954
     -3520.2644
  -9324382.53549  -7248850.84046  21564259.5104   21564257.4674
       486.3374
 04  9  3 16 22  0.0020000  0  6G20G11G14G 1G22G25
  -4212137.85248  -3276280.14843  23793354.2994   23793352.5334
      2199.2294
  -4802044.50449  -3730642.86346  22069299.2214   22069296.4084
      -593.8434
  13730378.39149  10690023.49244  22846396.8934   22846394.2564
     -3238.4794
  -9653913.80149  -7520913.57445  22134205.7214   22134203.8694
      1065.6644
  16646546.39546  12957552.81642  24822214.3224   24822211.9944
     -3522.5544
  -9331548.90249  -7254435.02046  21562896.0024   21562893.4824
       477.7584
 04  9  3 16 22 15.0020000  0  6G20G11G14G 1G22G25
  -4245108.09448  -3301971.22343  23787079.7994   23787078.3614
      2198.0164
  -4792999.50849  -3723594.81246  22071020.1974   22071017.5144
      -603.0004
  13778989.08649  10727901.93844  22855647.3694   22855644.8934
     -3240.7134
  -9669826.47349  -7533313.04345  22131177.8774   22131175.8774
      1060.8454
  16699417.87146  12998751.34042  24832275.3934   24832272.6704
     -3524.7654
  -9338587.33249  -7259919.50446  21561556.6504   21561554.4594
       469.2294
 04  9  3 16 22 30.0020000  0  6G20G11G14G 1G22G25
  -4278060.73848  -3327648.59043  23780808.9634   23780807.5804
      2196.8434
  -4783817.76649  -3716440.22345  22072767.7994   22072764.9004
      -612.1164
  13827632.28949  10765805.71544  22864903.8854   22864901.0064
     -3242.8804
  -9685667.62549  -7545656.79345  22128163.2294   22128161.2564
      1056.0774
  16752321.77746  13039975.11342  24842342.7604   24842339.8504
     -3526.9274
  -9345498.59849  -7265304.89846  21560241.3544   21560239.0144
       460.7514
 04  9  3 16 22 45.0020000  0  6G20G11G14G 1G22G25
  -4310996.00448  -3353312.43043  23774542.1114   23774539.7524
      2195.6844
  -4774499.67249  -3709179.37545  22074540.7134   22074537.8264
      -621.2064
  13876307.49649  10803734.43844  22874166.2834   22874163.6704
     -3245.0144
  -9701437.62949  -7557945.09845  22125162.3144   22125160.4324
      1051.3344
  16805257.68446  13081223.84842  24852416.2444   24852413.6234
     -3529.0604
  -9352282.88749  -7270591.34846  21558950.2834   21558948.1744
       452.2864
 04  9  3 16 23  0.0020000  0  6G20G11G14G 1G22G25
  -4343912.91448  -3378961.96943  23768277.9864   23768275.8964
      2194.4614
  -4765044.49249  -3701811.71146  22076340.0884   22076337.0214
      -630.3454
  13925015.32849  10841688.56344  22883435.1114   22883432.4714
     -3247.1894
  -9717135.70349  -7570177.35545  22122175.1974   22122173.2874
      1046.5384
  16858226.31646  13122498.04742  24862495.5644   24862492.9864
     -3531.2424
  -9358939.47749  -7275778.29746  21557683.6274   21557681.2604
       443.7734
 04  9  3 16 23 15.0020000  0  6G20G11G14G 1G22G25
  -4376810.04748  -3404596.10243  23762018.0414   23762015.7834
      2193.1424
  -4755450.89849  -3694336.18745  22078165.4864   22078163.0334
      -639.5734
  13973756.87948  10879668.98044  22892710.6114   22892707.6784
     -3249.4374
  -9732760.62949  -7582352.61745  22119201.6434   22119199.5884
      1041.6624
  16911228.91447  13163798.71942  24872581.6584   24872578.8854
     -3533.5074
  -9365466.93049  -7280864.61346  21556441.5024   21556439.0684
       435.1644
 04  9  3 16 23 30.0020000  0  6G20G11G14G 1G22G25
  -4409688.00848  -3430215.28943  23755761.8934   23755759.2754
      2191.8644
  -4745719.56649  -3686753.34446  22080017.6894   22080014.3544
      -648.7554
  14022531.17249  10917674.90644  22901991.9474   22901989.0644
     -3251.6204
  -9748313.14849  -7594471.45345  22116242.0414   22116240.1504
      1036.8354
  16964264.57046  13205125.16442  24882674.3224   24882670.7094
     -3535.7104
  -9371865.83649  -7285850.77746  21555223.6504   21555221.4514
       426.5944
 04  9  3 16 23 45.0020000  0  6G20G11G14G 1G22G25
  -4442547.41448  -3455820.02343  23749508.9864   23749506.4674
      2190.6274
  -4735851.28149  -3679063.77346  22081895.3144   22081892.0684
      -657.8864
  14071337.27749  10955705.62944  22911279.1114   22911276.7174
     -3253.7404
  -9763793.96549  -7606534.42245  22113296.2524   22113294.5804
      1032.0544
  17017332.51246  13246476.77342  24892772.7754   24892769.6234
     -3537.8634
  -9378136.87549  -7290737.28546  21554030.6434   21554028.2794
       418.0694
 04  9  3 16 24  0.0020000  0  6G20G11G14G 1G22G25
  -4475387.43048  -3481409.64843  23743259.9164   23743256.9864
      2189.3344
  -4725845.49249  -3671267.06646  22083799.5964   22083796.6784
      -667.0534
  14120175.61349  10993761.44944  22920572.5884   22920570.3034
     -3255.8894
  -9779202.45749  -7618541.03146  22110364.0804   22110362.4284
      1027.2334
  17070433.39547  13287854.02342  24902876.7684   24902874.9554
     -3540.0594
  -9384279.30949  -7295523.59846  21552861.6974   21552859.0574
       409.4964
 04  9  3 16 24 15.0020000  0  6G20G11G14G 1G22G25
  -4508207.89548  -3506984.01243  23737014.0724   23737011.8114
      2188.0314
  -4715702.09049  -3663363.12145  22085729.6194   22085726.5144
      -676.2274
  14169046.27049  11031842.46144  22929872.8544   22929870.0844
     -3258.0444
  -9794538.48849  -7630491.17645  22107446.0184   22107444.1934
      1022.4024
  17123567.15647  13329256.93042  24912988.0254   24912986.4244
     -3542.2514
  -9390292.99649  -7300209.58646  21551717.3384   21551715.0294
       400.9134
 04  9  3 16 24 30.0020000  0  5G20G11G14G 1G25
  -4541007.99248  -3532542.53943  23730772.4084   23730770.0924
      2186.6734
  -4705420.68049  -3655351.64546  22087686.1504   22087683.3964
      -685.4274
  14217949.38748  11069948.77044  22939178.4394   22939176.7604
     -3260.2084
  -9809801.65249  -7642384.53945  22104541.4714   22104539.7174
      1017.5444
  -9396177.39549  -7304794.81246  21550597.2684   21550595.0374
       392.2934
 04  9  3 16 24 45.0020000  0  5G20G11G14G 1G25
  -4573784.73448  -3558082.84443  23724535.0184   23724533.3694
      2185.1164
  -4694998.23849  -3647230.27045  22089669.4634   22089666.7444
      -694.8294
  14266887.75048  11108082.53144  22948491.1894   22948489.4754
     -3262.5584
  -9824988.99249  -7654218.82845  22101651.5884   22101649.4204
      1012.4894
  -9401929.33249  -7309276.84446  21549502.8224   21549500.7994
       383.4624
 04  9  3 16 25  0.0020000  0  5G20G11G14G 1G25
  -4606539.36348  -3583605.91443  23718302.4164   23718299.9434
      2183.6424
  -4684436.16849  -3639000.09445  22091679.2444   22091676.8384
      -704.1384
  14315859.78948  11146242.53144  22957810.5254   22957808.0724
     -3264.8034
  -9840101.95749  -7665995.15246  22098775.3144   22098773.5024
      1007.5314
  -9407550.16449  -7313656.70346  21548433.2684   21548430.7754
       374.7224
 04  9  3 16 25 15.0020000  0  5G20G11G14G 1G25
  -4639270.14148  -3609110.40643  23712073.8694   23712071.4984
      2182.0524
  -4673733.00049  -3630659.97345  22093715.9794   22093713.1314
      -713.5454
  14364866.90648  11184429.87944  22967136.1744   22967133.9864
     -3267.1414
  -9855139.01249  -7677712.32446  22095914.1894   22095912.2564
      1002.4704
  -9413038.25449  -7317933.13346  21547388.9944   21547386.6704
       365.8734
 04  9  3 16 25 30.0020000  0  5G20G11G14G 1G25
  -4671978.57848  -3634597.49243  23705849.4164   23705847.1704
      2180.5634
  -4662890.25849  -3622211.09045  22095779.4394   22095776.6154
      -722.8494
  14413907.26648  11222643.13744  22976468.2054   22976465.7054
     -3269.3574
  -9870101.78549  -7689371.62546  22093066.9244   22093065.0184
       997.5184
  -9418395.25449  -7322107.41047  21546369.4864   21546367.3224
       357.1334
 04  9  3 16 25 45.0020000  0  5G20G11G14G 1G25
  -4704662.67248  -3660065.60243  23699629.3774   23699627.5644
      2178.9404
  -4651906.10249  -3613652.02046  22097869.6354   22097866.8854
      -732.2774
  14462982.50848  11260883.56644  22985807.0334   22985804.6234
     -3271.6834
  -9884988.52349  -7700971.68446  22090234.3694   22090232.0724
       992.4494
  -9423619.25049  -7326178.04746  21545375.4864   21545373.2174
       348.2664
 04  9  3 16 26  0.0020000  0  5G20G11G14G 1G25
  -4737322.05948  -3685514.45743  23693414.9474   23693412.5254
      2177.2924
  -4640780.52049  -3604982.74245  22099986.9634   22099983.9044
      -741.7054
  14512092.62948  11299151.17244  22995151.8304   22995149.9164
     -3274.0084
  -9899799.00849  -7712512.31246  22087415.5574   22087413.6194
       987.3664
  -9428709.97349  -7330144.84046  21544407.1194   21544404.2254
       339.3824
 04  9  3 16 26 15.0020000  0  5G20G11G14G 1G25
  -4769958.29747  -3710945.28543  23687204.7214   23687202.2254
      2175.7494
  -4629515.28149  -3596204.63745  22102130.4634   22102127.1934
      -751.0164
  14561235.80148  11337444.53544  23004504.0104   23004501.7914
     -3276.2114
  -9914534.91049  -7723994.83245  22084611.2054   22084609.5614
       982.3934
  -9433668.89149  -7334008.92646  21543463.0644   21543460.9864
       330.5954
 04  9  3 16 26 30.0020000  0  5G20G11G14G 1G25
  -4802568.72747  -3736355.99243  23680999.0724   23680996.6664
      2174.0294
  -4618107.83249  -3587315.72345  22104301.4554   22104298.2604
      -760.4974
  14610414.19948  11375765.34444  23013862.2834   23013860.0184
     -3278.5604
  -9929193.82049  -7735417.35245  22081821.8544   22081819.8144
       977.2614
  -9438493.57849  -7337768.41846  21542544.9794   21542542.7564
       321.6464
 04  9  3 16 26 45.0020000  0  5G20G11G14G 1G25
  -4835157.08647  -3761749.51643  23674797.5184   23674795.3264
      2172.5574
  -4606562.22349  -3578319.16445  22106498.4554   22106495.1354
      -769.7074
  14659623.73448  11414110.42644  23023226.4714   23023224.5104
     -3280.6364
  -9943779.61349  -7746782.89145  22079046.0024   22079044.2714
       972.3864
  -9443187.83649  -7341426.27346  21541651.7214   21541649.1784
       312.9514
 04  9  3 16 27  0.0020000  0  5G20G11G14G 1G25
  -4867722.59447  -3787125.22343  23668600.6824   23668598.1314
      2171.0344
  -4594877.62949  -3569214.28546  22108721.8694   22108718.7174
      -778.9734
  14708865.05948  11452480.26244  23032597.1974   23032594.4634
     -3282.7554
  -9958291.67249  -7758090.97746  22076284.6664   22076282.9044
       967.4714
  -9447750.99649  -7344981.97346  21540783.2294   21540780.9204
       304.2114
 04  9  3 16 27 15.0020000  0  5G20G11G14G 1G25
  -4900262.89848  -3812481.30143  23662408.2524   23662405.8574
      2169.3544
  -4583051.91049  -3559999.44946  22110972.2914   22110969.5804
      -788.3814
  14758140.09048  11490876.36344  23041973.5414   23041971.2954
     -3285.0024
  -9972727.80149  -7769339.90246  22073537.6274   22073535.8034
       962.4094
  -9452180.77049  -7348433.73446  21539940.5184   21539937.8774
       295.3184
 04  9  3 16 27 30.0020000  0  5G20G11G14G 1G25
  -4932783.07047  -3837821.69543  23656219.8384   23656217.2014
      2168.0114
  -4571090.35949  -3550678.76246  22113248.5494   22113245.8694
      -797.4374
  14807443.53948  11529294.62144  23051355.9944   23051353.6434
     -3286.8974
  -9987093.17649  -7780533.70346  22070804.0024   22070802.1664
       957.6924
  -9456482.26649  -7351785.54746  21539121.7054   21539119.0574
       286.7664
 04  9  3 16 27 45.0020000  0  5G20G11G14G 1G25
  -4965283.78947  -3863146.92643  23650035.6584   23650032.9554
      2166.7154
  -4558993.85949  -3541252.93445  22115550.4324   22115547.5184
      -806.4334
  14856774.23449  11567734.10944  23060743.2054   23060740.8344
     -3288.7134
 -10001388.66849  -7791673.03945  22068083.6504   22068081.6894
       953.0334
  -9460656.06249  -7355037.84446  21538327.8224   21538325.0614
       278.2534
 04  9  3 16 28  0.0020000  0  5G20G11G14G 1G25
  -4997761.33647  -3888454.10243  23643854.8464   23643852.2254
      2165.1704
  -4546758.80149  -3531719.12946  22117878.3934   22117875.5294
      -815.6714
  14906135.52048  11606197.43044  23070136.3694   23070134.1544
     -3290.7524
 -10015610.77049  -7802755.19146  22065376.8694   22065375.0764
       948.1404
  -9464698.78149  -7358188.01646  21537558.4004   21537555.4364
       269.5154
 04  9  3 16 28 15.0020000  0  5G20G11G14G 1G25
  -5030213.89847  -3913741.79343  23637679.6584   23637676.1974
      2163.5044
  -4534383.69549  -3522076.19146  22120233.5804   22120231.0454
      -825.0074
  14955528.85948  11644685.72744  23079535.4004   23079533.3774
     -3292.8894
 -10029757.90649  -7813778.93046  22062684.7684   22062683.1704
       943.1424
  -9468608.73049  -7361234.71946  21536814.1114   21536811.5374
       260.6634
 04  9  3 16 28 30.0020000  0  5G20G11G14G 1G25
  -5062641.03547  -3939009.69543  23631508.6194   23631506.0494
      2161.8094
  -4521868.28149  -3512323.93446  22122615.1744   22122612.8424
      -834.3614
  15004954.45748  11683199.16844  23088941.0644   23088938.5214
     -3295.0404
 -10043829.73849  -7824743.98046  22060007.0804   22060005.5144
       938.1224
  -9472385.49249  -7364177.65246  21536095.4084   21536092.9284
       251.7844
 04  9  3 16 28 45.0020000  0  5G20G11G14G 1G25
  -5095041.93448  -3964257.14543  23625343.1664   23625340.0334
      2160.0604
  -4509211.92249  -3502461.84046  22125023.4554   22125021.2054
      -843.7574
  15054412.80148  11721738.12544  23098352.4794   23098349.7444
     -3297.2234
 -10057825.63349  -7835649.87546  22057343.9794   22057341.9364
       933.0604
  -9476028.37949  -7367016.25446  21535402.3934   21535399.6894
       242.8594
 04  9  3 16 29  0.0020000  0  5G20G11G14G 1G25
  -5127416.26247  -3989483.89843  23619182.5184   23619179.6934
      2158.2894
  -4496414.50049  -3492489.83245  22127458.7054   22127456.2834
      -853.1614
  15103903.78948  11760302.51244  23107770.5024   23107768.0644
     -3299.3994
 -10071745.49649  -7846496.51646  22054694.9164   22054693.2014
       927.9914
  -9479537.22749  -7369750.41446  21534734.4164   21534732.0374
       233.9234
 04  9  3 16 29 15.0020000  0  5G20G11G14G 1G25
  -5159762.78947  -4014688.97743  23613027.0334   23613024.6004
      2156.4354
  -4483475.07849  -3482407.17646  22129921.0724   22129918.5024
      -862.6284
  15153428.31648  11798893.02744  23117194.8074   23117192.3114
     -3301.6354
 -10085588.30549  -7857283.12146  22052061.1274   22052059.3774
       922.8544
  -9482910.89849  -7372379.24646  21534092.3464   21534090.0924
       224.9114
 04  9  3 16 29 30.0020000  0  5G20G11G14G 1G25
  -5192080.02747  -4039871.23443  23606877.4164   23606875.3854
      2154.4834
  -4470392.23849  -3472212.76245  22132410.5804   22132407.6934
      -872.1894
  15202987.52048  11837510.57844  23126625.4634   23126622.8264
     -3303.9474
 -10099352.72749  -7868008.63746  22049441.6114   22049439.8224
       917.6284
  -9486148.07449  -7374901.71946  21533476.6114   21533473.9824
       215.8124
 04  9  3 16 29 45.0020000  0  5G20G11G14G 1G25
  -5224370.90647  -4065032.93443  23600732.4474   23600730.7564
      2152.7254
  -4457169.08249  -3461909.01645  22134926.8934   22134923.7564
      -881.5444
  15252578.32848  11876152.74644  23136062.1044   23136059.5644
     -3306.0544
 -10113041.80149  -7878675.43446  22046836.6044   22046834.6624
       912.6054
  -9489251.62549  -7377320.06646  21532886.0964   21532883.7014
       206.9034
 04  9  3 16 30  0.0030000  0  5G20G11G14G 1G25
  -5256640.30547  -4090177.90643  23594591.8664   23594589.9954
      2151.2934
  -4443807.83649  -3451497.66045  22137469.4294   22137466.1714
      -890.7504
  15302200.86748  11914819.63744  23145505.1874   23145502.9914
     -3308.1694
 -10126659.48449  -7889286.61746  22044245.1404   22044243.7264
       907.8464
  -9492224.63749  -7379636.68447  21532320.4524   21532317.8274
       198.2014
 04  9  3 16 30 15.0030000  0  5G20G11G14G 1G25
  -5288882.25847  -4115301.50444  23588456.6944   23588454.2884
      2149.4644
  -4430308.66449  -3440978.84045  22140038.1554   22140035.0304
      -899.9454
  15351849.66448  11953507.00044  23154953.1944   23154950.9054
     -3309.9204
 -10140202.44149  -7899839.55946  22041667.8434   22041666.3974
       902.8644
  -9495065.27049  -7381850.16046  21531779.7574   21531776.6834
       189.3764
 04  9  3 16 30 30.0030000  0  6G20G11G14G23G 1G25
  -5321100.68747  -4140406.77043  23582325.4684   23582323.1324
      2147.8954
  -4416672.71549  -3430353.43045  22142633.2654   22142630.2494
      -909.0634
  15401526.03948  11992215.84444  23164406.0464   23164403.5814
     -3311.7584
    -95955.05556    -68067.07452  24895814.0304   24895810.1204

 -10153673.44549  -7910336.44145  22039104.6714   22039103.2454
       898.0674
  -9497775.46549  -7383961.99646  21531263.7724   21531261.3124
       180.6804
 04  9  3 16 30 45.0030000  0  6G20G11G14G23G 1G25
  -5353295.02347  -4165493.24643  23576199.4054   23576196.8154
      2146.2894
  -4402899.60949  -3419621.14145  22145254.0464   22145251.0424
      -918.2074
  15451230.33248  12030946.45744  23173864.2884   23173861.8434
     -3313.6204
   -129694.55947    -94357.57442  24889392.3514   24889389.4444
      2249.3004
 -10167072.11749  -7920776.96146  22036554.8744   22036553.5544
       893.2454
  -9500354.77049  -7385971.84046  21530773.3194   21530770.7374
       171.9544
 04  9  3 16 31  0.0030000  0  6G20G11G14G23G 1G25
  -5385466.44148  -4190561.87943  23570077.0854   23570074.9174
      2144.7614
  -4388991.02349  -3408783.29745  22147900.8354   22147897.9214
      -927.2394
  15500961.03148  12069697.63344  23183328.0464   23183325.4684
     -3315.3804
   -163404.46947   -120624.98842  24882978.1874   24882974.4524
      2247.3274
 -10180399.87149  -7931162.21946  22034018.6794   22034017.0224
       888.5174
  -9502804.44949  -7387880.68446  21530306.8744   21530304.1714
       163.3124
 04  9  3 16 31 15.0030000  0  6G20G11G14G23G 1G25
  -5417613.11747  -4215611.23043  23563959.7724   23563957.4014
      2143.1124
  -4374944.92649  -3397838.29345  22150573.8664   22150571.1084
      -936.4074
  15550719.42648  12108470.38744  23192796.5854   23192794.9094
     -3317.2264
   -197083.17647   -146868.14542  24876569.4604   24876565.4524
      2245.2474
 -10193655.14849  -7941491.00046  22031496.1794   22031494.7184
       883.6854
  -9505122.87949  -7389687.25046  21529865.7574   21529863.1714
       154.5624
 04  9  3 16 31 30.0030000  0  6G20G11G14G23G 1G25
  -5449737.29347  -4240643.05143  23557846.6404   23557844.3234
      2141.6124
  -4360763.84849  -3386788.11345  22153272.4524   22153269.8274
      -945.4054
  15600502.98448  12147262.75444  23202269.9054   23202267.9254
     -3318.9044
   -230733.00047   -173088.78542  24870166.2574   24870161.9764
      2243.3224
 -10206840.33649  -7951765.16446  22028987.1404   22028985.2804
       879.0134
  -9507312.43049  -7391393.37946  21529448.6944   21529446.6904
       145.9704
 04  9  3 16 31 45.0030000  0  6G20G11G14G23G 1G25
  -5481840.76247  -4265658.72743  23551737.4764   23551735.1364
      2140.2314
  -4346450.02749  -3375634.50045  22155996.1084   22155993.9684
      -954.2554
  15650309.66848  12186073.12944  23211748.2804   23211746.3354
     -3320.4464
   -264355.93747   -199288.44542  24863768.3824   24863763.8664
      2241.5294
 -10219957.35949  -7961986.21946  22026491.2334   22026489.4724
       874.4684
  -9509374.97749  -7393000.55546  21529056.6474   21529054.1044
       137.5034
 04  9  3 16 32  0.0030000  0  6G20G11G14G23G 1G25
  -5513921.04347  -4290656.33643  23545632.6944   23545630.2414
      2138.6854
  -4332001.03549  -3364375.54746  22158745.5774   22158743.1674
      -963.2664
  15700141.60248  12224903.19144  23221230.2334   23221228.7414
     -3322.1294
   -297949.51647   -225465.25442  24857376.0544   24857371.2614
      2239.5724
 -10233003.86749  -7972152.32446  22024008.3824   22024006.6594
       869.7674
  -9511308.08649  -7394506.86746  21528688.5624   21528686.1364
       128.8744
 04  9  3 16 32 15.0030000  0  6G20G11G14G23G 1G25
  -5545977.61347  -4315635.48443  23539532.7724   23539530.1834
      2137.1054
  -4317416.62949  -3353011.08646  22161521.1634   22161518.5304
      -972.2944
  15749998.96948  12263753.07444  23230718.3124   23230715.9644
     -3323.8244
   -331513.30147   -251618.83642  24850988.3974   24850984.1514
      2237.5864
 -10245979.60949  -7982263.28146  22021539.4374   22021537.4874
       865.0494
  -9513111.39549  -7395912.04746  21528345.4764   21528343.2024
       120.2214
 04  9  3 16 32 30.0030000  0  6G20G11G14G23G 1G25
  -5578009.29747  -4340595.23443  23533437.2184   23533434.7144
      2135.4464
  -4302695.91049  -3341540.41046  22164322.3584   22164319.7064
      -981.3814
  15799882.48448  12302623.32044  23240210.6404   23240208.4914
     -3325.5684
   -365046.35547   -277748.47342  24844606.5694   24844603.3314
      2235.5374
 -10258883.63349  -7992318.35946  22019083.9834   22019081.6834
       860.2684
  -9514784.00449  -7397215.37546  21528027.2334   21528024.4794
       111.5074
 04  9  3 16 32 45.0030000  0  6G20G11G14G23G 1G25
  -5610017.66447  -4365536.82443  23527346.4524   23527343.7764
      2133.8914
  -4287840.62949  -3329964.87546  22167149.1874   22167146.9724
      -990.3524
  15849790.30948  12341512.52044  23249707.8274   23249705.5504
     -3327.1884
   -398550.20347   -303855.35942  24838232.2334   24838228.0814
      2233.5904
 -10271717.71549  -8002318.93746  22016641.6164   22016639.5624
       855.6054
  -9516327.44549  -7398418.05546  21527733.4604   21527730.9444
       102.8964
 04  9  3 16 33  0.0030000  0  6G20G11G14G23G 1G25
  -5642001.53147  -4390459.31643  23521259.8664   23521257.5114
      2132.2584
  -4272849.75049  -3318283.68045  22170002.1404   22169999.6084
      -999.3924
  15899723.42248  12380421.41443  23259210.2104   23259207.4484
     -3328.8744
   -432023.73847   -329938.59442  24831861.4834   24831857.7574
      2231.5694
 -10284480.83249  -8012264.21545  22014212.5544   22014210.3194
       850.8744
  -9517740.75049  -7399519.33246  21527464.6244   21527461.8474
        94.2204
 04  9  3 16 33 15.0030000  0  6G20G11G14G23G 1G25
  -5673960.96148  -4415362.77043  23515178.3744   23515175.9094
      2130.6294
  -4257723.74249  -3306497.19546  22172880.0774   22172877.5654
     -1008.4014
  15949681.25448  12419349.57444  23268717.3664   23268714.3004
     -3330.5224
   -465467.31247   -355998.51242  24825496.8974   24825493.7294
      2229.5724
 -10297173.29349  -8022154.44945  22011797.4604   22011795.4014
       846.1644
  -9519024.07849  -7400519.32446  21527220.4764   21527217.9764
        85.5554
 04  9  3 16 33 30.0030000  0  6G20G11G14G23G 1G25
  -5705894.95748  -4440246.39543  23509101.5774   23509099.7574
      2128.9334
  -4242461.82049  -3294604.79345  22175784.7574   22175781.9334
     -1017.4614
  15999664.52048  12458297.55144  23278228.5464   23278226.0224
     -3332.2184
   -498879.98047   -382034.32042  24819139.0154   24819135.7374
      2227.5114
 -10309794.23049  -8031988.93746  22009395.8974   22009393.6754
       841.3964
  -9520176.64849  -7401417.42246  21527001.0624   21526998.7724
        76.8384
 04  9  3 16 33 45.0030000  0  6G20G11G14G23G 1G25
  -5737802.21548  -4465109.18044  23503029.9764   23503027.6594
      2127.1514
  -4227062.79349  -3282605.56645  22178714.9604   22178711.9834
     -1026.6024
  16049674.15648  12497266.08244  23287745.0074   23287742.1204
     -3333.9764
   -532260.42247   -408045.03142  24812786.6714   24812783.5544
      2225.3634
 -10322342.51649  -8041766.81646  22007007.7104   22007005.9214
       836.5524
  -9521197.27349  -7402212.71946  21526806.8584   21526804.4134
        68.0424
 04  9  3 16 34  0.0030000  0  6G20G11G14G23G 1G25
  -5769683.69148  -4489951.87543  23496963.1794   23496960.8664
      2125.4324
  -4211527.88749  -3270500.45346  22181671.0464   22181668.3044
     -1035.6604
  16099708.90648  12536254.17244  23297266.1014   23297263.9684
     -3335.6504
   -565609.77747   -434031.52042  24806440.7964   24806437.3944
      2223.2904
 -10334819.34449  -8051489.01645  22004633.6634   22004631.6794
       831.7894
  -9522086.97349  -7402905.98846  21526637.5154   21526634.6904
        59.3134
 04  9  3 16 34 15.0030000  0  6G20G11G14G23G 1G25
  -5801539.16848  -4514774.32044  23490901.3434   23490898.7574
      2123.6984
  -4195857.10549  -3258289.46545  22184653.2964   22184649.9014
     -1044.7194
  16149768.64148  12575261.74644  23306792.3354   23306789.6984
     -3337.3164
   -598928.09047   -459993.80942  24800100.4604   24800097.6204
      2221.2214
 -10347224.71549  -8061155.53146  22002273.0934   22002271.3544
       827.0254
  -9522845.76649  -7403497.25046  21526493.1014   21526490.5074
        50.5864
 04  9  3 16 34 30.0030000  0  6G20G11G14G23G 1G25
  -5833368.12148  -4539576.09843  23484844.1794   23484841.5694
      2121.9304
  -4180050.16049  -3245972.37145  22187661.1164   22187658.4134
     -1053.7964
  16199853.49248  12614288.88344  23316323.0304   23316320.7764
     -3338.9904
   -632214.91047   -485931.57042  24793766.2024   24793763.0384
      2219.1214
 -10359558.27049  -8070766.08646  21999926.0544   21999924.7454
       822.2374
  -9523473.27749  -7403986.21546  21526373.6244   21526371.2184
        41.8344
 04  9  3 16 34 45.0030000  0  6G20G11G14G23G 1G25
  -5865170.43048  -4564357.10244  23478792.5154   23478789.9994
      2120.1544
  -4164107.28149  -3233549.36346  22190695.0074   22190692.2184
     -1062.8594
  16249963.20348  12653335.39144  23325858.9524   23325856.1514
     -3340.6474
   -665470.18747   -511844.73042  24787437.9214   24787435.1714
      2217.0184
 -10371820.09449  -8080320.75446  21997592.4524   21997591.5154
       817.4554
  -9523969.43749  -7404372.83247  21526279.1324   21526276.7804
        33.0774
 04  9  3 16 35  0.0030000  0  6G20G11G14G23G 1G25
  -5896944.97348  -4589116.47744  23472745.8274   23472743.7534
      2118.3034
  -4148027.47749  -3221019.65246  22193755.0384   22193752.0424
     -1071.9874
  16300098.65248  12692401.95743  23335399.2414   23335396.4054
     -3342.3634
   -698692.86347   -537732.51643  24781116.4444   24781113.2844
      2214.8454
 -10384009.23849  -8089818.78146  21995273.3514   21995271.6014
       812.6104
  -9524333.18749  -7404656.27346  21526209.9684   21526207.4054
        24.2504
 04  9  3 16 35 15.0030000  0  6G20G11G14G23G 1G25
  -5928692.66848  -4613854.92644  23466704.2264   23466701.7804
      2116.5134
  -4131812.07849  -3208384.28545  22196840.4604   22196838.3664
     -1081.0274
  16350258.58648  12731487.60944  23344944.1634   23344941.6244
     -3343.9964
   -731884.10247   -563595.79343  24774799.3744   24774796.9524
      2212.7494
 -10396126.95749  -8099261.15246  21992967.1554   21992965.9794
       807.8484
  -9524565.78149  -7404837.51247  21526165.6794   21526163.1284
        15.5064
 04  9  3 16 35 30.0030000  0  6G20G11G14G23G 1G25
  -5960414.22748  -4638573.00844  23460668.3664   23460665.4794
      2114.7714
  -4115461.97349  -3195643.95745  22199951.9604   22199949.0384
     -1090.0074
  16400441.91848  12770591.48444  23354493.6014   23354491.7574
     -3345.5554
   -765044.67647   -589435.16442  24768489.9994   24768486.5384
      2210.7054
 -10408174.02749  -8108648.47346  21990674.3974   21990673.4334
       803.1384
  -9524668.00449  -7404917.16846  21526146.3044   21526144.0974
         6.8154
 04  9  3 16 35 45.0030000  0  6G20G11G14G23G 1G25
  -5992109.89148  -4663270.92644  23454636.7334   23454633.7534
      2113.0444
  -4098977.58649  -3182798.99246  22203088.9764   22203086.1874
     -1098.9594
  16450648.05548  12809713.12944  23364047.9524   23364045.4444
     -3347.0764
   -798175.00847   -615250.99242  24762185.5694   24762181.5544
      2208.6894
 -10420150.95749  -8117981.13346  21988395.4134   21988394.1044
       798.4624
  -9524640.20349  -7404895.50846  21526151.6554   21526149.0974
        -1.8534
 04  9  3 16 36  0.0030000  0  6G20G11G14G23G 1G25
  -6023778.69948  -4687947.91044  23448610.3434   23448607.6404
      2111.2544
  -4082358.23449  -3169848.85546  22206251.3744   22206248.6634
     -1107.9574
  16500877.68848  12848853.07844  23373606.3194   23373603.8234
     -3348.6424
   -831274.10247   -641042.49242  24755886.6014   24755882.2374
      2206.6064
 -10432056.87949  -8127258.46546  21986129.7334   21986128.4914
       793.7284
  -9524481.43449  -7404771.78947  21526181.9374   21526179.6514
       -10.5854
 04  9  3 16 36 15.0030000  0  6G20G11G14G23G 1G25
  -6055421.59448  -4712604.70744  23442588.4834   23442585.9644
      2109.5264
  -4065605.11749  -3156794.49246  22209439.5304   22209436.4334
     -1116.8744
  16551129.53148  12888010.34044  23383168.8194   23383166.6834
     -3350.1234
   -864343.03947   -666810.48842  24749593.8584   24749589.8274
      2204.5964
 -10443892.95749  -8136481.38346  21983877.2574   21983876.0424
       789.0724
  -9524192.91449  -7404546.97347  21526236.6714   21526234.4014
       -19.2354
 04  9  3 16 36 30.0030000  0  6G20G11G14G23G 1G25
  -6087035.47748  -4737238.87944  23436572.7494   23436570.0624
      2107.5924
  -4048715.47349  -3143633.73846  22212653.2104   22212650.2884
     -1125.9764
  16601406.31648  12927187.03143  23392735.6404   23392734.1674
     -3351.7864
   -897378.93047   -692552.74642  24743307.3124   24743303.0624
      2202.3934
 -10455656.42249  -8145647.71146  21981638.9374   21981637.6364
       784.2314
  -9523771.74249  -7404218.78147  21526316.8044   21526314.3784
       -28.0784
 04  9  3 16 36 45.0030000  0  6G20G11G14G23G 1G25
  -6118618.60948  -4761849.10544  23430562.9834   23430559.7104
      2105.5424
  -4031687.73849  -3130365.38745  22215893.9444   22215890.6514
     -1135.1824
  16651709.39548  12966384.20743  23402308.1474   23402306.2614
     -3353.5394
   -930380.16847   -718267.96542  24737027.4764   24737023.4484
      2200.0834
 -10467345.70749  -8154756.24246  21979414.5774   21979413.3824
       779.2864
  -9523216.37949  -7403786.02747  21526422.7184   21526420.2264
       -37.0244
 04  9  3 16 37  0.0030000  0  6G20G11G14G23G 1G25
  -6150174.03148  -4786437.73844  23424558.3514   23424555.2614
      2103.6954
  -4014525.36349  -3116992.11746  22219159.7414   22219156.4994
     -1144.1584
  16702035.32448  13005599.20344  23411885.1084   23411882.6634
     -3355.0624
   -963350.03547   -743958.74642  24730753.2104   24730749.7764
      2197.9914
 -10478964.14549  -8163809.57446  21977203.3974   21977202.0464
       774.5634
  -9522530.05549  -7403251.23047  21526553.0224   21526550.5734
       -45.7554
 04  9  3 16 37 15.0030000  0  6G20G11G14G23G 1G25
  -6181700.24648  -4811003.62143  23418558.7264   23418555.9214
      2101.7484
  -3997227.07849  -3103512.94545  22222451.4134   22222448.2724
     -1153.2194
  16752385.25848  13044832.89544  23421466.7184   23421464.1634
     -3356.6624
   -996287.07847   -769623.96142  24724485.2264   24724481.9564
      2195.8034
 -10490510.43449  -8172806.67246  21975006.5624   21975004.9724
       769.7534
  -9521711.38349  -7402613.30546  21526709.1164   21526706.3194
       -54.5784
 04  9  3 16 37 30.0030000  0  6G20G11G14G23G 1G25
  -6213198.30548  -4835547.56644  23412565.0154   23412562.2964
      2099.8714
  -3979794.05549  -3089928.77045  22225768.7654   22225765.6084
     -1162.2024
  16802757.90648  13084084.30143  23431052.3434   23431050.0304
     -3358.1774
  -1029192.28547   -795264.37942  24718223.5464   24718219.9054
      2193.6804
 -10501985.64149  -8181748.38746  21972823.0154   21972820.9684
       765.0144
  -9520761.59849  -7401873.22347  21526889.7724   21526886.7764
       -63.3194
 04  9  3 16 37 45.0030000  0  6G20G11G14G23G 1G25
  -6244668.43048  -4860069.73843  23406576.2804   23406574.2224
      2098.0084
  -3962226.84449  -3076240.05145  22229111.7804   22229108.5934
     -1171.1474
  16853152.77748  13123353.00844  23440641.7494   23440639.4954
     -3359.6584
  -1062066.14847   -820880.35542  24711968.8194   24711965.0654
      2191.5914
 -10513390.25449  -8190635.09846  21970653.0624   21970650.4994
       760.3084
  -9519681.03549  -7401031.22347  21527095.4764   21527092.9094
       -72.0374
 04  9  3 16 38  0.0030000  0  6G20G11G14G23G 1G25
  -6276111.56248  -4884570.87144  23400592.7724   23400590.8474
      2096.2094
  -3944526.72749  -3062447.75845  22232480.1634   22232477.0504
     -1180.0084
  16903568.46948  13162637.93844  23450235.6324   23450233.3434
     -3361.0464
  -1094909.80547   -846472.78142  24705718.4604   24705715.2374
      2189.5774
 -10524725.48449  -8199467.73846  21968495.6554   21968493.7654
       755.6824
  -9518470.91449  -7400088.27047  21527325.6324   21527323.3864
       -80.6754
 04  9  3 16 38 15.0030000  0  6G20G11G14G23G 1G25
  -6307525.63748  -4909049.35944  23394614.9374   23394613.1674
      2094.2724
  -3926691.64549  -3048550.30945  22235873.7724   22235870.8824
     -1189.0054
  16954006.88348  13201940.57843  23459833.5544   23459831.9834
     -3362.5614
  -1127721.19547   -872040.09042  24699473.8824   24699471.7574
      2187.4264
 -10535989.30549  -8208244.73446  21966352.3044   21966350.2844
       750.9214
  -9517129.11349  -7399042.71146  21527581.1084   21527578.4874
       -89.4534
 04  9  3 16 38 30.0030000  0  6G20G11G14G23G 1G25
  -6338907.96948  -4933503.10544  23388643.1084   23388641.3154
      2092.1554
  -3908719.31249  -3034545.90246  22239293.5304   22239290.8544
     -1198.1554
  17004470.23848  13241262.66043  23469437.0624   23469434.3544
     -3364.2244
  -1160497.76247   -897580.23842  24693236.5934   24693234.8664
      2185.1044
 -10547179.49649  -8216964.36346  21964223.0384   21964220.8974
       746.0134
  -9515653.25449  -7397892.69147  21527861.9994   21527859.1474
       -98.3914
 04  9  3 16 38 45.0030000  0  6G20G11G14G23G 1G25
  -6370260.70748  -4957933.80144  23382676.6084   23382675.0974
      2090.1834
  -3890612.26649  -3020436.52746  22242739.4214   22242737.0194
     -1207.1364
  17054955.91448  13280602.11743  23479044.1014   23479041.1594
     -3365.7124
  -1193241.83647   -923095.07042  24687005.6014   24687003.8904
      2182.9384
 -10558298.39849  -8225628.43746  21962106.8044   21962104.7144
       741.2604
  -9514045.74249  -7396640.08246  21528167.7654   21528165.2024
      -107.1674
 04  9  3 16 39  0.0030000  0  6G20G11G14G23G 1G25
  -6401582.55548  -4982340.42244  23376715.8354   23376714.3234
      2088.1234
  -3872369.47748  -3006221.37145  22246211.2884   22246208.3194
     -1216.1864
  17105464.95748  13319959.80143  23488655.6164   23488653.3664
     -3367.2704
  -1225952.35547   -948583.75843  24680781.5624   24680779.1124
      2180.7014
 -10569344.87148  -8234236.07046  21960004.9214   21960002.8824
       736.4324
  -9512305.42249  -7395283.98846  21528498.8274   21528496.5304
      -116.0214
 04  9  3 16 39 15.0030000  0  6G20G11G14G23G 1G25
  -6432873.76648  -5006723.18044  23370761.5074   23370759.5934
      2086.0814
  -3853991.43748  -2991900.83645  22249708.2804   22249705.4724
     -1225.2034
  17155996.88348  13359335.30543  23498271.3974   23498268.9254
     -3368.7954
  -1258629.61347   -974046.53143  24674562.6714   24674560.6014
      2178.4844
 -10580319.31648  -8242787.59046  21957916.3664   21957914.7024
       731.6304
  -9510432.64149  -7393824.68446  21528855.3744   21528852.8084
      -124.8524
 04  9  3 16 39 30.0030000  0  6G20G11G14G23G 1G25
  -6464133.10248  -5031081.10244  23364813.5154   23364811.1634
      2083.9564
  -3835477.11349  -2977474.09845  22253231.4524   22253228.3154
     -1234.2884
  17206552.62948  13398729.37943  23507891.3514   23507889.6164
     -3370.3834
  -1291272.40248   -999482.45343  24668351.8274   24668348.4484
      2176.1864
 -10591220.75049  -8251282.20346  21955841.9134   21955840.3004
       726.7624
  -9508426.32849  -7392261.32046  21529236.9684   21529234.9054
      -133.7544
 04  9  3 16 39 45.0030000  0  6G20G11G14G23G 1G25
  -6495360.35248  -5055414.00844  23358870.9684   23358868.8124
      2081.8174
  -3816826.64148  -2962941.28145  22256780.6244   22256777.8434
     -1243.3654
  17257131.99648  13438141.85243  23517516.8274   23517514.3154
     -3371.9584
  -1323880.69147  -1024891.48042  24662146.4374   24662143.1514
      2173.8864
 -10602049.22348  -8259719.97746  21953781.3274   21953780.0224
       721.8984
  -9506286.51649  -7390593.93747  21529644.3274   21529641.7264
      -142.6544
 04  9  3 16 40  0.0030000  0  6G20G11G14G23G 1G25
  -6526557.43048  -5079723.43044  23352934.7574   23352932.4054
      2079.8054
  -3798042.25449  -2948304.10245  22260355.0384   22260352.1554
     -1252.2924
  17307732.71548  13477570.94543  23527145.5544   23527143.3584
     -3373.3814
  -1356456.60547  -1050275.28543  24655947.1324   24655943.9524
      2171.7284
 -10612806.87548  -8268102.55546  21951734.5074   21951732.6674
       717.1774
  -9504015.33649  -7388824.19547  21530076.2884   21530074.0624
      -151.4124
 04  9  3 16 40 15.0030000  0  6G20G11G14G23G 1G25
  -6557722.96548  -5104008.25044  23347004.1014   23347001.6514
      2077.7024
  -3779122.92248  -2933561.78145  22263955.5384   22263952.7964
     -1261.2894
  17358355.65248  13517017.36743  23536778.9134   23536776.3974
     -3374.8624
  -1388998.85547  -1075632.85943  24649754.6714   24649751.2454
      2169.4834
 -10623492.53949  -8276429.03546  21949700.8824   21949699.2064
       712.3784
  -9501611.51649  -7386951.08647  21530533.7494   21530531.7104
      -160.2554
 04  9  3 16 40 30.0030000  0  6G20G11G14G23G 1G25
  -6588855.67648  -5128267.49244  23341079.3664   23341077.2024
      2075.5144
  -3760067.55949  -2918713.45745  22267581.5624   22267578.9374
     -1270.3584
  17409001.75848  13556481.85543  23546416.5624   23546413.7884
     -3376.4074
  -1421506.25047  -1100963.28143  24643569.1634   24643565.4334
      2167.1604
 -10634105.08649  -8284698.55946  21947681.3274   21947679.7334
       707.5034
  -9499073.94549  -7384973.76246  21531016.5934   21531014.2614
      -169.1714
 04  9  3 16 40 45.0030000  0  6G20G11G14G23G 1G25
  -6619954.15648  -5152500.07844  23335161.7884   23335159.3624
      2073.2324
  -3740875.12149  -2903758.32045  22271233.4914   22271230.6754
     -1279.4964
  17459672.23048  13595965.32443  23556058.8514   23556056.7064
     -3378.0324
  -1453977.67247  -1126265.67642  24637389.6794   24637386.6244
      2164.7614
 -10644643.45349  -8292910.26646  21945675.8354   21945674.5074
       702.5584
  -9496401.41849  -7382891.27047  21531525.4054   21531522.8514
      -178.1684
 04  9  3 16 41  0.0030000  0  6G20G11G14G23G 1G25
  -6651020.64148  -5176707.72344  23329250.2334   23329247.2884
      2071.0994
  -3721548.04349  -2888698.27045  22274911.8044   22274908.3624
     -1288.4724
  17510364.46947  13635465.73843  23565705.5694   23565702.7024
     -3379.4834
  -1486415.46947  -1151541.84842  24631217.3274   24631213.9134
      2162.5204
 -10655110.03149  -8301066.03546  21943684.2414   21943682.6324
       697.7724
  -9493596.39849  -7380705.54347  21532059.0304   21532056.4684
      -187.0014
 04  9  3 16 41 15.0030000  0  6G20G11G14G23G 1G25
  -6682054.59448  -5200890.02344  23323344.4834   23323341.4484
      2068.9304
  -3702086.19549  -2873533.20345  22278614.8274   22278611.8274
     -1297.4574
  17561078.64547  13674983.25843  23575355.4914   23575353.3314
     -3380.9454
  -1518819.18447  -1176791.46942  24625050.7494   24625046.5584
      2160.2484
 -10665504.51249  -8309165.61746  21941706.2334   21941704.4214
       692.9654
  -9490658.59849  -7378416.35247  21532618.1714   21532615.6794
      -195.8534
 04  9  3 16 41 30.0030000  0  6G20G11G14G23G 1G25
  -6713055.45348  -5225046.53544  23317445.3354   23317442.3904
      2066.7244
  -3682489.28149  -2858262.88745  22282344.2574   22282340.8744
     -1306.4614
  17611814.95347  13714518.03143  23585010.5304   23585008.3044
     -3382.4214
  -1551188.38747  -1202014.20342  24618890.7804   24618887.1474
      2157.9474
 -10675826.51249  -8317208.72346  21939741.9374   21939740.1634
       688.1334
  -9487587.60549  -7376023.37547  21533202.7494   21533199.8194
      -204.7334
 04  9  3 16 41 45.0030000  0  6G20G11G14G23G 1G25
  -6744021.48448  -5249175.91444  23311552.4444   23311549.3744
      2064.4024
  -3662755.84049  -2842886.18746  22286099.2964   22286096.4954
     -1315.5634
  17662574.80947  13754071.13743  23594669.8664   23594668.0584
     -3383.9904
  -1583521.45747  -1227208.78142  24612738.0774   24612734.1514
      2155.5384
 -10686074.59449  -8325194.23846  21937792.1164   21937790.1204
       683.2054
  -9484381.86349  -7373525.39547  21533812.6164   21533810.0544
      -213.7164
 04  9  3 16 42  0.0030000  0  6G20G11G14G23G 1G25
  -6774954.52348  -5273279.58244  23305665.9444   23305663.3354
      2062.2034
  -3642887.91049  -2827404.68746  22289879.7264   22289877.2064
     -1324.5294
  17713356.28947  13793641.09843  23604333.5694   23604331.6324
     -3385.4324
  -1615820.29347  -1252376.69142  24606591.7334   24606588.1044
      2153.2564
 -10696250.73449  -8333123.69546  21935855.4214   21935853.7264
       678.4094
  -9481043.28149  -7370923.91047  21534447.8044   21534445.5034
      -222.5724
 04  9  3 16 42 15.0030000  0  6G20G11G14G23G 1G25
  -6805853.96148  -5297357.05144  23299786.1084   23299783.7144
      2059.9634
  -3622885.22749  -2811818.19946  22293686.5854   22293683.7654
     -1333.5124
  17764159.41847  13833227.93443  23614000.9294   23613999.0074
     -3386.8754
  -1648084.53547  -1277517.64542  24600452.5384   24600447.7884
      2150.9494
 -10706354.69149  -8340996.89846  21933932.6014   21933930.9334
       673.5974
  -9477571.66449  -7368218.75447  21535108.7654   21535106.4684
      -231.4414
 04  9  3 16 42 30.0030000  0  6G20G11G14G23G 1G25
  -6836719.10548  -5321407.80144  23293912.3744   23293910.5264
      2057.6764
  -3602747.48849  -2796126.46145  22297518.2884   22297515.9374
     -1342.5164
  17814984.52747  13872831.89143  23623672.3824   23623670.6044
     -3388.3414
  -1680313.64547  -1302631.19942  24594319.1474   24594314.9484
      2148.6074
 -10716385.90249  -8348813.42646  21932023.8194   21932022.0624
       668.7474
  -9473966.55549  -7365409.58647  21535794.6324   21535792.4914
      -240.3414
 04  9  3 16 42 45.0030000  0  6G20G11G14G23G 1G25
  -6867548.35948  -5345430.57844  23288045.6404   23288044.0114
      2055.2844
  -3582473.31249  -2780328.41445  22301376.1634   22301374.2574
     -1351.6124
  17865833.06347  13912454.11343  23633348.8824   23633346.3154
     -3389.9024
  -1712506.07047  -1327716.19943  24588193.0464   24588188.9054
      2146.1624
 -10726342.86749  -8356572.09446  21930129.2024   21930127.1284
       663.7984
  -9470226.28549  -7362495.09047  21536506.3354   21536504.2804
      -249.3514
 04  9  3 16 43  0.0030000  0  6G20G11G14G23G 1G25
  -6898341.76248  -5369425.43044  23282186.1014   23282184.0544
      2052.8934
  -3562063.07048  -2764424.34845  22305260.6714   22305258.2494
     -1360.6834
  17916704.51647  13952094.18443  23643029.3744   23643026.9054
     -3391.4304
  -1744662.13748  -1352772.84043  24582074.3274   24582069.9994
      2143.7384
 -10736226.00048  -8364273.22746  21928248.2574   21928246.6714
       658.8764
  -9466351.18749  -7359475.53947  21537243.5694   21537241.4174
      -258.3404
 04  9  3 16 43 15.0030000  0  6G20G11G14G23G 1G25
  -6929098.92248  -5393392.04744  23276332.9054   23276331.0384
      2050.4774
  -3541516.77348  -2748414.26246  22309170.4374   22309168.2804
     -1369.7534
  17967598.87547  13991752.10543  23652714.1014   23652711.5074
     -3392.9574
  -1776781.54348  -1377800.94543  24575962.8904   24575958.5654
      2141.2944
 -10746035.20349  -8371916.75846  21926381.7494   21926379.7884
       653.9474
  -9462341.14849  -7356350.83247  21538006.9054   21538004.5974
      -267.3364
 04  9  3 16 43 30.0030000  0  6G20G11G14G23G 1G25
  -6959821.06648  -5417331.37144  23270487.0224   23270484.8704
      2048.1434
  -3520835.90248  -2732299.31246  22313105.5384   22313103.0974
     -1378.7254
  18018514.49247  14031426.59843  23662403.1084   23662400.6204
     -3394.3744
  -1808865.75047  -1402801.60542  24569856.7334   24569852.9604
      2138.9474
 -10755771.91848  -8379503.80146  21924528.7334   21924527.2884
       649.1144
  -9458197.73449  -7353122.20347  21538795.2414   21538792.8514
      -276.2284
 04  9  3 16 43 45.0030000  0  6G20G11G14G23G 1G25
  -6990507.67248  -5441243.00844  23264647.5624   23264645.5264
      2045.7744
  -3500020.12549  -2716079.23045  22317066.8904   22317064.2534
     -1387.7184
  18069451.73447  14071117.93443  23672096.4134   23672094.1874
     -3395.8164
  -1840914.19947  -1427774.41043  24563758.3974   24563754.8784
      2136.5634
 -10765435.67248  -8387033.98846  21922689.8744   21922688.1404
       644.2504
  -9453920.47749  -7349789.28147  21539609.2334   21539606.9834
      -285.1514
 04  9  3 16 44  0.0030000  0  6G20G11G14G23G 1G25
  -7021158.04748  -5465126.41044  23258815.5544   23258812.4334
      2043.3584
  -3479069.19948  -2699753.84845  22321053.7654   22321050.9484
     -1396.7284
  18120410.93847  14110826.37943  23681793.4684   23681790.7414
     -3397.2804
  -1872926.43448  -1452718.98443  24557666.5774   24557663.4014
      2134.1494
 -10775026.06248  -8394507.01646  21920864.6794   21920863.4444
       639.3594
  -9449508.88349  -7346351.67247  21540448.6474   21540446.0694
      -294.1064
 04  9  3 16 44 15.0030000  0  6G20G11G14G23G 1G25
  -7051772.40248  -5488981.74644  23252989.5074   23252987.0584
      2040.9574
  -3457983.53948  -2683323.46545  22325066.1554   22325063.8434
     -1405.7114
  18171391.59447  14150551.55543  23691494.6794   23691492.3004
     -3398.7104
  -1904902.79748  -1477635.61343  24551581.7654   24551578.3864
      2131.7584
 -10784543.50448  -8401923.18446  21919053.8514   21919051.9444
       634.4964
  -9444963.18749  -7342809.58246  21541313.6474   21541311.3584
      -303.0464
 04  9  3 16 44 30.0030000  0  6G20G11G14G23G 1G25
  -7082349.28948  -5512807.88744  23247170.6944   23247168.6794
      2038.4594
  -3436762.09048  -2666787.28145  22329104.6474   22329101.9764
     -1414.7634
  18222394.62147  14190294.14843  23701200.1634   23701198.3044
     -3400.2024
  -1936842.04747  -1502523.30543  24545503.7184   24545500.6714
      2129.2834
 -10793986.87148  -8409281.65246  21917256.6164   21917255.0154
       629.5584
  -9440282.32049  -7339162.15647  21542204.6084   21542201.8624
      -312.0584
 04  9  3 16 44 45.0030000  0  6G20G11G14G23G 1G25
  -7112889.91048  -5536605.76244  23241359.2574   23241356.8004
      2036.0414
  -3415406.44548  -2650146.53145  22333168.2724   22333165.3784
     -1423.7104
  18273418.61347  14230053.07843  23710910.0384   23710908.0344
     -3401.5994
  -1968745.35247  -1527383.01243  24539433.2414   24539429.2724
      2126.8874
 -10803357.58248  -8416583.49246  21915473.4994   21915472.1284
       624.7144
  -9435467.84848  -7335410.61747  21543120.6714   21543118.3044
      -320.9654
 04  9  3 16 45  0.0030000  0  6G20G11G14G23G 1G25
  -7143393.10948  -5560374.48844  23235554.2414   23235552.0854
      2033.5474
  -3393915.85249  -2633400.63345  22337257.3904   22337254.8314
     -1432.7064
  18324464.33647  14269828.93843  23720624.0624   23720621.8904
     -3403.0484
  -2000611.80147  -1552214.00043  24533368.8354   24533365.1014
      2124.4304
 -10812654.81248  -8423828.08246  21913704.3434   21913702.9644
       619.8154
  -9430518.73448  -7331554.17247  21544062.4994   21544060.0424
      -329.9414
 04  9  3 16 45 15.0030000  0  6G20G11G14G23G 1G25
  -7173863.84048  -5584117.91044  23229756.4294   23229753.8354
      2031.3824
  -3372295.56248  -2616553.65645  22341371.8664   22341369.0384
     -1441.3534
  18375526.62547  14309617.71543  23730340.5224   23730338.5034
     -3404.1534
  -2032446.55147  -1577020.26643  24527310.6014   24527307.1674
      2122.3174
 -10821883.56648  -8431019.31246  21911948.0774   21911946.3474
       615.2504
  -9425440.11749  -7327596.81247  21545028.9524   21545026.6404
      -338.5744
 04  9  3 16 45 30.0030000  0  6G20G11G14G23G 1G25
  -7204296.21548  -5607831.43744  23223965.1714   23223962.0504
      2028.8254
  -3350539.69948  -2599601.04745  22345511.5544   22345509.7024
     -1450.3914
  18426610.95347  14349423.66843  23740061.6874   23740059.5344
     -3405.6224
  -2064243.80947  -1601797.32842  24521259.5544   24521256.1244
      2119.8174
 -10831038.26248  -8438152.83246  21910206.3044   21910204.7454
       610.3134
  -9420226.47348  -7323534.23447  21546020.8904   21546018.7184
      -347.5764
 04  9  3 16 45 45.0030000  0  6G20G11G14G23G 1G25
  -7234689.17648  -5631514.25844  23218181.0694   23218178.8864
      2026.1974
  -3328647.75448  -2582542.40245  22349677.9604   22349675.5654
     -1459.4634
  18477717.83647  14389247.19143  23749786.6554   23749784.9404
     -3407.1264
  -2096002.78947  -1626544.55542  24515215.8354   24515212.3274
      2117.2654
 -10840118.11348  -8445228.03946  21908478.5224   21908476.4444
       605.3234
  -9414876.97348  -7319365.79747  21547038.5854   21547036.5154
      -356.6334
 04  9  3 16 46  0.0030000  0  6G20G11G14G23G 1G25
  -7265044.70748  -5655167.90644  23212404.8824   23212402.3124
      2023.7024
  -3306621.79348  -2565379.32446  22353869.3194   22353867.2764
     -1468.3974
  18528845.31647  14429086.75843  23759516.1794   23759514.1634
     -3408.4994
  -2127725.36347  -1651263.43043  24509179.9834   24509175.6474
      2114.8384
 -10849125.19148  -8452246.53546  21906764.2654   21906762.5074
       600.4724
  -9409393.50848  -7315092.96147  21548082.2884   21548080.2414
      -365.5644
 04  9  3 16 46 15.0030000  0  6G20G11G14G23G 1G25
  -7295362.38748  -5678792.07044  23206635.5154   23206633.3864
      2021.1794
  -3284462.09049  -2548112.03145  22358086.1634   22358084.0544
     -1477.3144
  18579993.19947  14468942.22743  23769249.3044   23769247.1084
     -3409.8594
  -2159411.50048  -1675953.89842  24503149.9054   24503145.7494
      2112.4094
 -10858059.46948  -8459208.29746  21905064.1554   21905062.4014
       595.6184
  -9403775.95748  -7310715.64846  21549151.0854   21549149.0894
      -374.5034
 04  9  3 16 46 30.0030000  0  6G20G11G14G23G 1G25
  -7325639.99248  -5702385.01644  23200873.8274   23200871.8354
      2018.5074
  -3262166.64149  -2530738.97345  22362328.9214   22362326.4444
     -1486.3634
  18631163.33647  14508815.04343  23778986.9444   23778984.5034
     -3411.3424
  -2191059.18047  -1700614.42243  24497127.6164   24497123.2844
      2109.8454
 -10866919.00049  -8466111.82846  21903378.0774   21903376.4054
       590.6354
  -9398022.47349  -7306232.41846  21550246.0304   21550243.8584
      -383.5664
 04  9  3 16 46 45.0030000  0  6G20G11G14G23G 1G25
  -7355880.22348  -5725948.80944  23195119.5224   23195117.4134
      2016.0154
  -3239738.48449  -2513262.50045  22366596.9214   22366594.3974
     -1495.2104
  18682352.74247  14548702.86743  23788727.7964   23788725.1904
     -3412.6274
  -2222670.98447  -1725246.96543  24491111.4914   24491107.4404
      2107.4544
 -10875706.59849  -8472959.29746  21901706.0154   21901704.4134
       585.8404
  -9392135.93049  -7301645.50447  21551366.0854   21551363.9484
      -392.4364
 04  9  3 16 47  0.0030000  0  6G20G11G14G23G 1G25
  -7386080.92249  -5749481.82044  23189372.5774   23189370.6324
      2013.3804
  -3217175.71149  -2495681.12945  22370890.5384   22370887.5264
     -1504.1854
  18733563.34847  14588607.22343  23798472.4914   23798470.2694
     -3414.0404
  -2254245.04747  -1749850.12542  24485103.7654   24485099.0974
      2104.9384
 -10884420.35949  -8479749.24646  21900048.0624   21900046.1204
       580.9174
  -9386114.45749  -7296953.44547  21552512.3194   21552510.0384
      -401.4324
 04  9  3 16 47 15.0030000  0  6G20G11G14G23G 1G25
  -7416243.36349  -5772985.01244  23183632.9524   23183630.6904
      2010.8294
  -3194479.86749  -2477996.07045  22375209.4374   22375206.5194
     -1513.0564
  18784793.48447  14628526.78143  23808221.6874   23808219.4214
     -3415.3424
  -2285782.84848  -1774425.02342  24479102.2184   24479097.3584
      2102.5204
 -10893061.81249  -8486482.84046  21898403.2024   21898401.5974
       576.0974
  -9379959.48449  -7292157.36747  21553683.4444   21553680.9724
      -410.3324
 04  9  3 16 47 30.0030000  0  6G20G11G14G23G 1G25
  -7446365.40249  -5796456.73044  23177900.8974   23177898.5264
      2008.1364
  -3171649.42649  -2460206.12945  22379554.1244   22379551.1754
     -1522.0294
  18836044.89846  14668462.93043  23817974.6944   23817971.8624
     -3416.7614
  -2317282.35548  -1798970.07442  24473108.2804   24473103.2294
      2099.9674
 -10901629.06649  -8493158.61346  21896773.0544   21896771.1364
       571.1504
  -9373669.15649  -7287255.81247  21554880.7654   21554878.1284
      -419.3554
 04  9  3 16 47 45.0030000  0  6G20G11G14G23G 1G25
  -7476448.38348  -5819898.00444  23172176.1554   23172173.8744
      2005.5324
  -3148685.93749  -2442312.49645  22383923.4134   22383921.1014
     -1530.8994
  18887315.99247  14708414.41443  23827731.0854   23827728.0114
     -3418.0734
  -2348745.14548  -1823486.53143  24467120.7724   24467116.5464
      2097.5194
 -10910123.72749  -8499777.82846  21895156.4604   21895155.2414
       566.3114
  -9367245.04349  -7282250.01647  21556103.0544   21556100.0654
      -428.2744
 04  9  3 16 48  0.0030000  0  6G20G11G14G23G 1G25
  -7506491.59048  -5843308.28544  23166459.0074   23166457.1794
      2002.8804
  -3125589.01649  -2424314.91045  22388318.6324   22388316.3124
     -1539.7954
  18938607.17646  14748381.56343  23837491.0384   23837488.5654
     -3419.4124
  -2380170.48847  -1847973.80943  24461140.2184   24461136.4954
      2095.0234
 -10918545.22349  -8506340.03546  21893554.0934   21893552.2224
       561.4334
  -9360686.67649  -7277139.60247  21557350.9604   21557348.5344
      -437.2244
 04  9  3 16 48 15.0030000  0  6G20G11G14G23G 1G25
  -7536494.18049  -5866686.92244  23160749.9134   23160747.4874
      2000.1734
  -3102358.13749  -2406212.93745  22392739.4134   22392737.0194
     -1548.7254
  18989918.93047  14788364.72343  23847255.7494   23847253.2844
     -3420.7844
  -2411557.69948  -1872431.34443  24455168.1084   24455164.3864
      2092.4814
 -10926892.98449  -8512844.78146  21891965.5074   21891963.9214
       556.5174
  -9353993.42649  -7271924.08247  21558624.8194   21558622.4254
      -446.2174
 04  9  3 16 48 30.0030000  0  6G20G11G14G23G 1G25
  -7566456.34048  -5890034.03944  23155047.7654   23155045.9174
      1997.4774
  -3078993.87149  -2388007.02745  22397185.7024   22397183.0194
     -1557.6184
  19041250.71546  14828363.49643  23857024.2104   23857021.3624
     -3422.1194
  -2442907.17647  -1896859.49643  24449202.0544   24449198.4914
      2089.9654
 -10935167.42249  -8519292.39146  21890390.3904   21890389.0034
       551.6294
  -9347165.81649  -7266603.86746  21559924.2494   21559921.7334
      -455.1744
 04  9  3 16 48 45.0030000  0  6G20G11G14G23G 1G25
  -7596376.37148  -5913348.34044  23149354.3434   23149352.3434
      1994.6694
  -3055494.85249  -2369696.11345  22401657.0934   22401654.7064
     -1566.6014
  19092603.77747  14868378.84443  23866795.9604   23866793.6044
     -3423.5374
  -2474217.42248  -1921257.09843  24443244.1084   24443240.6474
      2087.3504
 -10943367.21949  -8525681.84046  21888830.5934   21888828.5384
       546.6534
  -9340202.38749  -7261177.81646  21561249.0224   21561246.8944
      -464.2294
 04  9  3 16 49  0.0030000  0  6G20G11G14G23G 1G25
  -7626255.14548  -5936630.48844  23143668.6244   23143666.0154
      1991.9184
  -3031862.20749  -2351281.07845  22406154.5304   22406151.6904
     -1575.5104
  19143977.00046  14908409.90243  23876571.7654   23876569.8544
     -3424.8824
  -2505489.41447  -1945624.85943  24437292.7184   24437289.5974
      2084.7994
 -10951493.36349  -8532013.90246  21887284.4214   21887282.1364
       541.7434
  -9333104.14149  -7255646.72346  21562599.8194   21562597.3944
      -473.2164
 04  9  3 16 49 15.0030000  0  6G20G11G14G23G 1G25
  -7656090.64548  -5959878.92644  23137991.1554   23137988.6634
      1989.0334
  -3008094.35949  -2332760.68745  22410677.3744   22410674.3624
     -1584.5234
  19195372.03947  14948457.96143  23886352.0074   23886350.4054
     -3426.3364
  -2536721.26247  -1969961.34443  24431349.8584   24431346.5154
      2082.1234
 -10959544.14149  -8538287.23446  21885752.3744   21885750.0694
       536.7184
  -9325869.34849  -7250009.22746  21563976.2334   21563973.7724
      -482.3204
 04  9  3 16 49 30.0030000  0  6G20G11G14G23G 1G25
  -7685885.89549  -5983095.99244  23132321.3974   23132318.7224
      1986.3504
  -2984194.73049  -2314137.61745  22415225.4604   22415222.6794
     -1593.3094
  19246785.50447  14988520.37543  23896135.4994   23896133.8824
     -3427.5644
  -2567916.12147  -1994269.00843  24425413.4214   24425410.1794
      2079.6574
 -10967522.85248  -8544504.40246  21884233.8584   21884231.7414
       531.9144
  -9318501.19149  -7244267.80146  21565378.4134   21565376.2264
      -491.2104
 04  9  3 16 49 45.0030000  0  6G20G11G14G23G 1G25
  -7715637.67648  -6006279.19544  23126659.8194   23126657.0154
      1983.4524
  -2960160.43049  -2295409.60245  22419799.0544   22419796.1204
     -1602.2874
  19298220.25447  15028599.37543  23905923.2804   23905921.8974
     -3428.9834
  -2599071.05547  -2018545.56243  24419485.1084   24419481.2414
      2076.9964
 -10975426.54749  -8550663.12546  21882729.7184   21882727.6014
       526.9134
  -9310996.76249  -7238420.19547  21566806.3824   21566804.1984
      -500.2954
 04  9  3 16 50  0.0030000  0  6G20G11G14G23G 1G25
  -7745346.43748  -6029428.87544  23121006.4214   23121003.2964
      1980.5844
  -2935992.28149  -2276577.29745  22424398.2414   22424394.8314
     -1611.2104
  19349675.50447  15068694.34443  23915715.2654   23915713.0974
     -3430.3504
  -2630186.67248  -2042791.47743  24413563.9374   24413560.8394
      2074.3744
 -10983255.91048  -8556763.93446  21881240.0694   21881238.1404
       521.9584
  -9303356.86349  -7232467.03947  21568260.5694   21568258.2264
      -509.3274
 04  9  3 16 50 15.0030000  0  6G20G11G14G23G 1G25
  -7775012.18049  -6052545.03544  23115361.5544   23115358.3584
      1977.7164
  -2911690.59849  -2257640.92245  22429022.5934   22429019.9334
     -1620.1124
  19401151.02347  15108805.12143  23925510.9684   23925509.3514
     -3431.7014
  -2661263.13348  -2067006.87943  24407650.4214   24407647.2804
      2071.7644
 -10991011.11749  -8562806.93746  21879764.1324   21879762.8084
       517.0144
  -9295581.64549  -7226408.43047  21569740.0934   21569737.6904
      -518.3484
 04  9  3 16 50 30.0030000  0  6G20G11G14G23G 1G25
  -7804634.58249  -6075627.41444  23109724.3124   23109721.9374
      1974.8274
  -2887255.41849  -2238600.53145  22433672.4684   22433670.1514
     -1629.0124
  19452646.75847  15148931.64143  23935310.6244   23935307.8624
     -3433.0494
  -2692300.18748  -2091191.56643  24401744.3664   24401741.6364
      2069.1374
 -10998692.18448  -8568792.18746  21878302.7334   21878300.5194
       512.0714
  -9287671.16449  -7220244.42247  21571245.6404   21571242.9444
      -527.3654
 04  9  3 16 50 45.0030000  0  6G20G11G14G23G 1G25
  -7834214.39849  -6098676.62144  23104095.5224   23104093.0424
      1971.9884
  -2862687.84449  -2219456.98046  22438347.6944   22438344.9134
     -1637.8384
  19504161.53947  15189073.00043  23945112.8194   23945111.4374
     -3434.3194
  -2723298.89147  -2115346.36743  24395845.6404   24395842.7224
      2066.5804
 -11006300.01648  -8574720.36346  21876854.9374   21876853.1794
       507.1894
  -9279626.24648  -7213975.66047  21572776.0774   21572774.0934
      -536.3284
 04  9  3 16 51  0.0030000  0  6G20G11G14G23G 1G25
  -7863750.03149  -6121691.39144  23098475.2264   23098472.6324
      1969.0424
  -2837986.63749  -2200209.29745  22443047.8974   22443045.5074
     -1646.7474
  19555696.72347  15229230.26242  23954919.5304   23954917.6634
     -3435.6794
  -2754257.62947  -2139470.03943  24389954.2334   24389950.8704
      2063.9164
 -11013833.25048  -8580590.40646  21875421.5224   21875419.4764
       502.2164
  -9271445.59049  -7207601.12147  21574333.3044   21574330.5034
      -545.3774
 04  9  3 16 51 15.0030000  0  6G20G11G14G23G 1G25
  -7893241.14149  -6144671.46944  23092863.0544   23092860.7184
      1966.0744
  -2813151.63749  -2180857.37145  22447774.0464   22447771.3234
     -1655.6674
  19607252.31347  15269403.43043  23964730.3514   23964728.5694
     -3437.0394
  -2785176.29748  -2163562.49243  24384070.7964   24384067.1944
      2061.2454
 -11021291.83249  -8586402.29346  21874002.1014   21873999.9834
       497.2394
  -9263129.15249  -7201120.78547  21575915.9524   21575913.8234
      -554.4294
 04  9  3 16 51 30.0030000  0  6G20G11G14G23G 1G25
  -7922689.28949  -6167618.06644  23087259.4374   23087256.9214
      1963.2104
  -2788185.10249  -2161402.92645  22452525.2884   22452522.4134
     -1664.4364
  19658826.32047  15309590.93843  23974544.8904   23974542.5344
     -3438.2674
  -2816056.65248  -2187625.08243  24378194.6244   24378190.6474
      2058.6904
 -11028677.67649  -8592157.50046  21872596.6874   21872594.5934
       492.3904
  -9254678.91449  -7194536.18447  21577523.6474   21577521.1014
      -563.3494
 04  9  3 16 51 45.0030000  0  6G20G11G14G23G 1G25
  -7952092.94549  -6190529.99644  23081663.7184   23081661.7534
      1960.2444
  -2763085.80949  -2141845.05545  22457301.2264   22457298.3704
     -1673.2864
  19710419.93448  15349793.73043  23984362.5544   23984360.4254
     -3439.5744
  -2846897.20748  -2211656.67243  24372325.3434   24372322.2294
      2056.0374
 -11035989.35249  -8597854.90246  21871205.1164   21871203.1364
       487.4454
  -9246093.39149  -7187846.17647  21579157.4294   21579155.2224
      -572.3684
 04  9  3 16 52  0.0030000  0  6G20G11G14G23G 1G25
  -7981452.15248  -6213407.28544  23076076.7654   23076074.6284
      1957.2804
  -2737854.10549  -2122183.99646  22462102.7414   22462099.8474
     -1682.1144
  19762032.93847  15390011.64542  23994183.8824   23994182.4014
     -3440.8674
  -2877698.30548  -2235657.50443  24366464.5464   24366460.7724
      2053.4074
 -11043227.07049  -8603494.68446  21869827.9054   21869825.6204
       482.5154
  -9237372.92649  -7181051.00847  21580816.7264   21580814.5264
      -581.3644
 04  9  3 16 52 15.0030000  0  6G20G11G14G23G 1G25
  -8010765.16449  -6236248.58244  23070499.0304   23070496.4334
      1954.2014
  -2712488.69949  -2102418.75845  22466929.2414   22466926.7264
     -1691.0274
  19813666.64547  15430245.66443  24004010.1634   24004007.9174
     -3442.2474
  -2908458.43448  -2259626.43443  24360610.5464   24360607.1124
      2050.6754
 -11050389.57049  -8609075.84846  21868464.6794   21868462.6514
       477.5004
  -9228516.19949  -7174149.66047  21582502.2184   21582499.9564
      -590.4484
 04  9  3 16 52 30.0030000  0  6G20G11G14G23G 1G25
  -8040033.57449  -6259055.12544  23064929.3044   23064927.1164
      1951.2274
  -2686991.49649  -2082550.81645  22471781.3434   22471778.6084
     -1699.8144
  19865319.07447  15470494.28943  24013839.1084   24013836.9684
     -3443.4954
  -2939179.14148  -2283564.62543  24354764.8354   24354760.9684
      2048.0474
 -11057478.59849  -8614599.76646  21867115.9684   21867113.6514
       472.6024
  -9219525.02349  -7167143.55147  21584212.8514   21584210.6444
      -599.4124
 04  9  3 16 52 45.0030000  0  6G20G11G14G23G 1G25
  -8069257.84049  -6281827.27744  23059367.8824   23059365.7694
      1948.2844
  -2661363.40649  -2062580.88745  22476658.2724   22476655.5624
     -1708.5394
  19916989.32048  15510756.80143  24023671.5544   24023669.5624
     -3444.6834
  -2969861.19548  -2307472.72743  24348925.9294   24348922.1834
      2045.4704
 -11064494.93749  -8620067.03946  21865780.8974   21865778.6474
       467.7564
  -9210400.09449  -7160033.21547  21585949.7184   21585947.1364
      -608.3294
 04  9  3 16 53  0.0030000  0  6G20G11G14G23G 1G25
  -8098436.38349  -6304563.79344  23053815.8584   23053813.0774
      1945.2364
  -2635603.30149  -2042508.09045  22481560.1474   22481557.6244
     -1717.3404
  19968678.72348  15551034.23842  24033507.9444   24033504.9484
     -3445.9604
  -3000503.22348  -2331349.61343  24343095.2184   24343090.6244
      2042.8024
 -11071437.23449  -8625476.61346  21864459.7574   21864457.6124
       462.8204
  -9201140.09049  -7152817.63747  21587711.6244   21587709.3434
      -617.3344
 04  9  3 16 53 15.0030000  0  6G20G11G14G23G 1G25
  -8127567.12149  -6327263.06644  23048272.3514   23048270.0464
      1942.0494
  -2609709.10549  -2022330.80945  22486487.8824   22486484.9444
     -1726.2804
  20020389.07047  15591328.00043  24043347.9444   24043346.2224
     -3447.3574
  -3031103.27347  -2355193.80942  24337271.2024   24337267.7494
      2040.0034
 -11078303.63749  -8630827.05946  21863153.1084   21863151.1634
       457.7604
  -9191743.11749  -7145495.32447  21589499.7964   21589497.2374
      -626.4654
 04  9  3 16 53 30.0030000  0  6G20G11G14G23G 1G25
  -8156652.78549  -6349927.21944  23042737.5304   23042734.9014
      1939.0444
  -2583684.22349  -2002051.68745  22491440.2494   22491437.3154
     -1734.9924
  20072117.27747  15631635.65643  24053191.4214   24053189.4724
     -3448.5474
  -3061664.20747  -2379007.48842  24331456.1164   24331451.9054
      2037.3964
 -11085097.20349  -8636120.74246  21861860.4914   21861858.3864
       452.9044
  -9182212.41449  -7138068.80947  21591313.4054   21591311.0734
      -635.3804
 04  9  3 16 53 45.0030000  0  6G20G11G14G23G 1G25
  -8185695.41049  -6372557.83244  23037210.7574   23037207.8864
      1936.1754
  -2557531.05949  -1981672.62145  22496416.9524   22496414.0504
     -1743.5444
  20123860.89548  15671955.33643  24063037.5074   24063036.1014
     -3449.5744
  -3092188.18047  -2402792.38742  24325647.1714   24325643.2844
      2034.9324
 -11091820.24649  -8641359.47346  21860581.0384   21860579.0544
       448.2034
  -9172550.14149  -7130539.76647  21593152.2184   21593149.9374
      -644.1524
 04  9  3 16 54  0.0030000  0  6G20G11G14G23G 1G25
  -8214693.07449  -6395153.41444  23031692.9764   23031689.7884
      1933.1784
  -2531247.98449  -1961192.31245  22501418.2574   22501415.5384
     -1752.2054
  20175621.64548  15712288.37143  24072887.7184   24072885.8514
     -3450.7174
  -3122673.47747  -2426547.12543  24319846.1404   24319841.7334
      2032.3534
 -11098471.00849  -8646541.88346  21859315.5074   21859313.3124
       443.3844
  -9162754.65649  -7122906.93047  21595016.4604   21595013.9954
      -653.0324
 04  9  3 16 54 15.0030000  0  6G20G11G14G23G 1G25
  -8243644.34449  -6417712.84444  23026183.4524   23026180.6674
      1930.0854
  -2504834.01649  -1940610.01645  22506445.1014   22506442.2414
     -1760.9314
  20227400.52748  15752635.53143  24082740.9764   24082738.4644
     -3451.9264
  -3153118.93748  -2450270.83243  24314052.4444   24314048.4874
      2029.6974
 -11105048.30949  -8651667.04746  21858063.4294   21858061.4484
       438.4874
  -9152824.85549  -7115169.41847  21596905.7884   21596903.6404
      -661.9874
 04  9  3 16 54 30.0030000  0  6G20G11G14G23G 1G25
  -8272547.66049  -6440234.90244  23020683.4374   23020680.3824
      1926.8884
  -2478287.79349  -1919924.65245  22511496.3744   22511493.9054
     -1769.7484
  20279198.70748  15792997.71143  24092597.8664   24092595.6834
     -3453.2124
  -3183522.91448  -2473962.23043  24308267.2654   24308263.4684
      2026.9324
 -11111550.76649  -8656733.89146  21856826.0464   21856824.1514
       433.4974
  -9142759.29349  -7107326.12546  21598821.0384   21598818.6984
      -671.0374
 04  9  3 16 54 45.0030000  0  6G20G11G14G23G 1G25
  -8301407.95749  -6462723.43744  23015191.3584   23015188.6714
      1924.0204
  -2451614.79749  -1899140.51245  22516572.0694   22516569.3394
     -1778.2004
  20331011.04747  15833370.94542  24102457.3354   24102455.2064
     -3454.1564
  -3213890.75448  -2497625.46943  24302489.0154   24302484.9724
      2024.5234
 -11117983.66449  -8661746.53546  21855602.0464   21855600.2224
       428.8604
  -9132563.29749  -7099381.19946  21600761.6474   21600759.0774
      -679.7334
 04  9  3 16 55  0.0030000  0  6G20G11G14G23G 1G25
  -8330224.11749  -6485177.57844  23009707.6324   23009705.3434
      1921.0774
  -2424814.36749  -1878257.07045  22521672.1324   22521669.7374
     -1786.6954
  20382838.30148  15873755.78943  24112319.4604   24112317.7224
     -3455.1504
  -3244221.41448  -2521259.72743  24296717.1324   24296713.6794
      2022.0444
 -11124346.16449  -8666704.31646  21854391.4134   21854389.7804
       424.1674
  -9122236.06649  -7091334.00847  21602726.3434   21602724.3274
      -688.4824
 04  9  3 16 55 15.0030000  0  6G20G11G14G23G 1G25
  -8358993.94949  -6507595.62144  23004233.2104   23004230.6984
      1917.9894
  -2397884.69949  -1857272.93045  22526796.5854   22526794.1364
     -1795.3114
  20434682.24648  15914153.64143  24122185.2024   24122183.2804
     -3456.2634
  -3274512.81648  -2544863.39543  24290952.6324   24290949.1084
      2019.4274
 -11130636.30549  -8671605.73046  21853194.2414   21853193.1444
       419.3434
  -9111775.60549  -7083183.00846  21604717.1474   21604714.6514
      -697.3644
 04  9  3 16 55 30.0030000  0  6G20G11G14G23G 1G25
  -8387719.22749  -6529978.95344  22998766.8354   22998764.3944
      1915.0184
  -2370827.88749  -1836189.71945  22531945.5154   22531942.8744
     -1803.7874
  20486540.80947  15954562.89142  24132054.0464   24132051.6984
     -3457.2374
  -3304766.97748  -2568438.03944  24285195.4994   24285192.0854
      2016.9444
 -11136856.10249  -8676452.32046  21852010.7964   21852009.3514
       414.6534
  -9101184.15649  -7074929.93047  21606732.6874   21606729.9794
      -706.0974
 04  9  3 16 55 45.0030000  0  6G20G11G14G23G 1G25
  -8416399.27349  -6552327.03145  22993309.2184   22993306.9954
      1912.0034
  -2343643.60249  -1815007.16445  22537118.5154   22537116.4214
     -1812.2864
  20538414.37547  15994983.82043  24141924.8044   24141923.0154
     -3458.2384
  -3334983.42648  -2591983.31243  24279445.4764   24279442.0074
      2014.4304
 -11143005.17249  -8681243.78546  21850840.7414   21850839.0074
       409.9384
  -9090461.14849  -7066574.35246  21608773.4914   21608770.8044
      -714.8674
 04  9  3 16 56  0.0030000  0  6G20G11G14G23G 1G25
  -8445034.48049  -6574640.16844  22987860.0854   22987858.1714
      1909.0144
  -2316332.77049  -1793726.01245  22542315.5384   22542313.1164
     -1820.7224
  20590302.12548  16035415.81643  24151798.7184   24151797.1284
     -3459.1834
  -3365162.73048  -2615499.63743  24273702.9524   24273699.1044
      2011.9544
 -11149084.16849  -8685980.65246  21849683.4994   21849682.1944
       405.2664
  -9079607.43449  -7058116.90647  21610838.7804   21610836.1984
      -723.5814
 04  9  3 16 56 15.0030000  0  6G20G11G14G23G 1G25
  -8473622.89849  -6596916.84844  22982419.7104   22982417.5504
      1905.8954
  -2288893.90249  -1772345.09445  22547537.0854   22547534.7294
     -1829.2584
  20642205.65247  16075860.09842  24161675.7884   24161673.9214
     -3460.2354
  -3395303.19148  -2638985.69543  24267967.6474   24267962.9134
      2009.3644
 -11155091.45349  -8690661.65246  21848540.5074   21848538.6554
       400.4864
  -9068621.36349  -7049556.34047  21612929.1084   21612927.3354
      -732.4054
 04  9  3 16 56 30.0030000  0  6G20G11G14G23G 1G25
  -8502167.07449  -6619159.05945  22976988.3124   22976985.8664
      1902.9454
  -2261329.74249  -1750866.53545  22552782.1714   22552779.8744
     -1837.6114
  20694122.11348  16116314.45742  24171555.1714   24171553.3544
     -3461.0974
  -3425407.46148  -2662443.55543  24262238.6084   24262234.6674
      2006.9514
 -11161029.73849  -8695288.88346  21847410.5464   21847408.5814
       395.8864
  -9057505.60249  -7040894.71147  21615044.2574   21615042.1674
      -741.0514
 04  9  3 16 56 45.0030000  0  6G20G11G14G23G 1G25
  -8530665.64149  -6641365.73844  22971564.8044   22971562.4444
      1899.9044
  -2233639.43749  -1729289.68745  22558051.3744   22558049.2024
     -1846.0204
  20746052.45348  16156779.63742  24181437.0384   24181435.6404
     -3462.0234
  -3455474.40648  -2685872.33643  24256516.8354   24256512.5934
      2004.4634
 -11166897.96549  -8699861.52346  21846294.1324   21846291.8704
       391.2154
  -9046259.12149  -7032131.22347  21617184.7264   21617182.0424
      -749.7654
 04  9  3 16 57  0.0030000  0  6G20G11G14G23G 1G25
  -8559117.69949  -6663536.17244  22966150.7884   22966148.5734
      1896.8044
  -2205822.44549  -1707614.11745  22563344.7884   22563342.5344
     -1854.4664
  20797997.27748  16197256.09042  24191321.8044   24191320.1364
     -3462.9884
  -3485503.16047  -2709271.34843  24250802.1244   24250798.4484
      2001.9174
 -11172695.47349  -8704379.05946  21845190.9374   21845188.6204
       386.5014
  -9034881.33649  -7023265.41847  21619349.7804   21619347.3194
      -758.5194
 04  9  3 16 57 15.0030000  0  6G20G11G14G23G 1G25
  -8587520.50849  -6685668.22344  22960745.7964   22960743.1944
      1893.5214
  -2177876.28149  -1685837.89545  22568662.5624   22568660.2574
     -1863.0784
  20849959.10947  16237745.81642  24201210.4444   24201207.7654
     -3464.1224
  -3515491.09448  -2732638.55943  24245095.2574   24245091.3354
      1999.1964
 -11178419.71149  -8708839.50446  21844101.3584   21844099.3744
       381.6164
  -9023369.77749  -7014295.36747  21621540.3514   21621537.9564
      -767.4374
 04  9  3 16 57 30.0030000  0  6G20G11G14G23G 1G25
  -8615875.93049  -6707763.35544  22955350.0464   22955347.6244
      1890.3614
  -2149803.41849  -1663962.95345  22574005.2104   22574002.1014
     -1871.5244
  20901935.67648  16278247.01643  24211100.8974   24211099.4134
     -3465.1044
  -3545440.47748  -2755975.72743  24239396.7184   24239392.3354
      1996.6264
 -11184073.00849  -8713244.66046  21843025.6554   21843023.8904
       376.8864
  -9011726.75449  -7005222.89546  21623755.9444   21623753.5384
      -776.2024
 04  9  3 16 57 45.0030000  0  6G20G11G14G23G 1G25
  -8644182.83649  -6729820.67644  22949963.4294   22949960.6984
      1887.1274
  -2121603.25049  -1641988.81245  22579371.4054   22579368.5464
     -1880.0114
  20953927.91048  16318760.40243  24220994.7884   24220993.3514
     -3466.1494
  -3575350.23048  -2779282.02043  24233704.9294   24233700.1444
      1993.9844
 -11189654.46549  -8717593.83646  21841963.6014   21841961.9374
       372.0974
  -8999951.40649  -6996047.29747  21625996.5774   21625994.5694
      -785.0234
 04  9  3 16 58  0.0030000  0  6G20G11G14G23G 1G25
  -8672441.17249  -6751840.15644  22944586.0854   22944583.0464
      1883.8894
  -2093275.91449  -1619915.57445  22584762.0544   22584759.1324
     -1888.4894
  21005935.46148  16359285.74643  24230892.0304   24230890.0934
     -3467.1704
  -3605220.43047  -2802557.48443  24228021.2334   24228015.9134
      1991.3474
 -11195164.17649  -8721887.10946  21840915.2804   21840913.0264
       367.3144
  -8988043.89549  -6986768.71547  21628262.6084   21628260.1754
      -793.8344
 04  9  3 16 58 15.0030000  0  6G20G11G14G23G 1G25
  -8700652.15249  -6773822.72744  22939217.6944   22939215.0074
      1880.7324
  -2064823.05949  -1597744.52345  22590176.2414   22590173.3864
     -1896.8574
  21057956.73447  16399821.78143  24240791.1554   24240789.5114
     -3468.0854
  -3635052.49648  -2825803.23043  24222343.6164   24222339.1874
      1988.8044
 -11200603.63349  -8726125.64546  21839879.9444   21839878.1284
       362.6304
  -8976005.75049  -6977388.34847  21630553.3974   21630550.8434
      -802.5434
 04  9  3 16 58 30.0030000  0  6G20G11G14G23G 1G25
  -8728812.62549  -6795765.94944  22933858.8124   22933856.1944
      1877.3654
  -2036242.03949  -1575473.61345  22595614.8974   22595612.2374
     -1905.4014
  21109994.50448  16440370.66442  24250693.4764   24250691.7494
     -3469.1854
  -3664843.48848  -2849016.97743  24216675.1244   24216670.5774
      1986.0664
 -11205969.97349  -8730307.21146  21838858.7264   21838856.7494
       357.7564
  -8963834.16049  -6967903.98847  21632869.7264   21632867.2534
      -811.4394
 04  9  3 16 58 45.0030000  0  6G20G11G14G23G 1G25
  -8756924.24249  -6817671.09444  22928509.2964   22928506.5074
      1874.1084
  -2007534.81249  -1553104.35545  22601078.1244   22601075.0344
     -1913.8154
  21162046.65648  16480930.76643  24260598.5774   24260597.1364
     -3470.1434
  -3694595.10948  -2872200.03543  24211013.2654   24211009.0934
      1983.4414
 -11211265.07049  -8734433.25846  21837851.2104   21837849.2764
       353.0074
  -8951530.98449  -6958317.10547  21635210.7334   21635208.3154
      -820.2124
 04  9  3 16 59  0.0030000  0  6G20G11G14G23G 1G25
  -8784985.13749  -6839536.71144  22923169.1554   22923167.1124
      1870.7264
  -1978700.09449  -1530635.76645  22606565.2334   22606562.0154
     -1922.3154
  21214114.83647  16521503.34443  24270507.2804   24270505.2844
     -3471.2124
  -3724305.90648  -2895351.29343  24205359.9684   24205355.9054
      1980.7204
 -11216487.46949  -8738502.65646  21836857.6634   21836855.7224
       348.1604
  -8939094.86349  -6948626.62146  21637577.2724   21637574.9564
      -829.0754
 04  9  3 16 59 15.0030000  0  6G20G11G14G23G 1G25
  -8812997.61349  -6861364.60545  22917838.6634   22917836.6674
      1867.4984
  -1949740.51249  -1508069.86345  22612076.0304   22612073.0934
     -1930.6394
  21266196.42647  16562086.36342  24280417.4914   24280416.2224
     -3472.1064
  -3753978.28148  -2918472.60243  24199713.1324   24199709.2374
      1978.1584
 -11221639.62149  -8742517.32046  21835877.1944   21835875.4764
       343.4774
  -8926528.34049  -6938834.52347  21639968.3744   21639966.4054
      -837.7684
 04  9  3 16 59 30.0030000  0  6G20G11G14G23G 1G25
  -8840960.00049  -6883153.47745  22912517.8514   22912515.5774
      1864.1594
  -1920654.75849  -1485405.65245  22617610.9524   22617608.0814
     -1939.0504
  21318292.77047  16602680.89842  24290331.0694   24290329.7104
     -3473.0904
  -3783610.69148  -2941562.76643  24194074.5624   24194070.8234
      1975.4944
 -11226720.08249  -8746476.11746  21834910.0304   21834908.1904
       338.6974
  -8913829.97749  -6928939.69147  21642384.8664   21642382.7334
      -846.5584
 04  9  3 16 59 45.0030000  0  6G20G11G14G23G 1G25
  -8868873.68049  -6904904.39145  22907206.3514   22907203.8084
      1860.9124
  -1891444.75449  -1462644.62145  22623169.3044   22623166.7924
     -1947.3344
  21370402.13747  16643285.57042  24300247.4374   24300245.5304
     -3473.9584
  -3813204.75048  -2964623.06644  24188443.0624   24188439.7224
      1972.9374
 -11231730.63749  -8750380.44146  21833957.0464   21833955.0264
       334.0374
  -8901001.55149  -6918943.52047  21644826.3584   21644823.9484
      -855.2284
 04  9  3 17  0  0.0030000  0  6G20G11G14G23G 1G25
  -8896739.17649  -6926617.75845  22901903.7264   22901901.0114
      1857.7004
  -1862111.50049  -1439787.55145  22628751.4914   22628748.7694
     -1955.5504
  21422523.62548  16683899.70742  24310166.0304   24310163.6014
     -3474.7664
  -3842761.36348  -2987654.16844  24182818.1324   24182815.2024
      1970.4414
 -11236672.18749  -8754231.00846  21833016.3664   21833014.3434
       329.4374
  -8888044.01649  -6908846.74647  21647291.6874   21647289.5774
      -863.8364
 04  9  3 17  0 15.0030000  0  6G20G11G14G23G 1G25
  -8924556.32049  -6948293.43745  22896610.0774   22896607.4374
      1854.4764
  -1832655.04349  -1416834.48045  22634356.7024   22634354.2294
     -1963.7644
  21474657.08647  16724523.15242  24320086.2574   24320084.0974
     -3475.5644
  -3872280.28947  -3010655.89843  24177201.0544   24177197.8544
      1967.9284
 -11241544.64549  -8758027.73046  21832089.2024   21832087.1754
       324.8304
  -8874957.35249  -6898649.34847  21649782.2884   21649780.0504
      -872.4444
 04  9  3 17  0 30.0030000  0  6G20G11G14G23G 1G25
  -8952322.51249  -6969929.43445  22891326.2334   22891323.9764
      1851.0794
  -1803073.21149  -1393783.71145  22639985.7024   22639983.5154
     -1972.1224
  21526804.87148  16765157.76642  24330009.7184   24330007.9254
     -3476.5194
  -3901759.07847  -3033626.35543  24171591.4294   24171588.3974
      1965.2534
 -11246345.71149  -8761768.81646  21831175.5154   21831173.4684
       320.0714
  -8861739.19549  -6888349.48047  21652297.4914   21652295.3084
      -881.2104
 04  9  3 17  0 45.0030000  0  6G20G11G14G23G 1G25
  -8980039.25049  -6991526.88345  22886051.7654   22886049.5304
      1847.7834
  -1773368.07849  -1370636.86345  22645638.6554   22645636.1984
     -1980.3424
  21578965.06647  16805802.04342  24339935.4524   24339933.8154
     -3477.3464
  -3931199.60248  -3056567.01243  24165989.1794   24165985.6984
      1962.7024
 -11251077.18749  -8765455.68046  21830275.5774   21830273.5304
       315.4324
  -8848391.54749  -6877948.71547  21654838.1084   21654835.2494
      -889.8434
 04  9  3 17  1  0.0030000  0  6G20G11G14G23G 1G25
  -9007706.76249  -7013085.97745  22880786.8974   22880784.5384
      1844.5014
  -1743540.30949  -1347394.45745  22651314.5774   22651311.9564
     -1988.5184
  21631136.97347  16846455.44942  24349863.7184   24349862.2844
     -3478.1274
  -3960602.20346  -3079478.10943  24160393.3584   24160390.1754
      1960.1734
 -11255739.63749  -8769088.75846  21829387.9214   21829386.3904
       310.8304
  -8834914.93449  -6867447.46147  21657402.1944   21657399.6634
      -898.4414
 04  9  3 17  1 15.0030000  0  6G20G11G14G23G 1G25
  -9035323.78949  -7034605.73044  22875531.6944   22875529.3154
      1841.1354
  -1713589.11349  -1324055.87145  22657014.0694   22657011.2104
     -1996.7464
  21683321.68047  16887118.82842  24359794.3824   24359791.9604
     -3478.9804
  -3989965.73847  -3102358.76243  24154805.9214   24154802.5734
      1957.5694
 -11260332.02049  -8772667.23846  21828514.0774   21828512.1714
       306.1594
  -8821308.41449  -6856844.98047  21659991.3434   21659988.7574
      -907.1014
 04  9  3 17  1 30.0030000  0  6G20G11G14G23G 1G25
  -9062887.92249  -7056084.27744  22870286.1874   22870283.6634
      1837.6094
  -1683512.51649  -1300619.57845  22662737.2414   22662734.5854
     -2005.1074
  21735521.13348  16927793.69942  24369727.3274   24369725.0384
     -3479.9644
  -4019287.97747  -3125207.22343  24149226.1944   24149222.6674
      1954.8164
 -11264852.30949  -8776189.53946  21827654.0074   21827652.1164
       301.3534
  -8807570.01249  -6846139.73446  21662605.7334   21662603.1594
      -915.8934
 04  9  3 17  1 45.0030000  0  6G20G11G14G23G 1G25
  -9090399.46549  -7077521.82845  22865050.9994   22865048.6404
      1834.1034
  -1653311.19149  -1277086.08245  22668484.2654   22668481.5154
     -2013.4224
  21787734.85947  16968479.70742  24379663.3514   24379661.5464
     -3480.9154
  -4048569.34847  -3148023.86343  24143653.7494   24143650.0264
      1952.0914
 -11269300.91849  -8779655.99246  21826807.3744   21826805.4014
       296.5744
  -8793700.11749  -6835332.02047  21665244.9604   21665242.3784
      -924.6604
 04  9  3 17  2  0.0030000  0  6G20G11G14G23G 1G25
  -9117856.66049  -7098917.03945  22859826.3824   22859823.5074
      1830.4804
  -1622983.74249  -1253454.32445  22674255.4914   22674252.6514
     -2021.8304
  21839964.15647  17009177.83642  24389602.3124   24389600.1044
     -3481.9534
  -4077808.54347  -3170807.62943  24138089.6164   24138085.4764
      1949.2804
 -11273676.39849  -8783065.45746  21825974.7104   21825972.6754
       291.6994
  -8779697.46549  -6824420.86347  21667909.4914   21667906.9484
      -933.5104
 04  9  3 17  2 15.0030000  0  6G20G11G14G23G 1G25
  -9145260.78949  -7120270.89845  22854611.6634   22854608.7884
      1826.9424
  -1592531.75449  -1229725.51645  22680050.3434   22680047.6984
     -2030.1334
  21892207.53547  17049886.93042  24399543.8274   24399542.0154
     -3482.8924
  -4107006.77747  -3193559.47743  24132533.2654   24132529.4134
      1946.5494
 -11277980.27749  -8786419.12946  21825155.6944   21825154.1204
       286.9254
  -8765563.56249  -6813407.43747  21670599.2654   21670597.2264
      -942.2604
 04  9  3 17  2 30.0030000  0  6G20G11G14G23G 1G25
  -9172610.83249  -7141582.61345  22849406.8904   22849404.0384
      1823.3364
  -1561954.81649  -1205899.34045  22685869.0304   22685866.5774
     -2038.4624
  21944465.52047  17090607.41042  24409488.0464   24409486.3974
     -3483.8664
  -4136163.25447  -3216278.78143  24126985.0304   24126981.6044
      1943.7654
 -11282211.82449  -8789716.43046  21824350.3194   21824348.6324
       282.1034
  -8751297.69949  -6802291.19147  21673313.8904   21673311.5304
      -951.0584
 04  9  3 17  2 45.0030000  0  6G20G11G14G23G 1G25
  -9199904.91049  -7162850.71145  22844212.9134   22844210.2804
      1819.6054
  -1531251.57849  -1181974.75445  22691711.7494   22691709.2064
     -2046.8834
  21996739.72747  17131340.53543  24419435.5464   24419434.1714
     -3484.9474
  -4165276.34848  -3238964.29343  24121445.3514   24121441.1554
      1940.8734
 -11286369.51649  -8792956.19146  21823559.1634   21823557.5344
       277.1794
  -8736898.51249  -6791071.05147  21676053.9134   21676051.6554
      -959.9464
 04  9  3 17  3  0.0030000  0  6G20G11G14G23G 1G25
  -9227142.42649  -7184074.74245  22839029.7804   22839027.3314
      1815.8344
  -1500421.77049  -1157951.55145  22697578.0774   22697576.1514
     -2055.3214
  22049030.41847  17172086.50442  24429386.7654   24429384.6164
     -3486.0464
  -4194345.56648  -3261615.61343  24115914.3744   24115909.7064
      1937.9484
 -11290452.98049  -8796138.10946  21822782.3824   21822780.3314
       272.2314
  -8722365.64849  -6779746.74247  21678819.7884   21678817.3544
      -968.8584
 04  9  3 17  3 15.0030000  0  6G20G11G14G23G 1G25
  -9254324.75449  -7205255.77345  22833857.2884   22833854.7884
      1812.1554
  -1469467.29748  -1133831.19145  22703468.8664   22703466.0074
     -2063.6324
  22101335.94947  17212844.03142  24439339.7104   24439338.4254
     -3487.0354
  -4223372.48048  -3284233.95343  24110390.2184   24110386.4484
      1935.1284
 -11294463.87549  -8799263.48046  21822019.1404   21822017.1364
       267.3934
  -8707700.81649  -6768319.60247  21681610.1014   21681607.7614
      -977.6554
 04  9  3 17  3 30.0030000  0  6G20G11G14G23G 1G25
  -9281452.29749  -7226394.10245  22828695.4294   22828692.8044
      1808.5034
  -1438388.95749  -1109614.32045  22709383.0854   22709379.9404
     -2071.8894
  22153655.39147  17253612.40642  24449295.5934   24449294.4644
     -3487.9634
  -4252357.75047  -3306819.87543  24104874.5304   24104870.9294
      1932.3514
 -11298402.89149  -8802332.84846  21821269.5224   21821267.6904
       262.6014
  -8692904.81649  -6756790.25047  21684425.8514   21684423.3544
      -986.4004
 04  9  3 17  3 45.0030000  0  6G20G11G14G23G 1G25
  -9308525.22749  -7247489.89145  22823543.1404   22823540.9564
      1804.8624
  -1407187.44949  -1085301.45745  22715320.3824   22715317.6044
     -2080.1014
  22205988.39148  17294391.34042  24459254.5624   24459253.2024
     -3488.8674
  -4281301.85548  -3329373.69543  24099366.5154   24099363.0894
      1929.6074
 -11302270.48849  -8805346.55946  21820533.2334   21820531.7694
       257.8404
  -8677978.13749  -6745159.07447  21687266.0934   21687263.6794
      -995.1124
 04  9  3 17  4  0.0030000  0  6G20G11G14G23G 1G25
  -9335544.82049  -7268544.10945  22818401.6714   22818399.1324
      1801.3064
  -1375864.23849  -1060893.78145  22721280.9604   22721278.2264
     -2088.2144
  22258333.35948  17335179.59842  24469215.6164   24469213.7924
     -3489.6654
  -4310206.11747  -3351896.47743  24093866.3974   24093862.6984
      1926.9514
 -11306068.15649  -8808305.78146  21819810.8124   21819809.0814
       253.1784
  -8662922.32849  -6733427.28147  21690131.2654   21690128.6984
     -1003.7214
 04  9  3 17  4 15.0030000  0  6G20G11G14G23G 1G25
  -9362511.63749  -7289557.19945  22813270.0304   22813267.3514
      1797.7884
  -1344420.61749  -1036392.27045  22727264.4994   22727261.9334
     -2096.2414
  22310689.41847  17375976.50042  24479179.1014   24479177.1634
     -3490.4044
  -4339071.24247  -3374388.77043  24088373.2724   24088369.5734
      1924.3424
 -11309796.66449  -8811211.10246  21819101.1244   21819099.6084
       248.5674
  -8647738.35949  -6721595.61347  21693020.4834   21693017.8824
     -1012.2654
 04  9  3 17  4 30.0030000  0  6G20G11G14G23G 1G25
  -9389421.66449  -7310526.04745  22808149.1244   22808146.8004
      1794.0024
  -1312853.07849  -1011794.20745  22733271.2804   22733269.4764
     -2104.5034
  22363060.10547  17416784.80542  24489144.4134   24489142.7534
     -3491.3794
  -4367893.55547  -3396847.68443  24082888.3044   24082884.7764
      1921.4884
 -11313452.43449  -8814059.75446  21818405.6714   21818403.8664
       243.7184
  -8632422.68049  -6709661.32047  21695935.1324   21695932.7694
     -1021.0454
 04  9  3 17  4 45.0030000  0  6G20G11G14G23G 1G25
  -9416277.99649  -7331453.04745  22803038.6474   22803035.9524
      1790.4224
  -1281164.82048   -987102.07045  22739301.7654   22739299.3974
     -2112.5514
  22415442.09847  17457601.92642  24499112.3124   24499110.5504
     -3492.1334
  -4396676.18047  -3419275.68744  24077411.0854   24077407.9914
      1918.8424
 -11317038.75849  -8816854.28946  21817723.0934   21817721.6244
       239.0884
  -8616978.60949  -6697626.98047  21698874.1324   21698871.6124
     -1029.6054
 04  9  3 17  5  0.0030000  0  6G20G11G14G23G 1G25
  -9443079.59849  -7352337.40645  22797938.0694   22797935.6984
      1786.7734
  -1249355.45748   -962315.57445  22745355.0224   22745352.6124
     -2120.6244
  22467835.94947  17498428.27342  24509082.2964   24509080.9014
     -3492.9234
  -4425418.35946  -3441672.16843  24071941.7024   24071938.5654
      1916.1454
 -11320554.90249  -8819594.13746  21817053.9834   21817051.9644
       234.4104
  -8601405.35949  -6685491.98447  21701837.6014   21701835.0424
     -1038.2174
 04  9  3 17  5 15.0030000  0  6G20G11G14G23G 1G25
  -9469825.28549  -7373178.19545  22792848.6014   22792845.8624
      1783.0464
  -1217424.27349   -937434.14145  22751431.1084   22751428.6514
     -2128.7464
  22520242.58247  17539264.59842  24519055.5544   24519053.8084
     -3493.7764
  -4454119.21547  -3464036.45343  24066480.4054   24066477.3314
      1913.3904
 -11323999.96149  -8822278.60246  21816398.6554   21816396.4214
       229.6714
  -8585702.16849  -6673255.73447  21704825.6634   21704823.4134
     -1046.8794
 04  9  3 17  5 30.0030000  0  6G20G11G14G23G 1G25
  -9496514.92649  -7393975.31645  22787769.8274   22787766.8824
      1779.3094
  -1185371.65648   -912458.09845  22757530.7414   22757527.9094
     -2136.8414
  22572661.85247  17580110.73842  24529030.0384   24529028.4564
     -3494.6184
  -4482778.72347  -3486368.51644  24061026.0934   24061023.2884
      1910.6344
 -11327374.11349  -8824907.80946  21815756.1164   21815754.4684
       224.9434
  -8569869.33249  -6660918.46547  21707838.4684   21707836.6204
     -1055.5224
 04  9  3 17  5 45.0030000  0  6G20G11G14G23G 1G25
  -9523150.43049  -7414730.24645  22782701.4684   22782698.8154
      1775.7004
  -1153199.88749   -887389.19545  22763652.2414   22763650.0934
     -2144.7854
  22625091.41447  17620964.93042  24539007.0154   24539005.3904
     -3495.3044
  -4511398.98047  -3508669.97744  24055580.3514   24055577.1674
      1908.0174
 -11330679.54349  -8827483.46147  21815127.2184   21815125.7964
       220.3624
  -8553909.04349  -6648481.87547  21710875.7264   21710873.6674
     -1064.0194
 04  9  3 17  6  0.0030000  0  6G20G11G14G23G 1G25
  -9549732.28549  -7435443.38345  22777643.3194   22777640.1474
      1772.1244
  -1120909.91048   -862228.19545  22769797.2024   22769794.4404
     -2152.6654
  22677530.45747  17661826.49642  24548986.3354   24548984.2614
     -3495.9364
  -4539980.55547  -3530941.32044  24050141.2654   24050138.1904
      1905.4384
 -11333916.96149  -8830006.12146  21814511.4374   21814509.8584
       215.8284
  -8537822.08649  -6635946.59047  21713936.9684   21713934.8544
     -1072.4644
 04  9  3 17  6 15.0040000  0  6G20G11G14G23G 1G25
  -9576258.11749  -7456112.85945  22772595.3874   22772592.6914
      1768.3894
  -1088495.78948   -836970.44945  22775965.3244   22775962.8094
     -2160.9414
  22729986.28547  17702701.13742  24558967.9024   24558966.6254
     -3497.0554
  -4568521.57047  -3553181.04743  24044709.9574   24044706.9654
      1902.7344
 -11337082.76649  -8832472.98046  21813908.7774   21813907.1294
       211.0544
  -8521603.66449  -6623308.85947  21717023.1604   21717020.9104
     -1081.2284
 04  9  3 17  6 30.0040000  0  6G20G11G14G23G 1G25
  -9602723.87548  -7476735.52045  22767558.8164   22767556.5434
      1764.3844
  -1055961.90648   -811619.39145  22782156.4964   22782154.0164
     -2168.9264
  22782452.32047  17743583.73442  24568951.8404   24568950.4774
     -3497.7364
  -4597017.70747  -3575385.81244  24039287.7934   24039284.1684
      1899.7424
 -11340176.29749  -8834883.52346  21813320.1844   21813318.4494
       206.2354
  -8505255.69549  -6610570.18447  21720134.2464   21720131.8754
     -1089.8654
 04  9  3 17  6 45.0040000  0  6G20G11G14G23G 1G25
  -9629130.35249  -7497311.98845  22762534.3714   22762531.3444
      1760.4324
  -1023305.64848   -786172.97345  22788371.0124   22788368.3164
     -2177.0844
  22834932.52747  17784477.38742  24578938.1994   24578937.4304
     -3498.6804
  -4625470.24647  -3597556.61343  24033873.0824   24033869.1214
      1896.8364
 -11343197.12149  -8837237.41446  21812745.4414   21812743.9144
       201.3884
  -8488776.71149  -6597729.41447  21723270.1844   21723267.6254
     -1098.5994
 04  9  3 17  7  0.0040000  0  6G20G11G14G23G 1G25
  -9655480.23048  -7517844.35945  22757519.8874   22757516.9614
      1756.6594
   -990530.12149   -760633.61345  22794608.2624   22794605.0594
     -2185.0354
  22887423.71947  17825379.58242  24588927.3244   24588926.0234
     -3499.4134
  -4653882.08247  -3619695.68744  24028466.6604   24028462.9064
      1894.1224
 -11346148.25049  -8839536.99246  21812183.7624   21812182.1214
       196.7424
  -8472169.56649  -6584788.78947  21726430.4024   21726427.8794
     -1107.1434
 04  9  3 17  7 15.0040000  0  6G20G11G14G23G 1G25
  -9681772.94548  -7538332.16845  22752516.3014   22752514.3554
      1752.8484
   -957635.14849   -735001.18045  22800867.6844   22800864.6414
     -2192.9984
  22939926.29347  17866290.64142  24598918.3484   24598916.6874
     -3500.1724
  -4682252.72747  -3641802.67644  24023068.4574   24023064.1094
      1891.3764
 -11349029.34849  -8841782.00846  21811635.6214   21811633.4024
       192.0734
  -8455434.03549  -6571748.11747  21729614.9494   21729612.5394
     -1115.7024
 04  9  3 17  7 30.0040000  0  6G20G11G14G23G 1G25
  -9708009.66048  -7558776.36345  22747523.6444   22747521.1174
      1749.1144
   -924622.53548   -709277.06245  22807149.6844   22807146.6524
     -2200.8414
  22992438.69547  17907209.37942  24608911.3244   24608909.8124
     -3500.8274
  -4710583.44147  -3663878.53943  24017677.0274   24017673.1134
      1888.7144
 -11351841.85549  -8843973.57046  21811100.5434   21811098.3164
       187.5014
  -8438571.63749  -6558608.59047  21732823.8554   21732821.2154
     -1124.1604
 04  9  3 17  7 45.0040000  0  6G20G11G14G23G 1G25
  -9734189.27748  -7579176.04745  22742541.9344   22742539.7424
      1745.3084
   -891491.59448   -683460.75845  22813454.3404   22813450.9494
     -2208.7294
  23044961.84047  17948136.47342  24618905.7384   24618905.1604
     -3501.5434
  -4738873.55148  -3685922.78143  24012293.3324   24012288.9804
      1886.0074
 -11354584.97749  -8846111.06646  21810578.5434   21810576.4264
       182.8754
  -8421581.66849  -6545369.65647  21736056.6994   21736053.9344
     -1132.6654
 04  9  3 17  8  0.0040000  0  6G20G11G14G23G 1G25
  -9760311.62548  -7599531.11345  22737570.8484   22737568.1604
      1741.4904
   -858242.41448   -657552.30945  22819781.5904   22819778.3484
     -2216.6124
  23097495.42647  17989071.71142  24628902.7544   24628901.8914
     -3502.2394
  -4767123.06248  -3707935.37143  24006918.0514   24006913.7504
      1883.3014
 -11357258.77749  -8848194.54746  21810069.4344   21810067.5474
       178.2534
  -8404464.36349  -6532031.49647  21739314.0664   21739311.7194
     -1141.1544
 04  9  3 17  8 15.0040000  0  6G20G11G14G23G 1G25
  -9786375.17248  -7619840.36745  22732611.2854   22732608.5944
      1737.5704
   -824874.08248   -631551.03145  22826131.2154   22826127.7774
     -2224.5554
  23150040.69947  18030016.03942  24638901.9264   24638900.6994
     -3503.0184
  -4795330.66447  -3729915.31643  24001549.8634   24001545.5194
      1880.5074
 -11359862.08649  -8850223.10246  21809574.3874   21809572.9144
       173.5544
  -8387218.62149  -6518593.26247  21742595.8164   21742593.8794
     -1149.7164
 04  9  3 17  8 30.0040000  0  6G20G11G14G23G 1G25
  -9812380.21948  -7640104.03545  22727662.5984   22727660.3594
      1733.6704
   -791387.38348   -605457.50845  22832503.4414   22832500.7934
     -2232.4474
  23202596.83647  18070968.86342  24648903.1374   24648901.5474
     -3503.7424
  -4823496.76248  -3751862.91043  23996190.7854   23996186.1764
      1877.7404
 -11362395.47349  -8852197.16846  21809092.1604   21809090.1644
       168.8924
  -8369845.04749  -6505055.42246  21745901.9024   21745899.4494
     -1158.2384
 04  9  3 17  8 45.0040000  0  6G20G11G14G23G 1G25
  -9838325.30949  -7660320.98445  22722725.3094   22722722.9734
      1729.6734
   -757781.34448   -579271.00845  22838898.2544   22838895.5704
     -2240.4034
  23255165.28947  18111931.24242  24658906.6994   24658905.2774
     -3504.5644
  -4851620.10947  -3773777.19544  23990838.5434   23990834.1874
      1874.8904
 -11364857.70749  -8854115.78946  21808623.2624   21808621.5624
       164.1494
  -8352342.59049  -6491417.14547  21749232.5354   21749229.9024
     -1166.8304
 04  9  3 17  9  0.0040000  0  6G20G11G14G23G 1G25
  -9864210.82448  -7680491.50845  22717799.6914   22717796.8524
      1725.7014
   -724056.80548   -552992.16045  22845315.9654   22845313.8204
     -2248.3034
  23307745.16047  18152902.55142  24668912.2694   24668911.1644
     -3505.3254
  -4879701.24647  -3795658.56643  23985494.7234   23985490.7894
      1872.0764
 -11367249.49649  -8855979.51246  21808168.3554   21808166.4344
       159.4534
  -8334711.99249  -6477679.01647  21752587.8794   21752585.7074
     -1175.3734
 04  9  3 17  9 15.0040000  0  6G20G11G14G23G 1G25
  -9890034.36348  -7700613.74245  22712885.6054   22712882.6564
      1721.5694
   -690211.90248   -526619.53145  22851756.4104   22851754.0704
     -2256.3274
  23360338.47747  18193884.31642  24678919.3404   24678918.6294
     -3506.2214
  -4907738.03147  -3817505.38743  23980159.3794   23980155.3054
      1869.1194
 -11369568.74649  -8857786.72746  21807726.9264   21807724.9264
       154.6174
  -8316951.19949  -6463839.44947  21755967.3014   21755965.0664
     -1184.0534
 04  9  3 17  9 30.0040000  0  6G20G11G14G23G 1G25
  -9915796.73849  -7720688.32045  22707983.5274   22707980.3364
      1717.4924
   -656247.96548   -500154.14545  22858219.6604   22858217.1874
     -2264.2624
  23412944.09447  18234875.68442  24688931.4024   24688929.0314
     -3507.0414
  -4935731.48848  -3839318.44143  23974832.1134   23974828.3914
      1866.2304
 -11371816.58249  -8859538.29747  21807299.3874   21807297.0784
       149.8564
  -8299061.39149  -6449899.33247  21759371.7074   21759369.4654
     -1192.6544
 04  9  3 17  9 45.0040000  0  6G20G11G14G23G 1G25
  -9941498.90249  -7740715.96945  22703092.1134   22703089.5314
      1713.4784
   -622166.33248   -473597.04745  22864705.2234   22864702.4104
     -2272.1094
  23465560.79747  18275875.69142  24698943.9024   24698942.4344
     -3507.7804
  -4963682.76247  -3861098.63343  23969513.0124   23969509.7934
      1863.4184
 -11373994.19549  -8861235.14547  21806884.8404   21806883.2424
       145.1744
  -8281043.98049  -6435859.78547  21762800.5194   21762797.8444
     -1201.1614
 04  9  3 17 10  0.0040000  0  6G20G11G14G23G 1G25
  -9967138.80148  -7760695.10545  22698213.0434   22698210.2344
      1709.3274
   -587965.39148   -446946.95745  22871213.2854   22871210.7814
     -2280.0634
  23518190.39847  18316885.74642  24708958.9024   24708957.8204
     -3508.6404
  -4991589.94547  -3882844.46143  23964202.4964   23964198.4144
      1860.4794
 -11376099.80149  -8862875.87146  21806483.9494   21806482.6524
       140.3744
  -8262897.16849  -6421719.41447  21766253.6444   21766251.2344
     -1209.7874
 04  9  3 17 10 15.0040000  0  6G20G11G14G23G 1G25
  -9992717.58649  -7780626.61345  22693345.0984   22693342.4264
      1705.2524
   -553646.73448   -420205.16845  22877743.7304   22877741.1254
     -2287.9104
  23570831.35547  18357904.64542  24718976.1134   24718974.7734
     -3509.3974
  -5019454.34848  -3904556.95343  23958900.5274   23958896.2464
      1857.6274
 -11378134.84849  -8864461.61346  21806096.8094   21806095.3244
       135.6704
  -8244622.45749  -6407479.39547  21769730.9654   21769728.4964
     -1218.3144
 04  9  3 17 10 30.0040000  0  6G20G11G14G23G 1G25
 -10018235.33248  -7800510.57445  22688489.6764   22688486.7974
      1701.1834
   -519211.09849   -393372.21545  22884297.0044   22884294.6954
     -2295.7094
  23623483.18847  18398932.00042  24728995.9734   24728994.1094
     -3510.1224
  -5047276.51648  -3926236.54743  23953605.7234   23953601.2774
      1854.8114
 -11380099.82449  -8865992.77047  21805722.9264   21805721.4534
       130.9984
  -8226220.39849  -6393140.12147  21773232.5594   21773230.2234
     -1226.8044
 04  9  3 17 10 45.0040000  0  6G20G11G14G23G 1G25
 -10043690.62148  -7820345.85545  22683645.5824   22683642.6094
      1697.0194
   -484657.46548   -366447.32445  22890872.3634   22890870.1134
     -2303.5764
  23676147.02347  18439968.73842  24739016.4184   24739015.1724
     -3510.9224
  -5075054.97748  -3947882.07844  23948319.6914   23948315.1804
      1851.8974
 -11381993.43749  -8867468.30146  21805362.4574   21805361.1134
       126.2414
  -8207689.79349  -6378700.69547  21776758.6134   21776756.4924
     -1235.3744
 04  9  3 17 11  0.0040000  0  6G20G11G14G23G 1G25
 -10069083.86748  -7840132.79345  22678813.4804   22678810.7504
      1692.8834
   -449986.68048   -339431.14545  22897469.8554   22897467.8874
     -2311.3864
  23728822.10947  18481014.20342  24749041.0274   24749038.9024
     -3511.6724
  -5102790.33648  -3969494.02744  23943042.5274   23943037.9804
      1849.0244
 -11383816.41049  -8868888.80146  21805015.9574   21805014.0944
       121.5324
  -8189031.55948  -6364161.80947  21780309.5664   21780307.3204
     -1243.8824
 04  9  3 17 11 15.0040000  0  6G20G11G14G23G 1G25
 -10094414.53148  -7859870.96945  22673993.0124   22673990.7464
      1688.7114
   -415198.83649   -312323.75845  22904090.0744   22904088.1134
     -2319.1904
  23781508.63747  18522068.60942  24759067.1524   24759065.0984
     -3512.4354
  -5130482.31248  -3991072.16444  23937772.4804   23937767.9924
      1846.1324
 -11385568.56649  -8870254.11747  21804682.4414   21804680.3484
       116.8104
  -8170245.64849  -6349523.44947  21783884.1294   21783881.8164
     -1252.3944
 04  9  3 17 11 30.0040000  0  6G20G11G14G23G 1G25
 -10119681.19548  -7879559.26645  22669184.9494   22669182.5474
      1684.4444
   -380292.79348   -285124.25445  22910732.0194   22910730.1334
     -2327.0704
  23834207.68447  18563132.77342  24769095.3014   24769093.4304
     -3513.2704
  -5158129.65248  -4012615.53544  23932511.6604   23932507.2194
      1843.1564
 -11387248.69949  -8871563.30947  21804362.5904   21804360.3324
       112.0094
  -8151330.96948  -6334784.73047  21787483.8554   21787481.3944
     -1260.9794
 04  9  3 17 11 45.0040000  0  6G20G11G14G23G 1G25
 -10144883.87548  -7899197.71145  22664389.0514   22664387.1374
      1680.1794
   -345269.09048   -257833.07445  22917397.2544   22917395.2544
     -2334.9144
  23886919.00047  18604206.50842  24779125.7694   24779123.9144
     -3514.0884
  -5185732.60248  -4034124.30944  23927258.5274   23927255.1874
      1840.1974
 -11388857.12549  -8872816.62947  21804056.4734   21804054.5124
       107.2284
  -8132287.79349  -6319945.89847  21791107.5594   21791105.0354
     -1269.5454
